[[{"header":{"parameterUnit":"m.s-1","parameterCategory":1,"la1":31.0,"la2":29.5877,"lo1":-88.7671,"lo2":-86.6584,"dy":0.0162,"dx":0.0185,"nx":115,"ny":88,"refTime":"2023-06-21T12:00:00:Z","depth":0,"parameterNumber":2,"parameterNumberName":"U-component_of_WINDS"},"data":[0.0,0.0,0.0,0.0,0.0,0.0,0.0,0.0,0.0,0.0,0.0,0.0,0.0,0.0,0.0,0.0,0.0,0.0,0.0,0.0,0.0,0.0,0.0,0.0,0.0,0.0,0.0,0.0,0.0,0.0,0.0,0.0,0.0,0.0,0.0,0.0,0.0,0.0,0.0,0.0,0.0,0.0,0.0,0.0,0.0,0.0,0.0,0.0,0.0,0.0,0.0,0.0,0.0,0.0,0.0,0.0,0.0,0.0,0.0,0.0,0.0,0.0,0.0,0.0,0.0,0.0,0.0,0.0,0.0,0.0,0.0,0.0,0.0,0.0,0.0,0.0,0.0,0.0,0.0,0.0,0.0,0.0,0.0,0.0,0.0,0.0,0.0,0.0,0.0,0.0,0.0,0.0,0.0,0.0,0.0,0.0,0.0,0.0,0.0,0.0,0.0,0.0,0.0,0.0,0.0,0.0,0.0,0.0,0.0,0.0,0.0,0.0,0.0,0.0,0.0,0.0,0.0,0.0,0.0,0.0,0.0,0.0,0.0,0.0,0.0,0.0,0.0,0.0,0.0,0.0,0.0,0.0,0.0,0.0,0.0,0.0,0.0,0.0,0.0,0.0,0.0,0.0,0.0,0.0,0.0,0.0,0.0,0.0,0.0,0.0,0.0,0.0,0.0,0.0,0.0,0.0,0.0,0.0,0.0,0.0,0.0,0.0,0.0,0.0,0.0,0.0,0.0,0.0,0.0,0.0,0.0,0.0,0.0,0.0,0.0,0.0,0.0,0.0,0.0,0.0,0.0,0.0,0.0,0.0,0.0,0.0,0.0,0.0,0.0,0.0,0.0,0.0,0.0,0.0,0.0,0.0,0.0,0.0,0.0,0.0,0.0,0.0,0.0,0.0,0.0,0.0,0.0,0.0,0.0,0.0,0.0,0.0,0.0,0.0,0.0,0.0,0.0,0.0,0.0,0.0,0.0,0.0,0.0,0.0,0.0,0.0,0.0,0.0,0.0,0.0,0.0,0.0,0.0,0.0,0.0,0.0,0.0,0.0,0.0,0.0,0.0,0.0,0.0,0.0,0.0,0.0,0.0,0.0,0.0,0.0,0.0,0.0,0.0,0.0,0.0,0.0,0.0,0.0,0.0,0.0,0.0,0.0,0.0,0.0,0.0,0.0,0.0,0.0,0.0,0.0,0.0,0.0,0.0,0.0,0.0,0.0,0.0,0.0,0.0,0.0,0.0,0.0,0.0,0.0,0.0,0.0,0.0,0.0,0.0,0.0,0.0,0.0,0.0,0.0,0.0,0.0,0.0,0.0,0.0,0.0,0.0,0.0,0.0,0.0,0.0,0.0,0.0,0.0,0.0,0.0,0.0,0.0,0.0,0.0,0.0,0.0,0.0,0.0,0.0,0.0,0.0,0.0,0.0,0.0,0.0,0.0,0.0,0.0,0.0,0.0,0.0,0.0,0.0,0.0,0.0,0.0,0.0,0.0,0.0,0.0,0.0,0.0,0.0,0.0,0.0,0.0,0.0,0.0,0.0,0.0,0.0,0.0,0.0,0.0,0.0,0.0,0.0,0.0,0.0,0.0,0.0,0.0,0.0,0.0,0.0,0.0,0.0,0.0,0.0,0.0,0.0,0.0,0.0,0.0,0.0,0.0,0.0,0.0,0.0,0.0,0.0,0.0,0.0,0.0,0.0,0.0,0.0,0.0,0.0,0.0,0.0,0.0,0.0,0.0,0.0,0.0,0.0,0.0,0.0,0.0,0.0,0.0,0.0,0.0,0.0,0.0,0.0,0.0,0.0,0.0,0.0,0.0,0.0,0.0,0.0,0.0,0.0,0.0,0.0,0.0,0.0,0.0,0.0,0.0,0.0,0.0,0.0,0.0,0.0,0.0,0.0,0.0,0.0,0.0,0.0,0.0,0.0,0.0,0.0,0.0,0.0,0.0,0.0,0.0,0.0,0.0,0.0,0.0,0.0,0.0,0.0,0.0,0.0,0.0,0.0,0.0,0.0,0.0,0.0,0.0,0.0,0.0,0.0,0.0,0.0,0.0,0.0,0.0,0.0,0.0,0.0,0.0,0.0,0.0,0.0,0.0,0.0,0.0,0.0,0.0,0.0,0.0,0.0,0.0,0.0,0.0,0.0,0.0,0.0,0.0,0.0,0.0,0.0,0.0,0.0,0.0,0.0,0.0,0.0,0.0,0.0,0.0,0.0,0.0,0.0,0.0,0.0,0.0,0.0,0.0,0.0,0.0,0.0,0.0,0.0,0.0,0.0,0.0,0.0,0.0,0.0,0.0,0.0,0.0,0.0,0.0,0.0,0.0,0.0,0.0,0.0,0.0,0.0,0.0,0.0,0.0,0.0,0.0,0.0,0.0,0.0,0.0,0.0,0.0,0.0,0.0,0.0,0.0,0.0,0.0,0.0,0.0,0.0,0.0,0.0,0.0,0.0,0.0,0.0,0.0,0.0,0.0,0.0,0.0,0.0,0.0,0.0,0.0,0.0,0.0,0.0,0.0,0.0,0.0,0.0,0.0,0.0,0.0,0.0,0.0,0.0,0.0,0.0,0.0,0.0,0.0,0.0,0.0,0.0,0.0,0.0,0.0,0.0,0.0,0.0,0.0,0.0,0.0,0.0,0.0,0.0,0.0,0.0,0.0,0.0,0.0,0.0,0.0,0.0,0.0,0.0,0.0,0.0,0.0,0.0,0.0,0.0,0.0,0.0,0.0,0.0,0.0,0.0,0.0,0.0,0.0,0.0,0.0,0.0,0.0,0.0,0.0,0.0,0.0,0.0,0.0,0.0,0.0,0.0,0.0,0.0,0.0,0.0,0.0,0.0,0.0,0.0,0.0,0.0,0.0,0.0,0.0,0.0,0.0,0.0,0.0,0.0,0.0,0.0,0.0,0.0,0.0,0.0,0.0,0.0,0.0,0.0,0.0,0.0,0.0,0.0,0.0,0.0,0.0,0.0,0.0,0.0,0.0,0.0,0.0,0.0,0.0,0.0,0.0,0.0,0.0,0.0,0.0,0.0,0.0,0.0,0.0,0.0,0.0,0.0,0.0,0.0,0.0,0.0,0.0,0.0,0.0,0.0,0.0,0.0,0.0,0.0,0.0,0.0,0.0,0.0,0.0,0.0,0.0,0.0,0.0,0.0,0.0,0.0,0.0,0.0,0.0,0.0,0.0,0.0,0.0,0.0,0.0,0.0,0.0,0.0,0.0,0.0,0.0,0.0,0.0,0.0,0.0,0.0,0.0,0.0,0.0,0.0,0.0,0.0,0.0,0.0,0.0,0.0,0.0,0.0,0.0,0.0,0.0,0.0,0.0,0.0,0.0,0.0,0.0,0.0,0.0,0.0,0.0,0.0,0.0,0.0,0.0,0.0,0.0,0.0,0.0,0.0,0.0,0.0,0.0,0.0,0.0,0.0,0.0,0.0,0.0,0.0,0.0,0.0,0.0,0.0,0.0,0.0,0.0,0.0,0.0,0.0,0.0,0.0,0.0,0.0,0.0,0.0,0.0,0.0,0.0,0.0,0.0,0.0,0.0,0.0,0.0,0.0,0.0,0.0,0.0,0.0,0.0,0.0,0.0,0.0,0.0,0.0,0.0,0.0,0.0,0.0,0.0,0.0,0.0,0.0,0.0,0.0,0.0,0.0,0.0,0.0,0.0,0.0,0.0,0.0,0.0,0.0,0.0,0.0,0.0,0.0,0.0,0.0,0.0,0.0,0.0,0.0,0.0,0.0,0.0,0.0,0.0,0.0,0.0,0.0,0.0,0.0,0.0,0.0,0.0,0.0,0.0,0.0,0.0,0.0,0.0,0.0,0.0,0.0,0.0,0.0,0.0,0.0,0.0,0.0,0.0,0.0,0.0,0.0,0.0,0.0,0.0,0.0,0.0,0.0,0.0,0.0,0.0,0.0,0.0,0.0,0.0,0.0,0.0,0.0,0.0,0.0,0.0,0.0,0.0,0.0,0.0,0.0,0.0,0.0,0.0,0.0,0.0,0.0,0.0,0.0,0.0,0.0,0.0,0.0,0.0,0.0,0.0,0.0,0.0,0.0,0.0,0.0,0.0,0.0,0.0,0.0,0.0,0.0,0.0,0.0,0.0,0.0,0.0,0.0,0.0,0.0,0.0,0.0,0.0,0.0,0.0,0.0,0.0,0.0,0.0,0.0,0.0,0.0,0.0,0.0,0.0,0.0,0.0,0.0,0.0,0.0,0.0,0.0,0.0,0.0,0.0,0.0,0.0,-0.9468,0.0,0.0,0.0,0.0,0.0,0.0,0.0,0.0,0.0,0.0,0.0,0.0,0.0,0.0,0.0,0.0,0.0,0.0,0.0,0.0,0.0,0.0,0.0,0.0,0.0,0.0,0.0,0.0,0.0,0.0,0.0,0.0,0.0,0.0,0.0,0.0,0.0,0.0,0.0,0.0,0.0,0.0,0.0,0.0,0.0,0.0,0.0,0.0,0.0,0.0,0.0,0.0,0.0,0.0,0.0,0.0,0.0,0.0,0.0,0.0,0.0,0.0,0.0,0.0,0.0,0.0,0.0,0.0,0.0,0.0,0.0,0.0,0.0,0.0,0.0,0.0,0.0,0.0,0.0,0.0,0.0,0.0,0.0,0.0,0.0,0.0,0.0,0.0,0.0,0.0,0.0,0.0,0.0,0.0,0.0,0.0,0.0,0.0,0.0,0.0,0.0,0.0,0.0,0.0,0.0,0.0,0.0,0.0,0.0,0.0,-0.8802,-0.9262,-1.1693,-1.2287,-1.0781,0.0,0.0,0.0,0.0,0.0,0.0,0.0,0.0,0.0,0.0,0.0,0.0,0.0,0.0,0.0,0.0,0.0,0.0,0.0,0.0,0.0,0.0,0.0,0.0,0.0,0.0,0.0,0.0,0.0,0.0,0.0,0.0,0.0,0.0,0.0,0.0,0.0,0.0,0.0,0.0,0.0,0.0,0.0,0.0,0.0,0.0,0.0,0.0,0.0,0.0,0.0,0.0,0.0,0.0,0.0,0.0,0.0,0.0,0.0,0.0,0.0,0.0,0.0,0.0,0.0,0.0,0.0,0.0,0.0,0.0,0.0,0.0,0.0,0.0,0.0,0.0,0.0,0.0,0.0,0.0,0.0,0.0,0.0,0.0,0.0,0.0,0.0,0.0,0.0,0.0,0.0,0.0,0.0,0.0,0.0,0.0,0.0,0.0,0.0,0.0,0.0,0.0,0.0,0.0,0.0,0.0,0.0,0.0,0.0,0.0,0.0,0.0,-1.1862,-1.2573,-1.1651,0.0,0.0,0.0,0.0,0.0,0.0,0.0,0.0,0.0,0.0,0.0,0.0,0.0,0.0,0.0,0.0,0.0,0.0,0.0,0.0,0.0,0.0,0.0,0.0,0.0,0.0,0.0,0.0,0.0,0.0,0.0,0.0,0.0,0.0,0.0,0.0,0.0,0.0,0.0,0.0,0.0,0.0,0.0,0.0,0.0,0.0,0.0,0.0,0.0,0.0,0.0,0.0,0.0,0.0,0.0,0.0,0.0,0.0,0.0,0.0,0.0,0.0,0.0,0.0,0.0,0.0,0.0,0.0,0.0,0.0,0.0,0.0,0.0,0.0,0.0,0.0,0.0,0.0,0.0,0.0,0.0,0.0,0.0,0.0,0.0,0.0,0.0,0.0,0.0,0.0,0.0,0.0,0.0,0.0,0.0,0.0,0.0,0.0,0.0,0.0,0.0,0.0,0.0,0.0,0.0,0.0,0.0,0.0,0.0,0.0,-0.9891,-1.1333,-1.2066,0.0,-1.11,0.0,0.0,0.0,0.0,0.0,0.0,0.0,0.0,0.0,0.0,0.0,0.0,0.0,0.0,0.0,0.0,0.0,0.0,0.0,0.0,0.0,0.0,0.0,0.0,0.0,0.0,0.0,0.0,0.0,0.0,0.0,0.0,0.0,0.0,0.0,0.0,0.0,0.0,0.0,0.0,0.0,0.0,0.0,0.0,0.0,0.0,0.0,0.0,0.0,0.0,0.0,0.0,0.0,0.0,0.0,0.0,0.0,0.0,0.0,0.0,0.0,0.0,0.0,0.0,0.0,0.0,0.0,0.0,0.0,0.0,0.0,0.0,0.0,0.0,0.0,0.0,0.0,0.0,0.0,0.0,0.0,0.0,0.0,0.0,0.0,0.0,0.0,0.0,0.0,0.0,0.0,0.0,0.0,0.0,0.0,0.0,0.0,0.0,0.0,0.0,0.0,0.0,0.0,0.0,0.0,0.0,0.0,0.0,0.0,0.0,-1.0057,-1.1108,-1.1036,-1.0925,0.0,0.0,0.0,0.0,0.0,0.0,0.0,0.0,0.0,0.0,0.0,0.0,0.0,0.0,0.0,0.0,0.0,0.0,0.0,0.0,0.0,0.0,0.0,0.0,0.0,0.0,0.0,0.0,0.0,0.0,0.0,0.0,0.0,0.0,0.0,0.0,0.0,0.0,0.0,0.0,0.0,0.0,0.0,0.0,0.0,0.0,0.0,0.0,0.0,0.0,0.0,0.0,0.0,0.0,0.0,0.0,0.0,0.0,0.0,0.0,0.0,0.0,0.0,0.0,0.0,0.0,0.0,0.0,0.0,0.0,0.0,0.0,0.0,0.0,0.0,0.0,0.0,0.0,0.0,0.0,0.0,0.0,0.0,0.0,0.0,0.0,0.0,0.0,0.0,0.0,0.0,0.0,0.0,0.0,0.0,0.0,0.0,0.0,0.0,0.0,0.0,0.0,0.0,0.0,0.0,0.0,0.0,0.0,0.0,0.0,-0.9261,-1.0083,-1.08,-1.0373,-1.0148,-1.0254,0.0,0.0,0.0,0.0,0.0,0.0,0.0,0.0,0.0,0.0,0.0,0.0,0.0,0.0,0.0,0.0,0.0,0.0,0.0,0.0,0.0,0.0,0.0,0.0,0.0,0.0,0.0,0.0,0.0,0.0,0.0,0.0,0.0,0.0,0.0,0.0,0.0,0.0,0.0,0.0,0.0,0.0,0.0,0.0,0.0,0.0,0.0,0.0,0.0,0.0,0.0,0.0,0.0,0.0,0.0,0.0,0.0,0.0,0.0,0.0,0.0,0.0,0.0,0.0,0.0,0.0,0.0,0.0,0.0,0.0,0.0,0.0,0.0,0.0,0.0,0.0,0.0,0.0,0.0,0.0,0.0,0.0,0.0,0.0,0.0,0.0,0.0,0.0,0.0,0.0,0.0,0.0,0.0,0.0,0.0,0.0,0.0,0.0,0.0,0.0,0.0,0.0,0.0,0.0,0.0,0.0,0.0,0.0,-0.8662,-0.9158,-0.9957,-1.1038,-1.0577,-0.9939,0.0,0.0,0.0,0.0,0.0,0.0,0.0,0.0,0.0,0.0,0.0,0.0,0.0,0.0,0.0,0.0,0.0,0.0,0.0,0.0,0.0,0.0,0.0,0.0,0.0,0.0,0.0,0.0,0.0,0.0,0.0,0.0,0.0,0.0,0.0,0.0,0.0,0.0,0.0,0.0,0.0,0.0,0.0,0.0,0.0,0.0,0.0,0.0,0.0,0.0,0.0,0.0,0.0,0.0,0.0,0.0,0.0,0.0,0.0,0.0,0.0,0.0,0.0,0.0,0.0,0.0,0.0,0.0,0.0,0.0,0.0,0.0,0.0,0.0,0.0,0.0,0.0,0.0,0.0,0.0,0.0,0.0,0.0,0.0,0.0,0.0,0.0,0.0,0.0,0.0,0.0,0.0,0.0,0.0,0.0,0.0,0.0,0.0,0.0,0.0,0.0,0.0,0.0,0.0,0.0,0.0,0.0,0.0,0.0,-0.8428,-0.92,-0.9968,-1.0801,-1.0797,-1.0163,0.0,0.0,0.0,0.0,0.0,0.0,0.0,0.0,0.0,0.0,0.0,0.0,0.0,0.0,0.0,0.0,0.0,0.0,0.0,0.0,0.0,0.0,0.0,0.0,0.0,0.0,0.0,0.0,0.0,0.0,0.0,0.0,0.0,0.0,0.0,0.0,0.0,0.0,0.0,0.0,0.0,0.0,0.0,0.0,0.0,0.0,0.0,0.0,0.0,0.0,0.0,0.0,0.0,0.0,0.0,0.0,0.0,0.0,0.0,0.0,0.0,0.0,0.0,0.0,0.0,0.0,0.0,0.0,0.0,0.0,0.0,0.0,0.0,0.0,0.0,0.0,0.0,0.0,0.0,0.0,0.0,0.0,0.0,0.0,0.0,0.0,0.0,0.0,0.0,0.0,0.0,0.0,0.0,0.0,0.0,0.0,0.0,0.0,0.0,0.0,0.0,0.0,0.0,0.0,0.0,0.0,0.0,0.0,0.0,-0.8382,0.0,-0.9818,-1.0546,-1.0695,-1.0355,0.0,0.0,0.0,0.0,0.0,0.0,0.0,0.0,0.0,0.0,0.0,0.0,0.0,0.0,0.0,0.0,0.0,0.0,0.0,0.0,0.0,0.0,0.0,0.0,0.0,0.0,0.0,0.0,0.0,0.0,0.0,0.0,0.0,0.0,0.0,0.0,0.0,0.0,0.0,0.0,0.0,0.0,0.0,0.0,0.0,0.0,0.0,0.0,0.0,0.0,0.0,0.0,0.0,0.0,0.0,0.0,0.0,0.0,0.0,0.0,0.0,0.0,0.0,0.0,0.0,0.0,0.0,0.0,0.0,0.0,0.0,0.0,0.0,0.0,0.0,0.0,0.0,0.0,0.0,0.0,0.0,0.0,0.0,0.0,0.0,0.0,0.0,0.0,0.0,0.0,0.0,0.0,0.0,0.0,0.0,0.0,0.0,0.0,0.0,0.0,0.0,0.0,0.0,0.0,0.0,0.0,0.0,0.0,-0.7879,-0.8495,-0.8855,-0.9466,-1.0251,-1.0331,-1.0514,0.0,0.0,0.0,0.0,0.0,0.0,0.0,0.0,0.0,0.0,0.0,0.0,0.0,0.0,0.0,0.0,0.0,0.0,0.0,0.0,0.0,0.0,0.0,0.0,0.0,0.0,0.0,0.0,0.0,0.0,0.0,0.0,0.0,0.0,0.0,0.0,0.0,0.0,0.0,0.0,0.0,0.0,0.0,0.0,0.0,0.0,0.0,0.0,0.0,0.0,0.0,0.0,0.0,0.0,0.0,0.0,0.0,0.0,0.0,0.0,0.0,0.0,0.0,0.0,0.0,0.0,0.0,0.0,0.0,0.0,0.0,0.0,0.0,0.0,0.0,0.0,0.0,0.0,0.0,0.0,0.0,0.0,0.0,0.0,0.0,0.0,0.0,0.0,0.0,0.0,0.0,0.0,0.0,0.0,0.0,0.0,0.0,0.0,0.0,0.0,0.0,0.0,0.0,0.0,0.0,0.0,0.0,0.0,0.0,-0.8541,-0.9271,-0.9618,-0.9652,-1.0744,-1.1089,0.0,0.0,0.0,0.0,0.0,0.0,0.0,0.0,0.0,0.0,0.0,0.0,0.0,0.0,0.0,0.0,0.0,0.0,0.0,0.0,0.0,0.0,0.0,0.0,0.0,0.0,0.0,0.0,0.0,0.0,0.0,0.0,0.0,0.0,0.0,0.0,0.0,0.0,0.0,0.0,0.0,0.0,0.0,0.0,0.0,0.0,0.0,0.0,0.0,0.0,0.0,0.0,0.0,0.0,0.0,0.0,0.0,0.0,0.0,0.0,0.0,0.0,0.0,0.0,0.0,0.0,0.0,0.0,0.0,0.0,0.0,0.0,0.0,0.0,0.0,0.0,0.0,0.0,0.0,0.0,0.0,0.0,0.0,0.0,0.0,0.0,0.0,0.0,0.0,0.0,0.0,0.0,0.0,0.0,0.0,0.0,0.0,0.0,0.0,0.0,0.0,0.0,0.0,0.0,0.0,0.0,0.0,0.0,0.0,-0.8772,-0.9623,-0.9896,-0.9627,-1.1114,-1.1722,-1.1193,0.0,0.0,0.0,0.0,0.0,0.0,0.0,0.0,0.0,0.0,0.0,0.0,0.0,0.0,0.0,0.0,0.0,0.0,0.0,0.0,0.0,0.0,0.0,0.0,0.0,0.0,0.0,0.0,0.0,0.0,0.0,0.0,0.0,0.0,0.0,0.0,0.0,0.0,0.0,0.0,0.0,0.0,0.0,0.0,0.0,0.0,0.0,0.0,0.0,0.0,0.0,0.0,0.0,0.0,0.0,0.0,0.0,0.0,0.0,0.0,0.0,0.0,0.0,0.0,0.0,0.0,0.0,0.0,0.0,0.0,0.0,0.0,0.0,0.0,0.0,0.0,0.0,0.0,0.0,0.0,0.0,0.0,0.0,0.0,0.0,0.0,0.0,0.0,0.0,0.0,0.0,0.0,0.0,0.0,0.0,0.0,0.0,0.0,0.0,0.0,0.0,0.0,0.0,0.0,0.0,0.0,0.0,0.0,-0.9195,-0.9945,-1.0347,-1.0318,-1.1548,-1.2237,0.0,0.0,0.0,0.0,0.0,0.0,0.0,0.0,0.0,0.0,0.0,0.0,0.0,0.0,0.0,0.0,0.0,0.0,0.0,0.0,0.0,0.0,0.0,0.0,0.0,0.0,0.0,0.0,0.0,0.0,0.0,0.0,0.0,0.0,0.0,0.0,0.0,0.0,0.0,0.0,0.0,0.0,0.0,0.0,0.0,0.0,0.0,0.0,0.0,0.0,0.0,0.0,0.0,0.0,0.0,0.0,0.0,0.0,0.0,0.0,0.0,0.0,0.0,0.0,0.0,0.0,0.0,0.0,0.0,0.0,0.0,0.0,0.0,0.0,0.0,0.0,0.0,0.0,0.0,0.0,0.0,0.0,0.0,0.0,0.0,0.0,0.0,0.0,0.0,0.0,0.0,0.0,0.0,0.0,0.0,0.0,0.0,0.0,0.0,0.0,0.0,0.0,0.0,0.0,0.0,0.0,0.0,0.0,0.0,-0.9377,-1.0326,-1.1373,-1.2497,-1.2425,-1.2038,0.0,0.0,0.0,0.0,0.0,0.0,0.0,0.0,0.0,0.0,0.0,0.0,0.0,0.0,0.0,0.0,0.0,0.0,0.0,0.0,0.0,0.0,0.0,0.0,0.0,0.0,0.0,0.0,0.0,0.0,0.0,0.0,0.0,0.0,0.0,0.0,0.0,0.0,0.0,0.0,0.0,0.0,0.0,0.0,0.0,0.0,0.0,0.0,0.0,0.0,0.0,0.0,0.0,0.0,0.0,0.0,0.0,0.0,0.0,0.0,0.0,0.0,0.0,0.0,0.0,0.0,0.0,0.0,0.0,0.0,0.0,0.0,0.0,0.0,0.0,0.0,0.0,0.0,0.0,0.0,0.0,0.0,0.0,0.0,0.0,0.0,0.0,0.0,0.0,0.0,0.0,0.0,0.0,0.0,0.0,0.0,0.0,0.0,0.0,0.0,0.0,0.0,0.0,0.0,0.0,0.0,0.0,0.0,-0.5784,-0.8397,-0.9836,-1.1762,-1.4169,-1.3447,-1.2222,0.0,0.0,0.0,0.0,0.0,0.0,0.0,0.0,0.0,0.0,0.0,0.0,0.0,0.0,0.0,0.0,0.0,0.0,0.0,0.0,0.0,0.0,0.0,0.0,0.0,0.0,0.0,0.0,0.0,0.0,0.0,0.0,0.0,0.0,0.0,0.0,0.0,0.0,0.0,0.0,0.0,0.0,0.0,0.0,0.0,0.0,0.0,0.0,0.0,0.0,0.0,0.0,0.0,0.0,0.0,0.0,0.0,0.0,0.0,0.0,0.0,0.0,0.0,0.0,0.0,0.0,0.0,0.0,0.0,0.0,0.0,0.0,0.0,0.0,0.0,0.0,0.0,0.0,0.0,0.0,0.0,0.0,0.0,0.0,0.0,0.0,0.0,0.0,0.0,0.0,0.0,0.0,0.0,0.0,0.0,0.0,0.0,0.0,0.0,0.0,0.0,0.0,0.0,0.0,0.0,0.0,0.0,0.0,-0.4496,-0.6473,-0.8509,-1.1439,-1.5077,-1.4275,-1.256,0.0,0.0,0.0,0.0,0.0,0.0,0.0,0.0,0.0,0.0,0.0,0.0,0.0,0.0,0.0,0.0,0.0,0.0,0.0,0.0,0.0,0.0,0.0,0.0,0.0,0.0,0.0,0.0,0.0,0.0,0.0,0.0,0.0,0.0,0.0,0.0,0.0,0.0,0.0,0.0,0.0,0.0,0.0,0.0,0.0,0.0,0.0,0.0,0.0,0.0,0.0,0.0,0.0,0.0,0.0,0.0,0.0,0.0,0.0,0.0,0.0,0.0,0.0,0.0,0.0,0.0,0.0,0.0,0.0,0.0,0.0,0.0,0.0,0.0,0.0,0.0,0.0,0.0,0.0,0.0,0.0,0.0,0.0,0.0,0.0,0.0,0.0,0.0,0.0,0.0,0.0,0.0,0.0,0.0,0.0,0.0,0.0,0.0,0.0,0.0,0.0,0.0,0.0,0.0,0.0,0.0,0.0,0.0,-0.3739,-0.4752,-0.6229,-0.9508,-1.461,-1.3858,-1.2424,0.0,0.0,0.0,0.0,0.0,0.0,0.0,0.0,0.0,0.0,0.0,0.0,0.0,0.0,0.0,0.0,0.0,0.0,0.0,0.0,0.0,0.0,0.0,0.0,0.0,0.0,0.0,0.0,0.0,0.0,0.0,0.0,0.0,0.0,0.0,0.0,0.0,0.0,0.0,0.0,0.0,0.0,0.0,0.0,0.0,0.0,0.0,0.0,-1.3272,0.0,0.0,0.0,0.0,0.0,0.0,0.0,0.0,0.0,0.0,0.0,0.0,0.0,0.0,0.0,0.0,0.0,0.0,0.0,0.0,0.0,0.0,0.0,0.0,0.0,0.0,0.0,0.0,0.0,0.0,0.0,0.0,0.0,0.0,0.0,0.0,0.0,0.0,0.0,0.0,0.0,0.0,0.0,0.0,0.0,0.0,0.0,0.0,0.0,0.0,0.0,0.0,0.0,0.0,0.0,0.0,0.0,0.0,0.0,-0.285,-0.3281,-0.5093,-0.7783,-1.1194,-1.1899,-1.1816,0.0,0.0,0.0,0.0,0.0,0.0,0.0,0.0,0.0,0.0,0.0,0.0,0.0,0.0,0.0,0.0,0.0,0.0,0.0,0.0,0.0,0.0,0.0,0.0,0.0,0.0,0.0,0.0,0.0,0.0,0.0,0.0,0.0,0.0,0.0,0.0,0.0,0.0,0.0,0.0,0.0,0.0,0.0,0.0,0.0,0.0,0.0,0.0,0.0,0.0,0.0,0.0,0.0,0.0,0.0,0.0,0.0,0.0,0.0,0.0,0.0,0.0,0.0,0.0,0.0,0.0,0.0,0.0,0.0,0.0,0.0,0.0,0.0,0.0,0.0,0.0,0.0,0.0,0.0,0.0,0.0,0.0,0.0,0.0,0.0,0.0,0.0,0.0,0.0,0.0,0.0,0.0,0.0,0.0,0.0,0.0,0.0,0.0,0.0,0.0,0.0,0.0,0.0,0.0,0.0,0.0,0.0,-0.1529,-0.1928,-0.2279,-0.449,-0.63,-0.7662,-0.9633,-1.081,-1.1095,0.0,0.0,0.0,0.0,0.0,0.0,0.0,0.0,0.0,0.0,0.0,0.0,0.0,0.0,0.0,0.0,0.0,0.0,0.0,0.0,0.0,0.0,0.0,0.0,0.0,0.0,0.0,0.0,0.0,0.0,0.0,0.0,0.0,0.0,0.0,0.0,0.0,0.0,-1.3498,-1.4009,0.0,0.0,0.0,0.0,0.0,0.0,0.0,0.0,-1.4497,0.0,0.0,0.0,0.0,0.0,0.0,0.0,0.0,0.0,0.0,0.0,0.0,0.0,0.0,0.0,0.0,0.0,0.0,0.0,0.0,0.0,0.0,0.0,0.0,0.0,0.0,0.0,0.0,0.0,0.0,0.0,0.0,0.0,0.0,0.0,0.0,0.0,0.0,0.0,0.0,0.0,0.0,0.0,0.0,0.0,0.0,0.0,0.0,0.0,0.0,0.0,0.0,0.0,0.0,0.0,0.0,-0.0373,-0.0737,-0.1355,-0.2225,-0.3843,-0.5673,-0.7543,-0.851,-0.9377,-1.0131,0.0,0.0,0.0,0.0,0.0,0.0,0.0,0.0,0.0,0.0,0.0,0.0,0.0,0.0,0.0,0.0,0.0,0.0,0.0,0.0,0.0,0.0,0.0,0.0,0.0,0.0,0.0,0.0,0.0,0.0,0.0,0.0,0.0,0.0,0.0,0.0,0.0,0.0,0.0,-1.4864,-1.5328,0.0,0.0,0.0,0.0,0.0,0.0,0.0,0.0,-1.4909,0.0,0.0,0.0,0.0,0.0,0.0,0.0,0.0,0.0,0.0,0.0,0.0,0.0,0.0,0.0,0.0,0.0,0.0,0.0,0.0,0.0,0.0,0.0,0.0,0.0,0.0,0.0,0.0,0.0,0.0,0.0,0.0,0.0,0.0,0.0,0.0,0.0,0.0,0.0,0.0,0.0,0.0,0.0,0.0,0.0,0.0,0.0,0.0,0.0,0.0,0.0,0.0,0.0,0.0,0.0,0.0427,0.0049,-0.0782,-0.2168,-0.3501,-0.5063,-0.679,-0.7579,-0.8243,0.0,0.0,0.0,0.0,0.0,0.0,0.0,0.0,0.0,0.0,0.0,0.0,0.0,0.0,0.0,0.0,0.0,0.0,0.0,0.0,0.0,0.0,0.0,0.0,0.0,0.0,0.0,0.0,0.0,0.0,0.0,0.0,0.0,0.0,0.0,0.0,0.0,0.0,0.0,0.0,-1.6339,-1.6864,-1.7253,0.0,0.0,0.0,0.0,0.0,0.0,-1.6124,-1.5728,0.0,0.0,0.0,0.0,0.0,0.0,0.0,0.0,0.0,0.0,0.0,0.0,0.0,0.0,0.0,0.0,0.0,0.0,0.0,0.0,0.0,0.0,0.0,0.0,0.0,0.0,0.0,0.0,0.0,0.0,0.0,0.0,0.0,0.0,0.0,0.0,0.0,0.0,0.0,0.0,0.0,0.0,0.0,0.0,0.0,0.0,0.0,0.0,0.0,0.0,0.0,0.0,0.0,0.0,0.0,0.1423,0.0785,-0.0361,-0.1977,-0.357,-0.496,-0.6121,-0.6898,-0.7377,0.0,0.0,0.0,0.0,0.0,0.0,0.0,0.0,0.0,0.0,0.0,0.0,0.0,0.0,0.0,0.0,0.0,0.0,0.0,0.0,0.0,0.0,0.0,0.0,0.0,0.0,0.0,0.0,0.0,0.0,0.0,0.0,0.0,0.0,0.0,0.0,0.0,0.0,0.0,0.0,0.0,-1.828,-1.8802,-1.8891,0.0,0.0,0.0,0.0,-1.7666,-1.7086,0.0,0.0,0.0,0.0,0.0,0.0,0.0,0.0,0.0,0.0,0.0,0.0,0.0,0.0,0.0,0.0,0.0,0.0,0.0,0.0,0.0,0.0,0.0,0.0,0.0,0.0,0.0,0.0,0.0,0.0,0.0,0.0,0.0,0.0,0.0,0.0,0.0,0.0,0.0,0.0,0.0,0.0,0.0,0.0,0.0,0.0,0.0,0.0,0.0,0.0,0.0,0.0,0.0,0.0,0.0,0.0,0.2848,0.1433,-0.0,-0.1375,-0.4121,-0.5764,-0.601,-0.6626,-0.7035,0.0,0.0,0.0,0.0,0.0,0.0,0.0,0.0,0.0,0.0,0.0,0.0,0.0,0.0,0.0,0.0,0.0,0.0,0.0,0.0,0.0,0.0,0.0,0.0,0.0,0.0,0.0,0.0,0.0,0.0,0.0,0.0,0.0,0.0,0.0,0.0,0.0,0.0,0.0,0.0,0.0,-1.888,-1.851,-1.91,-1.9382,0.0,0.0,-1.8592,-1.8981,-1.8131,0.0,0.0,0.0,0.0,0.0,0.0,0.0,0.0,0.0,0.0,0.0,0.0,0.0,0.0,0.0,0.0,0.0,0.0,0.0,0.0,0.0,0.0,0.0,0.0,0.0,0.0,0.0,0.0,0.0,0.0,0.0,0.0,0.0,0.0,0.0,0.0,0.0,0.0,0.0,0.0,0.0,0.0,0.0,0.0,0.0,0.0,0.0,0.0,0.0,0.0,0.0,0.0,0.0,0.0,0.0,0.2522,0.3281,0.2825,0.1358,-0.1158,-0.3383,-0.4931,-0.5694,-0.5961,-0.6404,0.0,0.0,0.0,0.0,0.0,0.0,0.0,0.0,0.0,0.0,0.0,0.0,0.0,0.0,0.0,0.0,0.0,0.0,0.0,0.0,0.0,0.0,0.0,0.0,0.0,0.0,0.0,0.0,0.0,0.0,0.0,0.0,0.0,0.0,0.0,0.0,0.0,0.0,0.0,0.0,0.0,0.0,-1.9062,-1.9662,0.0,0.0,0.0,-1.9445,-1.9173,0.0,0.0,0.0,0.0,0.0,0.0,0.0,0.0,0.0,0.0,0.0,0.0,0.0,0.0,0.0,0.0,0.0,0.0,0.0,0.0,0.0,0.0,0.0,0.0,0.0,0.0,0.0,0.0,0.0,0.0,0.0,0.0,0.0,0.0,0.0,0.0,0.0,0.0,0.0,0.0,0.0,0.0,0.0,0.0,0.0,0.0,0.0,0.0,0.0,0.0,0.0,0.0,0.0,0.0,0.0,0.0,0.0,0.3327,0.3768,0.2526,-0.0416,-0.2524,-0.4038,-0.5015,-0.5346,0.0,0.0,0.0,0.0,0.0,0.0,0.0,0.0,0.0,0.0,0.0,0.0,0.0,0.0,0.0,0.0,0.0,0.0,0.0,0.0,0.0,0.0,0.0,0.0,0.0,0.0,0.0,-1.0674,0.0,0.0,0.0,0.0,0.0,0.0,0.0,0.0,0.0,0.0,0.0,0.0,0.0,0.0,-1.9924,-1.9507,-2.0101,-2.0423,0.0,0.0,-1.9897,-1.9174,-1.8817,-1.8106,0.0,0.0,0.0,0.0,0.0,0.0,0.0,0.0,0.0,0.0,0.0,0.0,0.0,0.0,0.0,0.0,0.0,0.0,0.0,0.0,0.0,0.0,0.0,0.0,0.0,0.0,0.0,0.0,0.0,0.0,0.0,0.0,0.0,0.0,0.0,0.0,0.0,0.0,0.0,0.0,0.0,0.0,0.0,0.0,0.0,0.0,0.0,0.0,0.0,0.0,0.0,0.0,0.0,0.0,0.0,0.3223,0.3711,0.3217,0.1552,-0.1834,-0.3632,-0.3744,-0.5006,-0.5673,0.0,0.0,0.0,0.0,0.0,0.0,0.0,0.0,0.0,0.0,0.0,0.0,0.0,0.0,0.0,0.0,0.0,0.0,0.0,0.0,0.0,0.0,0.0,0.0,0.0,0.0,0.0,0.0,0.0,0.0,0.0,0.0,0.0,0.0,0.0,0.0,0.0,0.0,0.0,0.0,0.0,-1.9507,-1.9562,-2.0112,-2.0385,0.0,0.0,-1.9702,-1.9259,-1.9027,-1.8167,-1.6091,0.0,0.0,0.0,0.0,0.0,0.0,0.0,0.0,0.0,0.0,0.0,0.0,0.0,0.0,0.0,0.0,0.0,0.0,0.0,0.0,0.0,0.0,0.0,0.0,0.0,0.0,0.0,0.0,0.0,0.0,0.0,0.0,0.0,0.0,0.0,0.0,0.0,0.0,0.0,0.0,0.0,0.0,0.0,0.0,0.0,0.0,0.0,0.0,0.0,0.0,0.0,0.0,0.0,0.3035,0.3481,0.3925,0.3375,0.1802,-0.0151,-0.1963,-0.3739,-0.4345,-0.493,0.0,0.0,0.0,0.0,0.0,0.0,0.0,0.0,0.0,0.0,0.0,0.0,0.0,0.0,0.0,0.0,0.0,0.0,0.0,0.0,0.0,0.0,0.0,0.0,0.0,0.0,0.0,0.0,-1.4638,-1.5744,-1.6307,0.0,0.0,0.0,0.0,0.0,0.0,0.0,0.0,0.0,0.0,-1.9222,-1.9278,-1.9978,0.0,0.0,-1.9708,-1.9645,-1.8822,-1.8617,-1.7987,-1.6452,-1.5325,0.0,0.0,0.0,0.0,0.0,0.0,0.0,0.0,0.0,0.0,0.0,0.0,0.0,0.0,0.0,0.0,0.0,0.0,0.0,0.0,0.0,0.0,0.0,0.0,0.0,0.0,0.0,0.0,0.0,0.0,0.0,0.0,0.0,0.0,0.0,0.0,0.0,0.0,0.0,0.0,0.0,0.0,0.0,0.0,0.0,0.0,0.0,0.0,0.0,0.0,0.0,0.0,0.3311,0.3705,0.4052,0.3688,0.2605,0.1148,-0.1025,-0.3925,-0.3995,-0.4337,0.0,0.0,0.0,0.0,0.0,0.0,0.0,0.0,0.0,0.0,0.0,0.0,0.0,0.0,0.0,0.0,0.0,0.0,0.0,0.0,0.0,0.0,0.0,0.0,0.0,0.0,0.0,0.0,-1.5721,-1.6698,-1.6638,0.0,0.0,0.0,0.0,0.0,0.0,0.0,0.0,0.0,0.0,-1.8952,-1.9192,-1.9576,-1.9615,-1.9049,-1.9204,-1.9123,-1.8254,-1.8043,-1.7642,-1.6689,0.0,0.0,0.0,0.0,0.0,0.0,0.0,0.0,0.0,0.0,0.0,0.0,0.0,0.0,0.0,0.0,0.0,0.0,0.0,0.0,0.0,0.0,0.0,0.0,0.0,0.0,0.0,0.0,0.0,0.0,0.5512,0.0,0.0,0.0,0.0,0.0,0.0,0.0,0.0,0.0,0.0,0.0,0.0,0.0,0.0,0.0,0.0,0.0,0.0,0.0,0.0,0.0,0.0,0.3639,0.3792,0.4046,0.426,0.4369,0.1803,-0.1096,-0.4268,-0.4137,-0.4127,-0.4462,0.0,0.0,0.0,0.0,0.0,0.0,0.0,0.0,0.0,0.0,0.0,0.0,0.0,0.0,0.0,0.0,0.0,0.0,0.0,0.0,0.0,0.0,0.0,0.0,0.0,0.0,-1.4225,-1.5699,-1.6397,0.0,0.0,0.0,0.0,0.0,0.0,0.0,0.0,0.0,0.0,-1.8257,-1.8602,-1.9375,-1.8727,-1.833,-1.8553,-1.8358,-1.8014,-1.7544,-1.7337,-1.7086,0.0,0.0,0.0,0.0,0.0,0.0,0.0,0.0,0.0,0.0,0.0,0.0,0.0,0.0,0.0,0.0,0.0,0.0,0.0,0.0,0.0,0.0,0.0,0.0,0.0,0.0,0.0,0.5989,0.6018,0.0,0.0,0.0,0.0,0.0,0.0,0.0,0.0,0.0,0.0,0.0,0.6054,0.5351,0.0,0.0,0.0,0.0,0.0,0.0,0.0,0.0,0.0,0.0,0.0,0.0,0.3788,0.4042,0.4151,0.4312,0.4435,0.2601,0.0161,-0.2876,-0.3839,-0.4385,-0.4477,0.0,0.0,0.0,0.0,0.0,0.0,0.0,0.0,0.0,0.0,0.0,0.0,0.0,0.0,0.0,0.0,0.0,0.0,0.0,0.0,0.0,0.0,0.0,0.0,0.0,-1.4128,0.0,0.0,0.0,0.0,0.0,0.0,0.0,0.0,0.0,0.0,0.0,-1.7595,-1.7733,-1.7848,-1.8235,-1.9109,-1.8985,-1.8659,0.0,0.0,0.0,0.0,0.0,0.0,0.0,0.0,0.0,0.0,0.0,0.0,0.0,0.0,-1.2061,-1.0918,-1.0753,-1.0703,-1.0582,0.0,0.0,0.0,0.0,0.0,0.0,0.0,0.0,0.0,0.0,0.0,0.0,0.0,0.0,0.6553,0.0,0.6565,0.0,0.0,0.0,0.0,0.0,0.0,0.0,0.0,0.6596,0.6416,0.6349,0.5639,0.5528,0.0,0.5971,0.5341,0.0,0.0,0.0,0.0,0.0,0.0,0.0,0.0,0.4084,0.435,0.4299,0.4388,0.4405,0.2977,0.0769,-0.2106,-0.3698,-0.4477,-0.4481,-0.4285,-0.4171,0.0,0.0,0.0,0.0,0.0,0.0,0.0,0.0,0.0,0.0,0.0,0.0,0.0,0.0,0.0,0.0,0.0,0.0,0.0,0.0,0.0,0.0,0.0,-1.4816,0.0,0.0,0.0,0.0,0.0,0.0,0.0,0.0,0.0,-1.6344,-1.6981,-1.7426,-1.7325,-1.7463,-1.7846,-1.8699,0.0,0.0,0.0,0.0,0.0,0.0,0.0,-1.623,-1.6303,-1.5652,-1.5083,-1.4871,-1.4887,-1.4815,-1.4557,0.0,0.0,-1.252,-1.2236,-1.2197,-1.1969,-1.1931,-1.1991,-1.1885,-1.1968,-1.2,0.0,0.0,0.0,0.0,0.0,0.0,0.0,0.0,0.7135,0.6982,0.0,0.6956,0.0,0.0,0.0,0.0,0.0,0.6643,0.0,0.0,0.7581,0.7198,0.6322,0.6034,0.5875,0.5964,0.7064,0.6991,0.5697,0.4533,0.0,0.0,0.0,0.0,0.0,0.0,0.4498,0.4602,0.4544,0.4473,0.4435,0.2963,0.0779,-0.2228,-0.3735,-0.446,-0.4512,-0.4324,-0.423,-0.4317,-0.4203,0.0,0.0,0.0,0.0,0.0,0.0,0.0,0.0,0.0,0.0,0.0,0.0,0.0,0.0,0.0,0.0,0.0,0.0,0.0,0.0,-1.4267,0.0,0.0,0.0,0.0,0.0,0.0,0.0,0.0,0.0,0.0,-1.6595,-1.6881,-1.7085,-1.7009,0.0,0.0,0.0,0.0,-1.7497,-1.8022,-1.7846,-1.7533,-1.7266,-1.6814,-1.6626,-1.7105,0.0,0.0,-1.4926,-1.529,-1.5448,-1.4988,-1.5195,-1.5059,-1.3828,-1.3613,-1.3435,-1.2966,-1.3204,-1.3377,-1.3358,-1.3672,-1.3752,0.6739,0.0,0.0,0.0,0.0,0.7042,0.7721,0.8054,0.7802,0.7612,0.7483,0.6805,0.0,0.0,0.0,0.0,0.0,0.0,0.7928,0.8508,0.8227,0.7981,0.7862,0.6702,0.5744,0.5158,0.5546,0.6459,0.7764,0.5579,0.4153,0.3601,0.0,0.0,0.0,0.0,0.4765,0.5176,0.4761,0.4473,0.4497,0.3019,0.0278,-0.3755,-0.4249,-0.4463,-0.4463,-0.4423,-0.4385,-0.4385,-0.4397,0.0,0.0,0.0,0.0,0.0,0.0,0.0,0.0,0.0,0.0,0.0,0.0,0.0,0.0,0.0,0.0,0.0,0.0,0.0,-1.348,-1.4799,-1.5479,0.0,0.0,0.0,0.0,0.0,0.0,0.0,0.0,0.0,-1.7319,-1.745,-1.729,0.0,0.0,-1.7657,-1.7899,-1.7823,-1.7735,-1.7677,-1.7259,0.0,-1.6283,-1.5985,-1.5836,-1.5886,-1.5756,-1.5736,-1.5831,-1.6176,-1.6318,-1.6172,-1.6269,-1.6123,-1.5508,-1.5332,-1.5264,-1.5223,-1.5445,-1.5706,-1.5723,-1.5565,-1.5383,0.6962,0.6379,0.6524,0.6818,0.7212,0.8047,0.8432,0.8527,0.8232,0.784,0.737,0.6847,0.616,0.5475,0.5187,0.0,0.0,0.0,0.8139,0.8868,0.8477,0.8277,0.8078,0.6801,0.5876,0.535,0.5339,0.6168,0.7731,0.5917,0.4741,0.4101,0.0,0.0,0.4766,0.461,0.4745,0.5182,0.4747,0.4477,0.4448,0.184,-0.1114,-0.4327,-0.4477,-0.4467,-0.447,-0.4473,-0.4463,-0.4429,-0.448,-0.448,0.0,0.0,0.0,0.0,0.0,0.0,0.0,0.0,0.0,0.0,0.0,-0.8224,-0.8555,0.0,0.0,0.0,-1.1416,-1.2606,-1.3885,-1.4809,0.0,0.0,0.0,0.0,0.0,0.0,0.0,-1.6933,-1.7256,-1.7613,-1.79,-1.7677,-1.7403,-1.7187,-1.7314,-1.7525,-1.7738,0.0,-1.7375,-1.7303,-1.6992,-1.6613,-1.6192,-1.5881,-1.5677,-1.5362,-1.5662,-1.59,-1.591,-1.637,-1.665,-1.6514,-1.6465,-1.6377,-1.6174,-1.6125,-1.5996,-1.585,-1.6297,-1.6658,-1.6661,-1.6631,-1.6582,0.6749,0.6715,0.6916,0.7578,0.8526,0.8796,0.8716,0.8379,0.8331,0.7675,0.6773,0.6861,0.6456,0.5644,0.549,0.0,0.6406,0.7216,0.801,0.8567,0.8463,0.8116,0.7563,0.6573,0.6142,0.6232,0.6059,0.5998,0.6111,0.5752,0.5209,0.4553,0.4469,0.4442,0.4372,0.4418,0.4602,0.4871,0.449,0.4399,0.4435,0.0225,-0.2815,-0.4422,-0.4511,-0.4383,-0.4157,-0.4222,-0.4345,-0.429,-0.4317,-0.4531,-0.489,0.0,0.0,0.0,0.0,0.0,0.0,0.0,0.0,0.0,0.0,0.0,0.0,0.0,0.0,0.0,-1.2542,0.0,-1.4348,-1.4586,0.0,0.0,0.0,-1.5648,-1.578,-1.6921,-1.7709,-1.769,0.0,0.0,-1.8264,-1.7569,-1.7338,-1.8065,-1.7508,-1.7196,-1.7524,-1.7002,-1.6667,-1.6869,-1.6888,-1.6786,-1.6419,-1.6146,-1.585,-1.5448,-1.5742,-1.582,-1.5557,-1.6025,-1.6387,-1.6084,-1.6066,-1.6066,-1.6066,-1.6047,-1.5949,-1.5498,-1.6113,-1.6665,-1.6699,-1.6973,-1.6996,0.6886,0.6994,0.6923,0.6914,0.7103,0.8676,0.8851,0.8048,0.7527,0.7131,0.6788,0.5934,0.5432,0.5275,0.5853,0.633,0.6805,0.754,0.8113,0.8434,0.8388,0.8331,0.8162,0.7158,0.6697,0.6655,0.5909,0.5564,0.5555,0.5341,0.5076,0.4833,0.4779,0.4869,0.507,0.486,0.505,0.5639,0.3716,0.3297,0.4363,0.1204,-0.1806,-0.4423,-0.4494,-0.3427,-0.1214,-0.2142,-0.2735,-0.2759,-0.2745,-0.3051,-0.3716,-0.4227,0.0,0.0,0.0,0.0,0.0,0.0,0.0,0.0,0.0,-0.7841,-0.8399,0.0,-1.006,0.0,-1.2869,-1.4091,-1.4254,-1.5018,0.0,0.0,-1.5521,-1.5646,-1.5769,-1.6446,-1.6781,-1.6456,-1.6895,-1.7162,-1.7178,-1.7014,-1.7069,-1.7645,-1.713,-1.6688,-1.6556,-1.6492,-1.6357,-1.6301,-1.6036,-1.5758,-1.57,-1.5642,-1.5526,-1.542,-1.5508,-1.5527,-1.543,-1.5576,-1.5674,-1.5586,-1.5566,-1.5566,-1.5576,-1.5566,-1.5547,-1.5488,-1.6113,-1.6703,-1.6684,-1.6588,-1.6383,0.6468,0.6475,0.6798,0.6708,0.6337,0.819,0.8414,0.7545,0.7133,0.6786,0.6356,0.5702,0.5426,0.5433,0.592,0.6252,0.6541,0.7237,0.7715,0.7897,0.7971,0.7934,0.7929,0.6908,0.6318,0.6242,0.5682,0.5425,0.5399,0.5203,0.5091,0.5103,0.4944,0.4896,0.5078,0.4912,0.4616,0.4247,0.2253,0.1635,0.2408,0.0862,-0.0795,-0.2417,-0.3811,-0.3096,-0.0115,-0.0803,-0.133,-0.1586,-0.1884,-0.239,-0.3237,-0.3842,-0.4095,0.0,0.0,0.0,0.0,0.0,0.0,0.0,0.0,0.0,0.0,0.0,-1.026,-1.1481,-1.3227,-1.4286,-1.4399,-1.4987,-1.5395,-1.5687,-1.5807,-1.6127,-1.6597,-1.7082,-1.7334,-1.7292,-1.7577,-1.7678,-1.7517,-1.7148,-1.7045,-1.7372,-1.6613,-1.6106,-1.6237,-1.611,-1.5864,-1.5816,-1.5584,-1.542,-1.542,-1.542,-1.542,-1.542,-1.542,-1.542,-1.542,-1.542,-1.542,-1.542,-1.542,-1.542,-1.542,-1.542,-1.542,-1.5478,-1.5801,-1.6146,-1.6408,-1.6249,-1.6127,0.5885,0.5758,0.6635,0.6572,0.6108,0.7368,0.7539,0.7005,0.6985,0.6531,0.58,0.5823,0.583,0.5833,0.585,0.5935,0.6047,0.6718,0.7017,0.7146,0.7248,0.7105,0.6801,0.5877,0.5315,0.5125,0.529,0.5424,0.541,0.5222,0.5215,0.5373,0.5013,0.4758,0.455,0.4742,0.3918,0.1917,0.062,-0.0,-0.0,-0.0,-0.0,-0.0,-0.2558,-0.2693,-0.017,-0.0057,-0.04,-0.1,-0.1538,-0.2284,-0.3333,-0.3387,-0.3619,0.0,-0.4046,0.0,0.0,0.0,0.0,0.0,0.0,0.0,0.0,-0.9214,-1.0297,-1.192,-1.3362,-1.4282,-1.455,-1.4757,-1.5139,-1.5748,-1.6115,-1.6726,-1.7552,-1.7916,-1.8243,-1.855,-1.8632,-1.8458,-1.8039,-1.7525,-1.7158,-1.7067,-1.6326,-1.5919,-1.6325,-1.5896,-1.5468,-1.542,-1.542,-1.542,-1.542,-1.542,-1.542,-1.542,-1.542,-1.542,-1.542,-1.542,-1.542,-1.542,-1.542,-1.542,-1.542,-1.542,-1.542,-1.542,-1.5459,-1.5576,-1.5919,-1.6008,-1.5976,0.5952,0.6125,0.6172,0.6225,0.6276,0.6388,0.6399,0.6467,0.6261,0.6061,0.5813,0.5932,0.5986,0.5996,0.6118,0.619,0.6217,0.635,0.6506,0.6454,0.6517,0.5564,0.3921,0.3686,0.3585,0.3593,0.4762,0.5432,0.5424,0.5335,0.5388,0.5373,0.5289,0.4537,0.3236,0.0,0.0,0.0,0.0128,-0.0,-0.0,-0.0,-0.0,-0.0,-0.0565,0.0,-0.0061,-0.0473,-0.0996,-0.1594,-0.1754,0.0,0.0,0.0,0.0,0.0,0.0,0.0,0.0,0.0,0.0,0.0,-0.6459,-0.7433,-0.8072,-0.9554,-1.0696,-1.1256,-1.2707,-1.3632,-1.381,-1.5061,-1.5881,-1.6048,-1.6375,-1.6703,-1.6888,-1.6954,-1.7066,-1.7105,-1.7123,-1.7126,-1.705,-1.6825,-1.6789,-1.6842,-1.6596,-1.6547,-1.6661,-1.5989,-1.5439,-1.542,-1.542,-1.542,-1.542,-1.542,-1.542,-1.542,-1.542,-1.542,-1.542,-1.542,-1.542,-1.543,-1.542,-1.543,-1.543,-1.542,-1.5459,-1.542,-1.542,-1.542,-1.5498,-1.5566,-1.5508,0.6088,0.0,0.6146,0.619,0.0,0.6176,0.619,0.6257,0.6179,0.6101,0.6034,0.6112,0.6149,0.6159,0.6234,0.6271,0.6278,0.6285,0.5724,0.4774,0.5824,0.5749,0.4631,0.2523,0.1597,0.1614,0.2327,0.2725,0.2833,0.4879,0.5666,0.5433,0.5378,0.4921,0.4108,0.4937,0.3625,-0.0,-0.0,-0.0,-0.0,-0.0,-0.0,-0.0,-0.0,0.0,0.0,0.0,0.0,0.0,0.0,0.0,0.0,-0.4036,0.0,-0.4786,-0.4775,-0.4845,-0.5058,-0.5132,-0.5456,-0.6116,-0.7566,-0.8632,-0.9106,-1.0412,-1.1413,-1.1858,-1.3243,-1.4225,-1.4432,-1.5624,-1.6475,-1.668,-1.6728,-1.6885,-1.7256,-1.7168,-1.7113,-1.7309,-1.7356,-1.7278,-1.7086,-1.7064,-1.7061,-1.7041,-1.6855,-1.6826,-1.6934,-1.6299,-1.5684,-1.5449,-1.542,-1.542,-1.542,-1.542,-1.542,-1.542,-1.542,-1.542,-1.542,-1.542,-1.5469,-1.5664,-1.5732,-1.5732,-1.5752,-1.5908,-1.5928,-1.5547,-1.5576,-1.5625,-1.5478,-1.542,-1.542,0.6263,0.6084,0.6237,0.6376,0.6302,0.6329,0.6339,0.6335,0.0,0.0,0.0,0.6332,0.6335,0.624,0.5918,0.5749,0.5736,0.6136,0.5341,0.3759,0.4742,0.4826,0.3929,0.054,-0.0696,-0.0,-0.0,-0.0,-0.0,0.3509,0.4933,0.4496,0.4466,0.4461,0.4465,0.4406,0.2976,-0.0,-0.0,-0.0,-0.0,-0.0,-0.0,-0.0,-0.0,-0.0,-0.0,-0.0,-0.0925,-0.2901,-0.3399,-0.3722,-0.3934,-0.4179,-0.4513,-0.4879,-0.5011,-0.524,-0.5596,-0.5576,-0.6017,-0.727,-0.8663,-0.9626,-1.0012,-1.1065,-1.1919,-1.24,-1.3688,-1.4655,-1.5027,-1.6002,-1.678,-1.7344,-1.7129,-1.7256,-1.7871,-1.7715,-1.7617,-1.7939,-1.7978,-1.7891,-1.7559,-1.75,-1.75,-1.7461,-1.7227,-1.7021,-1.7207,-1.6689,-1.6074,-1.5801,-1.5771,-1.5684,-1.5664,-1.5703,-1.5664,-1.5683,-1.5704,-1.5644,-1.5644,-1.5644,-1.5791,-1.6123,-1.6182,-1.6182,-1.6201,-1.6436,-1.6403,-1.5791,-1.5918,-1.6074,-1.5752,-1.5644,-1.5625,0.6438,0.624,0.6383,0.6441,0.6454,0.6583,0.6641,0.6627,0.6502,0.6451,0.6314,0.6443,0.6433,0.6241,0.4357,0.3504,0.3675,0.5436,0.6165,0.5689,0.2408,-0.104,-0.4494,-0.5137,-0.3516,-0.0,-0.0,-0.0,-0.0,0.0624,0.0846,-0.0,0.0732,-0.0,0.0744,0.0741,0.0472,-0.0,-0.0,-0.0,-0.0,-0.0,-0.0,-0.0,-0.0,-0.0,-0.0,-0.0,-0.0864,-0.2653,-0.3456,-0.4037,-0.4558,-0.4707,-0.5075,-0.558,-0.5674,-0.5708,-0.5769,-0.5749,-0.6529,-0.8192,-0.8594,-0.8772,-0.8885,-1.0467,-1.1472,-1.1628,-1.2542,-1.3372,-1.423,-1.5371,-1.6468,-1.7261,-1.7646,-1.7891,-1.8008,-1.7969,-1.7949,-1.8027,-1.8008,-1.8027,-1.7988,-1.7939,-1.793,-1.793,-1.7842,-1.7725,-1.7402,-1.6963,-1.665,-1.6562,-1.648,-1.648,-1.6455,-1.6533,-1.6454,-1.6491,-1.6457,-1.6403,-1.6389,-1.6403,-1.6441,-1.6621,-1.6641,-1.6641,-1.6578,-1.668,-1.667,-1.6465,-1.6494,-1.6543,-1.6387,-1.6305,-1.6211,0.6569,0.6508,0.6569,0.6597,0.66,0.6675,0.6702,0.6705,0.6639,0.6605,0.6302,0.5266,0.5266,0.6153,0.5309,0.3537,0.1465,0.2448,0.1467,-0.1058,-0.2967,-0.4205,-0.4907,-0.5955,-0.5415,-0.3356,-0.1036,-0.0554,-0.1486,-0.0548,-0.0,-0.0,-0.0,-0.0,-0.0,-0.0,-0.0,-0.0,-0.0,-0.0,-0.0,-0.1954,-0.2035,-0.0,-0.0,-0.0,-0.0,-0.2185,-0.3256,-0.2909,-0.4263,-0.5132,-0.5312,-0.5392,-0.552,-0.5789,-0.58,-0.5837,-0.5922,-0.6856,-0.7625,-0.8171,-0.952,-1.0224,-0.9846,-1.0746,-1.1557,-1.185,-1.2598,-1.3454,-1.4574,-1.5634,-1.6646,-1.7648,-1.791,-1.8008,-1.8037,-1.8232,-1.835,-1.835,-1.835,-1.8447,-1.8682,-1.8496,-1.8467,-1.8623,-1.8525,-1.8193,-1.7793,-1.7549,-1.7236,-1.6772,-1.6665,-1.6665,-1.6675,-1.6665,-1.6717,-1.6667,-1.671,-1.6674,-1.671,-1.6699,-1.6801,-1.7031,-1.709,-1.709,-1.708,-1.7285,-1.7129,-1.6465,-1.6592,-1.6572,-1.6201,-1.6016,-1.6025,0.6975,0.6702,0.6739,0.677,0.68,0.68,0.68,0.681,0.6853,0.65,0.5806,0.4516,0.4339,0.4843,0.4843,0.2533,-0.1179,-0.1599,-0.3283,-0.6167,-0.6888,-0.6102,-0.462,-0.6002,-0.6629,-0.6075,-0.2999,-0.2327,-0.3576,-0.2293,-0.0936,-0.0,-0.0,-0.0,-0.0,-0.0,-0.0,-0.0,-0.0,-0.048,-0.1501,-0.4185,-0.4168,-0.1482,-0.0,-0.0926,-0.1527,-0.4089,-0.5041,-0.3926,-0.5162,-0.5978,-0.585,-0.585,-0.5867,-0.5898,-0.5905,-0.5969,-0.6184,-0.7688,-0.8501,-0.8277,-1.0341,-1.1471,-1.1243,-1.1384,-1.1804,-1.2264,-1.2727,-1.361,-1.4931,-1.5773,-1.6751,-1.7909,-1.8144,-1.8232,-1.832,-1.8594,-1.8779,-1.8779,-1.8789,-1.8916,-1.9131,-1.8994,-1.8916,-1.9121,-1.8916,-1.8506,-1.8213,-1.8096,-1.7705,-1.7275,-1.7021,-1.7061,-1.7021,-1.7051,-1.7051,-1.7031,-1.7051,-1.7089,-1.7083,-1.7052,-1.7113,-1.7441,-1.7412,-1.7353,-1.7393,-1.748,-1.7295,-1.6641,-1.665,-1.6523,-1.6016,-1.5869,-1.582,0.7823,0.6812,0.6851,0.6983,0.7085,0.7092,0.7088,0.7095,0.7061,0.5802,0.4164,0.5811,0.4064,0.0956,0.0607,-0.1802,-0.5933,-0.6428,-0.5572,-0.4384,-0.6111,-0.6878,-0.6415,-0.6691,-0.6763,-0.6702,-0.5831,-0.5583,-0.6077,-0.5978,-0.392,-0.0,-0.0,-0.0,-0.0,-0.0,-0.0,-0.0,-0.0,-0.1866,-0.5483,-0.6076,-0.5758,-0.4945,-0.3551,-0.3772,-0.5352,-0.4225,-0.4145,-0.56,-0.5837,-0.5957,-0.5996,-0.6013,-0.6074,-0.6203,-0.622,-0.6281,-0.6489,-0.7446,-0.8461,-0.933,-1.0377,-1.1385,-1.2022,-1.2191,-1.2231,-1.2392,-1.2432,-1.3353,-1.495,-1.5409,-1.6422,-1.8315,-1.8584,-1.873,-1.9043,-1.9199,-1.9228,-1.9228,-1.9228,-1.9248,-1.9346,-1.9316,-1.9277,-1.9336,-1.8994,-1.8662,-1.8506,-1.8213,-1.7998,-1.7871,-1.7861,-1.7832,-1.7812,-1.7881,-1.7773,-1.7812,-1.7861,-1.7803,-1.7736,-1.7755,-1.791,-1.7744,-1.7646,-1.7451,-1.7344,-1.7158,-1.7051,-1.6973,-1.6816,-1.6631,-1.6529,-1.6422,-1.6318,0.8222,0.697,0.7027,0.7085,0.7136,0.7139,0.7139,0.7143,0.7088,0.5735,0.3218,-0.0181,-0.2708,-0.4084,-0.2741,-0.3252,-0.5068,-0.6483,-0.6567,-0.5762,-0.6708,-0.7051,-0.6983,-0.694,-0.6897,-0.6851,-0.6783,-0.6746,-0.6715,-0.675,-0.5189,-0.2448,-0.212,-0.1435,-0.0229,-0.1215,-0.2402,-0.3599,-0.2443,-0.3283,-0.5868,-0.6298,-0.6204,-0.5902,-0.5214,-0.5253,-0.6101,-0.5409,-0.5439,-0.6294,-0.6294,-0.6349,-0.6417,-0.6427,-0.6451,-0.6519,-0.6522,-0.6546,-0.6603,-0.8209,-0.9327,-0.9722,-1.1312,-1.2447,-1.2762,-1.2839,-1.3056,-1.3625,-1.3626,-1.4324,-1.6079,-1.6639,-1.7424,-1.8687,-1.9023,-1.9102,-1.9248,-1.9512,-1.9658,-1.9658,-1.9658,-1.9766,-1.9971,-2.0039,-1.9932,-1.9687,-1.9287,-1.8965,-1.8691,-1.8281,-1.8037,-1.8008,-1.8008,-1.8008,-1.8008,-1.8008,-1.8008,-1.8008,-1.8008,-1.8008,-1.794,-1.8008,-1.7998,-1.8008,-1.7812,-1.7705,-1.7773,-1.7617,-1.7471,-1.7178,-1.6387,-1.5947,-1.5957,-1.6162,-1.6006,0.843,0.7238,0.7139,0.7139,0.7139,0.7139,0.7139,0.7153,0.7128,0.5784,0.2974,-0.3875,-0.7537,-0.808,-0.656,-0.5435,-0.4959,-0.6863,-0.7596,-0.7224,-0.7101,-0.7241,-0.758,-0.7228,-0.726,-0.7339,-0.7114,-0.6953,-0.6776,-0.6827,-0.6051,-0.4744,-0.4573,-0.3656,-0.2244,-0.3029,-0.4252,-0.594,-0.4696,-0.4724,-0.6076,-0.6303,-0.6254,-0.6277,-0.6118,-0.6166,-0.6281,-0.6315,-0.638,-0.6572,-0.6599,-0.6586,-0.6688,-0.6702,-0.6702,-0.6788,-0.7156,-0.734,-0.7257,-0.9215,-1.0437,-1.06,-1.2197,-1.3206,-1.3286,-1.3437,-1.4116,-1.4996,-1.5339,-1.6146,-1.7096,-1.7687,-1.8341,-1.9277,-1.9463,-1.9492,-1.9658,-1.9932,-2.0098,-2.0088,-2.0088,-2.0195,-2.0478,-2.0527,-2.0391,-2.0117,-1.9727,-1.9375,-1.8984,-1.8584,-1.8232,-1.8311,-1.8193,-1.8008,-1.8008,-1.7716,-1.7716,-1.7501,-1.7432,-1.7157,-1.751,-1.7579,-1.7872,-1.7794,-1.7862,-1.7783,-1.7588,-1.7607,-1.7334,-1.6592,-1.5996,-1.5664,-1.5771,-1.5947,-1.6016,0.8341,0.7149,0.7139,0.7143,0.7143,0.7139,0.7143,0.7166,0.7141,0.5812,0.3132,-0.1971,-0.7026,-1.1361,-1.0856,-0.9612,-0.7668,-0.9013,-0.8993,-0.7684,-0.73,-0.7757,-0.8719,-0.7665,-0.7661,-0.8499,-0.7451,-0.6949,-0.6929,-0.6977,-0.7082,-0.6863,-0.6781,-0.68,-0.6133,-0.458,-0.4545,-0.6067,-0.6054,-0.6182,-0.6305,-0.6271,-0.6335,-0.6345,-0.6254,-0.6338,-0.6291,-0.64,-0.6471,-0.6481,-0.6617,-0.6698,-0.6709,-0.6712,-0.6722,-0.6812,-0.8187,-0.8865,-0.8848,-1.0512,-1.1763,-1.1905,-1.2662,-1.3233,-1.3373,-1.4137,-1.504,-1.6024,-1.7329,-1.8051,-1.8006,-1.8183,-1.863,-1.9684,-1.9883,-2.0068,-2.043,-2.042,-2.0527,-2.0508,-2.0478,-2.0498,-2.0566,-2.0576,-2.0557,-2.043,-2.0137,-1.9814,-1.9658,-1.9092,-1.8838,-1.8877,-1.8584,-1.8037,-1.7969,-1.7432,-1.6922,-1.6715,-1.6507,-1.5877,-1.6306,-1.6733,-1.7226,-1.7571,-1.7552,-1.748,-1.7285,-1.6914,-1.6426,-1.6064,-1.6201,-1.6045,-1.6035,-1.6082,-1.6179,0.8504,0.7278,0.7183,0.7193,0.7275,0.7183,0.7193,0.7292,0.7103,0.5773,0.301,-0.1723,-0.6926,-1.1911,-1.1803,-1.1017,-0.9935,-1.0658,-1.0391,-0.9456,-0.8767,-0.8649,-0.8736,-0.7767,-0.7853,-0.8556,-0.772,-0.716,-0.7075,-0.7037,-0.7129,-0.7085,-0.7082,-0.7059,-0.6773,-0.6037,-0.5891,-0.6445,-0.6498,-0.6505,-0.6539,-0.6549,-0.6546,-0.6536,-0.6444,-0.6444,-0.6539,-0.6593,-0.6661,-0.6756,-0.682,-0.6888,-0.697,-0.698,-0.6983,-0.7073,-0.8513,-0.9238,-0.9134,-1.091,-1.2187,-1.2271,-1.3144,-1.3754,-1.3933,-1.4717,-1.5821,-1.6875,-1.8066,-1.8893,-1.9534,-1.9631,-1.9841,-2.0216,-2.0332,-2.0371,-2.0518,-2.0576,-2.0576,-2.0576,-2.0576,-2.0576,-2.0654,-2.0576,-2.0576,-2.0527,-2.0185,-1.9971,-1.9834,-1.9404,-1.9131,-1.9209,-1.9053,-1.8828,-1.8828,-1.7488,-1.6567,-1.6349,-1.607,-1.5948,-1.6228,-1.6437,-1.6862,-1.7326,-1.7389,-1.7375,-1.7259,-1.7051,-1.6416,-1.6533,-1.6621,-1.6387,-1.6465,-1.6587,-1.6665,0.8188,0.7352,0.7259,0.7272,0.7254,0.7164,0.7171,0.7362,0.716,0.5315,0.1915,-0.2147,-0.6757,-1.0838,-1.139,-1.1292,-1.1283,-1.142,-1.08,-0.9605,-0.8864,-0.8653,-0.8765,-0.7836,-0.7919,-0.8584,-0.7778,-0.7261,-0.7214,-0.7163,-0.7166,-0.7214,-0.7166,-0.7048,-0.6881,-0.6848,-0.6776,-0.6668,-0.663,-0.6658,-0.6702,-0.6702,-0.6729,-0.6753,-0.6675,-0.6641,-0.6702,-0.6749,-0.6817,-0.6915,-0.697,-0.7041,-0.7126,-0.7139,-0.7316,-0.7753,-0.9069,-0.9941,-1.0183,-1.1821,-1.2851,-1.2936,-1.3555,-1.4088,-1.4166,-1.5387,-1.6519,-1.7415,-1.8709,-1.9844,-2.0411,-2.0557,-2.0576,-2.0576,-2.0576,-2.0576,-2.0576,-2.0576,-2.0576,-2.0673,-2.1171,-2.1093,-2.0771,-2.1093,-2.1083,-2.0673,-2.0293,-2.0137,-2.0068,-1.9775,-1.957,-1.9629,-1.9434,-1.9346,-1.9151,-1.8178,-1.6759,-1.6331,-1.5917,-1.5865,-1.5692,-1.5956,-1.6349,-1.6876,-1.7166,-1.7235,-1.7212,-1.7045,-1.71,-1.7187,-1.6924,-1.6602,-1.6855,-1.7142,-1.7181,0.707,0.6966,0.7357,0.7146,0.6862,0.6747,0.7045,0.7064,0.6716,0.3799,-0.0389,-0.3276,-0.709,-1.0105,-1.0685,-1.0646,-1.1169,-1.1286,-1.0163,-0.8155,-0.7596,-0.8063,-0.8844,-0.802,-0.8031,-0.8865,-0.7782,-0.7331,-0.736,-0.7258,-0.7255,-0.7326,-0.7244,-0.7173,-0.7136,-0.7115,-0.7058,-0.6943,-0.6902,-0.6851,-0.6729,-0.6739,-0.6803,-0.6912,-0.7001,-0.702,-0.6816,-0.6858,-0.6936,-0.6953,-0.7061,-0.7132,-0.7139,-0.7153,-0.7584,-0.8719,-1.0019,-1.1144,-1.2089,-1.3259,-1.4005,-1.3959,-1.4108,-1.4213,-1.458,-1.6041,-1.7261,-1.7747,-1.9195,-2.0566,-2.0566,-2.0576,-2.0576,-2.0576,-2.0576,-2.0576,-2.0576,-2.0576,-2.0664,-2.0888,-2.1751,-2.2066,-2.1416,-2.1666,-2.1913,-2.0977,-2.0605,-2.0527,-2.0459,-2.0146,-2.0137,-2.0234,-1.999,-1.9717,-1.936,-1.8798,-1.7483,-1.6357,-1.5821,-1.5478,-1.4913,-1.4904,-1.5321,-1.5904,-1.6524,-1.6671,-1.693,-1.6871,-1.7142,-1.7217,-1.6953,-1.6963,-1.7275,-1.7521,-1.7667,0.485,0.4745,0.478,0.489,0.4936,0.4782,0.4689,0.4552,0.2828,0.0196,-0.3155,-0.688,-1.0031,-1.1717,-1.1683,-1.096,-1.0378,-1.0301,-1.0107,-0.9578,-0.8952,-0.8725,-0.8922,-0.8689,-0.8746,-0.9254,-0.9804,-0.9109,-0.778,-0.7472,-0.7485,-0.7506,-0.7478,-0.74,-0.7302,-0.7295,-0.7224,-0.7092,-0.7075,-0.7044,-0.7007,-0.7,-0.7024,-0.7152,-0.7857,-0.8257,-0.8213,-0.7483,-0.7071,-0.7075,-0.7115,-0.7139,-0.716,-0.7148,-0.7685,-0.9016,-1.1564,-1.2797,-1.2808,-1.373,-1.4469,-1.4436,-1.4389,-1.4689,-1.5257,-1.6535,-1.7674,-1.8399,-1.9766,-2.0576,-2.0576,-2.0576,-2.0586,-2.0576,-2.0576,-2.0654,-2.0761,-2.0673,-2.1093,-2.1869,-2.1906,-2.1909,-2.2351,-2.2715,-2.203,-2.1273,-2.1025,-2.0957,-2.0644,-2.0537,-2.0381,-2.0478,-2.0215,-2.0146,-1.9937,-1.9487,-1.8406,-1.7304,-1.6446,-1.5468,-1.4727,-1.4483,-1.4816,-1.4991,-1.5678,-1.6142,-1.6395,-1.6693,-1.694,-1.7349,-1.7283,-1.7436,-1.7716,-1.7746,-1.7687,0.2374,0.2272,0.2245,0.1074,-0.0394,-0.0682,-0.0292,-0.0098,-0.2159,-0.4039,-0.6036,-0.9686,-1.1933,-1.2402,-1.1673,-1.0706,-0.9925,-0.9437,-0.9374,-0.9565,-0.9029,-0.8662,-0.8532,-0.8539,-0.8629,-0.8843,-0.9567,-0.9206,-0.7767,-0.7628,-0.7628,-0.7665,-0.7628,-0.7553,-0.7461,-0.7543,-0.7559,-0.7774,-0.7838,-0.7986,-0.8368,-0.8444,-0.8356,-0.854,-0.9297,-0.9689,-0.9693,-0.9042,-0.8694,-0.848,-0.8244,-0.8012,-0.7934,-0.7549,-0.7913,-0.9961,-1.2232,-1.39,-1.3717,-1.4454,-1.4794,-1.4723,-1.5108,-1.5476,-1.6049,-1.7113,-1.8519,-1.9173,-2.0169,-2.081,-2.082,-2.082,-2.0752,-2.0576,-2.0576,-2.0868,-2.1201,-2.1036,-2.1547,-2.247,-2.2701,-2.2656,-2.2556,-2.3135,-2.2337,-2.1745,-2.1475,-2.1426,-2.1133,-2.1084,-2.1035,-2.0967,-2.0859,-2.081,-2.0771,-2.0146,-1.9399,-1.8357,-1.7421,-1.6135,-1.513,-1.513,-1.5299,-1.4843,-1.5073,-1.543,-1.5711,-1.6131,-1.6446,-1.6936,-1.7204,-1.7005,-1.689,-1.7198,-1.7273,-0.0404,-0.0202,-0.0202,-0.2818,-0.6773,-0.7475,-0.6813,-0.5968,-0.7372,-0.8241,-0.9291,-1.175,-1.2786,-1.196,-1.1263,-1.0667,-0.9895,-0.8996,-0.8528,-0.8236,-0.7868,-0.7773,-0.8023,-0.8179,-0.8266,-0.8137,-0.8266,-0.8094,-0.8101,-0.8104,-0.7784,-0.809,-0.8189,-0.782,-0.8015,-0.7816,-0.8579,-0.9241,-0.9276,-0.962,-1.04,-1.0443,-1.0458,-1.0472,-1.0906,-1.118,-1.1107,-1.1325,-1.1382,-1.101,-1.0054,-0.9591,-0.9309,-0.8066,-0.8432,-1.1136,-1.3162,-1.4301,-1.4913,-1.5077,-1.5127,-1.5019,-1.5977,-1.6715,-1.6638,-1.8179,-1.957,-1.9907,-2.0757,-2.125,-2.1211,-2.1182,-2.1006,-2.0703,-2.0908,-2.1514,-2.2512,-2.1987,-2.2656,-2.3598,-2.403,-2.3825,-2.2793,-2.3537,-2.3079,-2.2353,-2.1914,-2.1855,-2.1738,-2.166,-2.1816,-2.168,-2.1396,-2.1328,-2.124,-2.0113,-1.9457,-1.8922,-1.783,-1.6466,-1.5133,-1.5011,-1.4934,-1.4554,-1.4524,-1.4821,-1.5161,-1.5673,-1.5914,-1.6096,-1.6119,-1.5886,-1.6219,-1.6772,-1.7172,-0.4744,-0.3016,-0.2916,-0.382,-0.5636,-0.9088,-1.0609,-1.0255,-1.1222,-1.2278,-1.346,-1.3624,-1.3619,-1.3301,-1.3,-1.2328,-1.1263,-1.0092,-0.9497,-0.9217,-0.8172,-0.8204,-0.8777,-0.9156,-0.9127,-0.8983,-0.9231,-0.9701,-0.9433,-0.9486,-0.9587,-0.9437,-1.0052,-1.0127,-0.966,-1.0215,-1.0796,-1.0973,-1.0803,-1.081,-1.0957,-1.0871,-1.0696,-1.103,-1.1899,-1.2292,-1.2457,-1.3233,-1.2909,-1.1475,-1.1301,-1.1062,-1.0852,-0.9088,-0.938,-1.227,-1.4241,-1.5299,-1.5351,-1.5471,-1.5404,-1.5217,-1.64,-1.7221,-1.7524,-1.9045,-2.0366,-2.1021,-2.1627,-2.1592,-2.1338,-2.126,-2.1172,-2.1173,-2.1756,-2.2512,-2.2981,-2.3705,-2.4757,-2.599,-2.5098,-2.464,-2.4623,-2.4054,-2.3278,-2.2536,-2.2324,-2.2266,-2.2139,-2.2031,-2.21,-2.1943,-2.1738,-2.1728,-2.1356,-2.027,-1.9525,-1.929,-1.8124,-1.6503,-1.505,-1.4071,-1.3852,-1.3498,-1.4272,-1.4657,-1.4958,-1.5368,-1.5431,-1.5327,-1.5397,-1.5389,-1.6234,-1.6839,-1.7055,-0.7074,-0.5737,-0.5636,-0.5634,-0.6134,-0.9776,-1.1594,-1.2056,-1.3002,-1.4364,-1.5351,-1.5089,-1.4657,-1.4651,-1.4166,-1.3488,-1.2619,-1.1361,-1.0485,-0.9784,-0.8521,-0.8204,-0.863,-0.8999,-0.9064,-0.8897,-0.9276,-0.9316,-0.932,-1.0048,-1.034,-1.01,-1.0783,-1.097,-1.0858,-1.1458,-1.2128,-1.2277,-1.2308,-1.2318,-1.2719,-1.2568,-1.2568,-1.2808,-1.3517,-1.3801,-1.3901,-1.4605,-1.4364,-1.3303,-1.2752,-1.2433,-1.2318,-1.0698,-1.0891,-1.3438,-1.4991,-1.5752,-1.5631,-1.5745,-1.5665,-1.5787,-1.7022,-1.8063,-1.8679,-2.0,-2.1606,-2.1971,-2.2148,-2.2012,-2.1816,-2.1621,-2.1523,-2.1686,-2.3054,-2.4089,-2.41,-2.4914,-2.612,-2.6806,-2.6363,-2.5153,-2.5808,-2.4567,-2.3654,-2.3004,-2.2773,-2.2656,-2.2519,-2.2412,-2.2353,-2.2295,-2.2178,-2.2148,-2.1511,-2.0365,-1.9146,-1.8886,-1.7858,-1.6249,-1.5311,-1.3973,-1.3669,-1.3662,-1.4086,-1.4452,-1.4626,-1.468,-1.4479,-1.4447,-1.4614,-1.5047,-1.57,-1.6444,-1.6713,-0.7985,-0.7985,-0.7985,-0.8075,-0.8361,-1.0057,-1.1413,-1.2339,-1.3601,-1.4765,-1.5635,-1.5832,-1.5629,-1.573,-1.4752,-1.4166,-1.3974,-1.2721,-1.1458,-1.0284,-0.9087,-0.8434,-0.8441,-0.8259,-0.8223,-0.8216,-0.8035,-0.8131,-0.873,-0.997,-1.0668,-1.0904,-1.0881,-1.1263,-1.2042,-1.2431,-1.2794,-1.359,-1.3677,-1.3921,-1.445,-1.4493,-1.4365,-1.4643,-1.4806,-1.495,-1.51,-1.5391,-1.5338,-1.5331,-1.4248,-1.3926,-1.3909,-1.28,-1.2991,-1.3999,-1.5184,-1.5805,-1.5818,-1.5805,-1.5792,-1.6067,-1.8018,-1.9249,-1.9339,-2.0889,-2.2398,-2.2578,-2.2568,-2.251,-2.2363,-2.2212,-2.2148,-2.2479,-2.4303,-2.5846,-2.5971,-2.6052,-2.6746,-2.7909,-2.7278,-2.6218,-2.5419,-2.483,-2.4361,-2.3095,-2.2998,-2.293,-2.2861,-2.2822,-2.2842,-2.2891,-2.2754,-2.2578,-2.1617,-2.054,-1.9247,-1.8284,-1.7131,-1.5943,-1.5687,-1.4795,-1.4186,-1.4108,-1.4289,-1.42,-1.3851,-1.3796,-1.375,-1.3769,-1.4122,-1.4359,-1.4754,-1.5626,-1.6112,-0.7965,-0.7952,-0.7949,-0.8638,-0.9715,-1.1086,-1.2344,-1.3494,-1.4758,-1.5439,-1.573,-1.5825,-1.5825,-1.5737,-1.5439,-1.5439,-1.514,-1.398,-1.2813,-1.1463,-1.0194,-0.9592,-0.9257,-0.8616,-0.8035,-0.8038,-0.8038,-0.8018,-0.8594,-1.0708,-1.2531,-1.2494,-1.3216,-1.4172,-1.3584,-1.4268,-1.5032,-1.5214,-1.5045,-1.5015,-1.5054,-1.493,-1.4923,-1.5257,-1.5378,-1.5304,-1.5177,-1.515,-1.5117,-1.5086,-1.5179,-1.5158,-1.5121,-1.4924,-1.4918,-1.5127,-1.5534,-1.5825,-1.5825,-1.5818,-1.5732,-1.5858,-1.7903,-1.934,-1.9301,-2.1471,-2.2785,-2.3008,-2.3008,-2.2842,-2.2683,-2.3254,-2.3193,-2.3347,-2.5398,-2.7151,-2.6874,-2.7862,-2.8831,-2.8971,-2.8445,-2.7336,-2.6256,-2.5337,-2.4488,-2.3484,-2.3144,-2.3144,-2.3144,-2.3144,-2.3144,-2.3144,-2.3047,-2.2755,-2.2313,-2.1163,-1.9799,-1.8643,-1.7397,-1.6289,-1.6034,-1.5666,-1.5108,-1.4649,-1.4382,-1.4148,-1.3868,-1.3854,-1.4005,-1.3884,-1.3743,-1.4296,-1.4859,-1.5313,-1.5701,-0.7949,-0.8038,-0.8038,-0.8825,-1.0096,-1.1365,-1.2619,-1.3968,-1.5242,-1.5825,-1.5825,-1.5825,-1.5825,-1.5825,-1.5825,-1.5825,-1.5534,-1.4459,-1.3584,-1.2619,-1.1453,-1.0587,-1.0002,-0.9312,-0.8726,-0.8137,-0.8038,-0.8007,-0.8773,-1.0574,-1.2288,-1.3232,-1.4376,-1.4663,-1.4848,-1.5439,-1.5635,-1.5704,-1.5691,-1.5598,-1.5518,-1.5331,-1.5224,-1.5531,-1.5598,-1.5518,-1.5517,-1.5398,-1.5384,-1.5444,-1.5658,-1.5825,-1.5825,-1.5825,-1.5825,-1.5825,-1.5825,-1.5825,-1.5825,-1.5818,-1.5772,-1.5605,-1.8026,-1.8993,-1.9903,-2.1673,-2.2931,-2.3144,-2.3115,-2.3027,-2.2918,-2.3788,-2.3947,-2.4304,-2.627,-2.7671,-2.7695,-2.8779,-2.9779,-2.9702,-2.9263,-2.8339,-2.7371,-2.6174,-2.5158,-2.4221,-2.3135,-2.3144,-2.3144,-2.3144,-2.3144,-2.3144,-2.3144,-2.2999,-2.2785,-2.1776,-2.0412,-1.9452,-1.8595,-1.7599,-1.6989,-1.6577,-1.6028,-1.5425,-1.4716,-1.4563,-1.4335,-1.4342,-1.4229,-1.4112,-1.4137,-1.4646,-1.5065,-1.5476,-1.5849,-0.8137,-0.8336,-0.8333,-0.9213,-1.0676,-1.1848,-1.3011,-1.4268,-1.5337,-1.5865,-1.5879,-1.5865,-1.5858,-1.5892,-1.5845,-1.5832,-1.5534,-1.4949,-1.4268,-1.3974,-1.2813,-1.1653,-1.0681,-0.9998,-0.9118,-0.8137,-0.8333,-0.8499,-0.9186,-1.0275,-1.2549,-1.3482,-1.4058,-1.4854,-1.5635,-1.5825,-1.5825,-1.5818,-1.5798,-1.5785,-1.5765,-1.5691,-1.5651,-1.5564,-1.5772,-1.5732,-1.5772,-1.5705,-1.5765,-1.5772,-1.5805,-1.5825,-1.5825,-1.5825,-1.5825,-1.5825,-1.5825,-1.5825,-1.5825,-1.5825,-1.5818,-1.592,-1.8118,-1.9314,-2.0025,-2.156,-2.2862,-2.3144,-2.3135,-2.3135,-2.3212,-2.4074,-2.466,-2.5104,-2.6755,-2.7924,-2.8335,-2.9118,-2.9702,-2.9779,-2.9534,-2.8986,-2.7983,-2.6883,-2.5964,-2.4967,-2.3887,-2.3135,-2.3135,-2.3144,-2.3144,-2.3144,-2.3144,-2.3144,-2.2931,-2.2736,-2.1291,-2.0373,-1.9653,-1.8951,-1.8257,-1.7858,-1.7175,-1.5659,-1.4983,-1.4925,-1.4804,-1.4623,-1.4469,-1.4334,-1.4719,-1.5423,-1.5666,-1.5718,-1.6332,-0.8627,-0.9706,-0.9706,-1.1063,-1.3102,-1.3488,-1.4172,-1.5337,-1.5648,-1.5972,-1.6146,-1.5952,-1.6012,-1.6099,-1.5925,-1.5845,-1.581,-1.5389,-1.5356,-1.5166,-1.4088,-1.2813,-1.1653,-1.0774,-0.9608,-0.8627,-0.9217,-1.0306,-1.1409,-1.2657,-1.3721,-1.5025,-1.528,-1.5635,-1.573,-1.5825,-1.5825,-1.5825,-1.5825,-1.5825,-1.5792,-1.5658,-1.5438,-1.5345,-1.5705,-1.5906,-1.5805,-1.5806,-1.5725,-1.5518,-1.5705,-1.5805,-1.5825,-1.5825,-1.5825,-1.5825,-1.5825,-1.5825,-1.5825,-1.5825,-1.5825,-1.6379,-1.8118,-1.9405,-2.0042,-2.1587,-2.2872,-2.3144,-2.3144,-2.3135,-2.3135,-2.4125,-2.4713,-2.5368,-2.6603,-2.8096,-2.8414,-2.9015,-2.9779,-2.9779,-2.9702,-2.9534,-2.8542,-2.7614,-2.6614,-2.5546,-2.4382,-2.3724,-2.3464,-2.3299,-2.3144,-2.3144,-2.3144,-2.3144,-2.3047,-2.295,-2.2277,-2.1523,-2.0801,-2.0352,-1.9645,-1.9298,-1.8391,-1.6948,-1.5994,-1.5798,-1.5493,-1.5356,-1.5571,-1.5994,-1.6204,-1.6408,-1.6822,-1.7343,-1.8227,-0.9801,-1.0974,-1.0974,-1.2134,-1.3686,-1.3878,-1.4651,-1.5757,-1.5992,-1.6139,-1.6246,-1.6279,-1.6359,-1.6433,-1.6366,-1.6279,-1.6219,-1.5925,-1.5932,-1.5794,-1.5223,-1.4172,-1.3017,-1.2139,-1.1258,-1.0774,-1.1361,-1.2602,-1.3791,-1.375,-1.47,-1.5484,-1.5852,-1.5832,-1.5825,-1.5825,-1.5825,-1.5825,-1.5825,-1.5825,-1.5825,-1.5665,-1.5578,-1.5644,-1.622,-1.6441,-1.5971,-1.6535,-1.6324,-1.5866,-1.5758,-1.5812,-1.5825,-1.5825,-1.5825,-1.5825,-1.5825,-1.5825,-1.5825,-1.5825,-1.5825,-1.6103,-1.8118,-1.9314,-2.0042,-2.1489,-2.296,-2.3144,-2.3144,-2.3144,-2.3135,-2.4135,-2.4967,-2.5797,-2.7105,-2.8176,-2.8858,-2.9456,-2.9546,-2.9624,-2.9624,-2.9456,-2.9209,-2.8279,-2.7279,-2.6119,-2.4882,-2.4296,-2.3877,-2.3474,-2.3144,-2.3223,-2.3242,-2.3281,-2.331,-2.3261,-2.3095,-2.2489,-2.1989,-2.1445,-2.1025,-2.0576,-1.9629,-1.8391,-1.7637,-1.7341,-1.7289,-1.747,-1.7634,-1.762,-1.7604,-1.7831,-1.8428,-1.911,-1.9767,-1.1194,-1.2402,-1.2402,-1.3208,-1.4328,-1.4425,-1.503,-1.5956,-1.6259,-1.6406,-1.6473,-1.6607,-1.6714,-1.674,-1.6667,-1.6607,-1.6647,-1.6139,-1.6086,-1.6159,-1.5956,-1.5147,-1.4256,-1.3858,-1.3099,-1.1953,-1.3013,-1.4503,-1.4727,-1.4635,-1.4962,-1.5547,-1.5832,-1.5825,-1.5825,-1.5825,-1.5825,-1.5825,-1.5825,-1.5825,-1.5825,-1.6103,-1.6243,-1.6392,-1.7431,-1.771,-1.7357,-1.7695,-1.7397,-1.6633,-1.6285,-1.6109,-1.5825,-1.5825,-1.5825,-1.5825,-1.5825,-1.5825,-1.5825,-1.5825,-1.592,-1.648,-1.8311,-1.9314,-2.0314,-2.1765,-2.3144,-2.3144,-2.3144,-2.3144,-2.3222,-2.3887,-2.4882,-2.588,-2.6953,-2.8016,-2.853,-2.8882,-2.8882,-2.904,-2.9378,-2.9378,-2.9209,-2.8688,-2.7683,-2.686,-2.5703,-2.4713,-2.4211,-2.3474,-2.3174,-2.331,-2.3389,-2.3447,-2.3525,-2.3662,-2.3475,-2.3171,-2.2926,-2.2532,-2.2134,-2.1667,-2.0712,-2.0048,-2.0236,-2.0009,-1.9864,-1.9318,-1.9082,-1.8869,-1.8924,-1.9316,-2.0099,-2.0218,-2.0426,-1.2644,-1.401,-1.401,-1.4949,-1.6149,-1.6262,-1.6381,-1.658,-1.6627,-1.6807,-1.6954,-1.684,-1.6894,-1.6954,-1.658,-1.6533,-1.6567,-1.6413,-1.6279,-1.6366,-1.6273,-1.5615,-1.4514,-1.4213,-1.3819,-1.3133,-1.3923,-1.4084,-1.4697,-1.5204,-1.554,-1.5825,-1.5825,-1.5825,-1.5825,-1.5825,-1.5825,-1.5825,-1.5825,-1.5825,-1.6109,-1.685,-1.7505,-1.8149,-1.878,-1.9422,-1.943,-1.9338,-1.868,-1.7498,-1.7412,-1.685,-1.6015,-1.5825,-1.5825,-1.5825,-1.5825,-1.5825,-1.5825,-1.5825,-1.6109,-1.7037,-1.8596,-1.9852,-2.1123,-2.2129,-2.3144,-2.3144,-2.3144,-2.3144,-2.3144,-2.3222,-2.3973,-2.4882,-2.6036,-2.6625,-2.7221,-2.8039,-2.8051,-2.7959,-2.8119,-2.8791,-2.9131,-2.8609,-2.8004,-2.7267,-2.6438,-2.5546,-2.4667,-2.4012,-2.332,-2.3477,-2.3701,-2.3779,-2.3828,-2.3945,-2.3857,-2.3711,-2.3594,-2.3427,-2.2938,-2.252,-2.2677,-2.2208,-2.2315,-2.171,-2.0687,-2.0191,-2.0133,-2.0253,-2.0279,-2.103,-2.1907,-2.175,-2.131,-1.4624,-1.5458,-1.5464,-1.5927,-1.6687,-1.6707,-1.6707,-1.674,-1.6887,-1.7027,-1.7154,-1.7215,-1.7281,-1.7268,-1.6941,-1.6947,-1.7054,-1.6727,-1.6633,-1.6667,-1.6593,-1.6209,-1.5806,-1.57,-1.5195,-1.4989,-1.5264,-1.5541,-1.5531,-1.5517,-1.5825,-1.5825,-1.5825,-1.5825,-1.5825,-1.5825,-1.5825,-1.5825,-1.5825,-1.6197,-1.685,-1.7498,-1.8319,-1.9571,-2.0206,-2.0602,-2.0602,-2.0718,-1.9505,-1.8234,-1.7684,-1.7131,-1.6109,-1.5825,-1.5825,-1.5825,-1.5825,-1.5825,-1.5825,-1.5832,-1.6204,-1.6943,-1.8403,-2.0305,-2.1854,-2.2687,-2.3144,-2.3144,-2.3144,-2.3144,-2.3144,-2.3144,-2.38,-2.4553,-2.5294,-2.5797,-2.6224,-2.6719,-2.7128,-2.6964,-2.6883,-2.7545,-2.8303,-2.8542,-2.8267,-2.8028,-2.7103,-2.6118,-2.539,-2.4801,-2.4227,-2.3701,-2.3955,-2.418,-2.4219,-2.4277,-2.4251,-2.4094,-2.3779,-2.3643,-2.3536,-2.3388,-2.3164,-2.3144,-2.2775,-2.2045,-2.1183,-2.1162,-2.13,-2.1497,-2.1682,-2.1997,-2.2332,-2.2679,-2.2264,-1.6005,-1.6273,-1.6353,-1.6547,-1.682,-1.6894,-1.6934,-1.6967,-1.7161,-1.7255,-1.7315,-1.7468,-1.7569,-1.7515,-1.7288,-1.7235,-1.7508,-1.7041,-1.6927,-1.6927,-1.6901,-1.6774,-1.6526,-1.6627,-1.6713,-1.6814,-1.6504,-1.6388,-1.6175,-1.6072,-1.5932,-1.5832,-1.5825,-1.5825,-1.5825,-1.5825,-1.5825,-1.5832,-1.6204,-1.6857,-1.7591,-1.8411,-1.9364,-2.0425,-2.1248,-2.164,-2.1416,-2.1096,-2.0042,-1.8838,-1.7927,-1.7326,-1.6278,-1.6139,-1.6132,-1.6132,-1.6139,-1.6072,-1.5985,-1.5905,-1.594,-1.6936,-1.8388,-2.0755,-2.2041,-2.2775,-2.3144,-2.3144,-2.3144,-2.3144,-2.3144,-2.3144,-2.3474,-2.4049,-2.4628,-2.5136,-2.5579,-2.5895,-2.5863,-2.5389,-2.5389,-2.5964,-2.6883,-2.8039,-2.8371,-2.8542,-2.7812,-2.6657,-2.5667,-2.4796,-2.4291,-2.3461,-2.3606,-2.3881,-2.4042,-2.4173,-2.4282,-2.4428,-2.4111,-2.3918,-2.3742,-2.3477,-2.3154,-2.3144,-2.3144,-2.2804,-2.2077,-2.2284,-2.248,-2.209,-2.1815,-2.1993,-2.2308,-2.2793,-2.2988,-1.6005,-1.6299,-1.6553,-1.6834,-1.7121,-1.7408,-1.7508,-1.7448,-1.7508,-1.7528,-1.7515,-1.7569,-1.7589,-1.7522,-1.7361,-1.7341,-1.7569,-1.7261,-1.7068,-1.6967,-1.6954,-1.6967,-1.6954,-1.7021,-1.7121,-1.7114,-1.7108,-1.6807,-1.6413,-1.6299,-1.6079,-1.5865,-1.5832,-1.5825,-1.5825,-1.5825,-1.5825,-1.6015,-1.6669,-1.7412,-1.8411,-1.948,-2.081,-2.1042,-2.2082,-2.295,-2.2853,-2.1845,-2.0642,-1.9333,-1.843,-1.7548,-1.6721,-1.6486,-1.6493,-1.6493,-1.6493,-1.6406,-1.6259,-1.6121,-1.6508,-1.7863,-1.9397,-2.1033,-2.2031,-2.2677,-2.3047,-2.3144,-2.3144,-2.3144,-2.3144,-2.3135,-2.3319,-2.369,-2.4165,-2.44,-2.4747,-2.4898,-2.4685,-2.3947,-2.4161,-2.5016,-2.5264,-2.6395,-2.7348,-2.7499,-2.6735,-2.5561,-2.4513,-2.3654,-2.342,-2.2994,-2.3012,-2.3178,-2.3592,-2.3794,-2.4029,-2.4325,-2.4365,-2.4098,-2.3918,-2.3564,-2.3291,-2.3144,-2.3135,-2.3096,-2.3008,-2.2715,-2.2412,-2.208,-2.1953,-2.209,-2.2324,-2.2715,-2.2803,-1.5892,-1.6039,-1.6506,-1.6874,-1.7271,-1.7462,-1.7589,-1.7589,-1.7589,-1.7589,-1.7589,-1.7589,-1.7589,-1.7542,-1.7502,-1.7468,-1.7562,-1.7482,-1.7315,-1.7301,-1.7335,-1.7335,-1.7315,-1.7301,-1.7415,-1.7408,-1.7375,-1.7108,-1.6607,-1.6434,-1.6102,-1.5876,-1.5852,-1.5825,-1.5825,-1.5825,-1.5825,-1.6109,-1.7037,-1.7963,-1.9131,-2.0296,-2.1551,-2.2277,-2.2551,-2.2463,-2.1701,-2.1453,-2.0337,-1.9091,-1.8251,-1.7428,-1.68,-1.664,-1.6653,-1.676,-1.6767,-1.668,-1.6533,-1.6363,-1.6968,-1.8503,-1.9761,-2.0773,-2.1811,-2.2872,-2.3047,-2.3144,-2.3144,-2.3144,-2.3154,-2.3164,-2.3213,-2.3506,-2.3742,-2.391,-2.4138,-2.4482,-2.4503,-2.4039,-2.4098,-2.4536,-2.4624,-2.4686,-2.5605,-2.6229,-2.5411,-2.4525,-2.3467,-2.269,-2.2513,-2.2282,-2.2175,-2.2144,-2.2509,-2.3067,-2.3772,-2.416,-2.4525,-2.4351,-2.4075,-2.3818,-2.3564,-2.3359,-2.3105,-2.3037,-2.2891,-2.2656,-2.2363,-2.2031,-2.1973,-2.206,-2.2344,-2.2695,-2.2705,-1.5825,-1.5892,-1.6373,-1.6747,-1.7048,-1.7422,-1.7589,-1.7589,-1.7589,-1.7589,-1.7589,-1.7589,-1.7589,-1.7589,-1.7582,-1.7575,-1.7582,-1.7562,-1.7508,-1.7475,-1.7475,-1.7522,-1.7508,-1.7522,-1.7542,-1.7589,-1.7535,-1.7261,-1.67,-1.6572,-1.6301,-1.5943,-1.5905,-1.5932,-1.5825,-1.5825,-1.5825,-1.6109,-1.7037,-1.7956,-1.9039,-2.0034,-2.1635,-2.2368,-2.234,-2.065,-1.9602,-1.8902,-1.8396,-1.7248,-1.6484,-1.6374,-1.6296,-1.6343,-1.6547,-1.6757,-1.6961,-1.6934,-1.6787,-1.6758,-1.7071,-1.8073,-1.9358,-2.0529,-2.1752,-2.2685,-2.3144,-2.3144,-2.3144,-2.3096,-2.3183,-2.3398,-2.3594,-2.3938,-2.4045,-2.4124,-2.4222,-2.4443,-2.4401,-2.4349,-2.4438,-2.4307,-2.3362,-2.3107,-2.299,-2.3624,-2.3214,-2.2686,-2.2366,-2.179,-2.1687,-2.1379,-2.1186,-2.1202,-2.1312,-2.2013,-2.2863,-2.3689,-2.4051,-2.4278,-2.4193,-2.3906,-2.3633,-2.3301,-2.3086,-2.2969,-2.29,-2.2832,-2.2451,-2.1992,-2.2051,-2.2178,-2.2588,-2.291,-2.2803,-1.5825,-1.5865,-1.6263,-1.6657,-1.7061,-1.7439,-1.7674,-1.7786,-1.7687,-1.7589,-1.7589,-1.7589,-1.7589,-1.7589,-1.7589,-1.7589,-1.7589,-1.7575,-1.7488,-1.7375,-1.7488,-1.7415,-1.7395,-1.7448,-1.7589,-1.7589,-1.7542,-1.7281,-1.6754,-1.6832,-1.6474,-1.6206,-1.6146,-1.6106,-1.5858,-1.5825,-1.5825,-1.6015,-1.7037,-1.7692,-1.8172,-1.9163,-2.0867,-2.1552,-2.075,-1.8803,-1.6629,-1.6448,-1.6012,-1.501,-1.4072,-1.4419,-1.5527,-1.5599,-1.615,-1.735,-1.7482,-1.7382,-1.7154,-1.686,-1.7093,-1.752,-1.89,-1.9939,-2.0509,-2.1626,-2.2948,-2.2815,-2.2986,-2.3279,-2.3524,-2.3799,-2.4033,-2.4258,-2.4365,-2.4512,-2.4619,-2.4727,-2.4795,-2.4834,-2.4423,-2.3961,-2.2528,-2.1544,-2.0883,-2.0797,-2.0651,-2.049,-2.0351,-2.0257,-1.9896,-1.9964,-1.9616,-1.9979,-2.0113,-2.1051,-2.1938,-2.2868,-2.353,-2.3925,-2.3991,-2.373,-2.3467,-2.3203,-2.3105,-2.3047,-2.3076,-2.3105,-2.2715,-2.2373,-2.2275,-2.2422,-2.2832,-2.3027,-2.2871,-1.7044,-1.7153,-1.821,-1.8686,-1.8781,-1.8728,-1.8714,-1.879,-1.8094,-1.7589,-1.7589,-1.7589,-1.7589,-1.7589,-1.7589,-1.7589,-1.7589,-1.7589,-1.7475,-1.7468,-1.7542,-1.7522,-1.7488,-1.7502,-1.7589,-1.7589,-1.7549,-1.7402,-1.7014,-1.7025,-1.6799,-1.6553,-1.642,-1.6273,-1.5959,-1.5825,-1.5825,-1.6015,-1.6958,-1.7736,-1.7841,-1.8775,-1.9787,-2.067,-1.9023,-1.6743,-1.3921,-1.4256,-1.4045,-1.3362,-1.2476,-1.3372,-1.4815,-1.531,-1.6068,-1.7259,-1.7589,-1.7555,-1.7442,-1.7392,-1.7483,-1.7925,-1.8483,-1.9445,-2.026,-2.0771,-2.164,-2.2437,-2.2657,-2.3164,-2.3895,-2.4108,-2.4394,-2.4717,-2.4902,-2.5088,-2.5225,-2.5322,-2.54,-2.542,-2.5197,-2.3533,-2.1968,-1.9789,-1.8731,-1.7853,-1.7645,-1.7401,-1.7261,-1.7364,-1.7289,-1.7744,-1.7925,-1.8381,-1.9007,-2.0127,-2.1175,-2.2028,-2.2885,-2.3532,-2.3575,-2.3641,-2.3477,-2.331,-2.3213,-2.3144,-2.3144,-2.3125,-2.3037,-2.2852,-2.2637,-2.251,-2.2734,-2.2861,-2.2793,-1.8319,-1.8434,-1.9374,-2.0187,-2.0668,-2.0091,-2.0023,-2.0089,-1.942,-1.8805,-1.8401,-1.8297,-1.7996,-1.7793,-1.7589,-1.7589,-1.7589,-1.7589,-1.7589,-1.7589,-1.7589,-1.7569,-1.7575,-1.7589,-1.7589,-1.7589,-1.7555,-1.7422,-1.7244,-1.7241,-1.7108,-1.6894,-1.6754,-1.6506,-1.6246,-1.6186,-1.6132,-1.6402,-1.6929,-1.7122,-1.729,-1.771,-1.813,-1.8138,-1.7304,-1.5708,-1.3688,-1.2956,-1.3015,-1.2206,-1.1983,-1.2612,-1.3939,-1.4883,-1.5743,-1.6935,-1.7589,-1.7582,-1.7562,-1.7555,-1.7736,-1.8006,-1.8425,-1.9026,-1.985,-2.0305,-2.1215,-2.1975,-2.2253,-2.3298,-2.4227,-2.4423,-2.4814,-2.5137,-2.5312,-2.5498,-2.5537,-2.5528,-2.5139,-2.5294,-2.4669,-2.2955,-2.1037,-1.8568,-1.6573,-1.5545,-1.4641,-1.4561,-1.4689,-1.5378,-1.6075,-1.6652,-1.7302,-1.816,-1.8711,-1.9364,-2.0339,-2.1338,-2.2206,-2.309,-2.3737,-2.3916,-2.3662,-2.3408,-2.3271,-2.3174,-2.3144,-2.3105,-2.3066,-2.2969,-2.2803,-2.2725,-2.2715,-2.2764,-2.2822,-1.9588,-1.9579,-1.9579,-2.0827,-2.2232,-2.1514,-2.1321,-2.1686,-2.1577,-2.0774,-1.9598,-1.9472,-1.888,-1.7884,-1.7687,-1.7589,-1.7589,-1.7589,-1.7589,-1.7589,-1.7589,-1.7589,-1.7589,-1.7589,-1.7589,-1.7589,-1.7562,-1.7475,-1.7331,-1.7375,-1.7355,-1.7194,-1.7041,-1.6874,-1.6787,-1.678,-1.6753,-1.6664,-1.6606,-1.6704,-1.6814,-1.6491,-1.6767,-1.6724,-1.6235,-1.53,-1.3896,-1.3217,-1.2279,-1.1159,-1.0122,-1.1349,-1.244,-1.3367,-1.5204,-1.6717,-1.7582,-1.7589,-1.7589,-1.7589,-1.7575,-1.7811,-1.8437,-1.8833,-1.9112,-1.9468,-2.0303,-2.1328,-2.204,-2.3336,-2.4517,-2.4822,-2.5244,-2.5449,-2.5615,-2.5693,-2.5596,-2.5314,-2.4796,-2.4304,-2.3583,-2.198,-1.9721,-1.7312,-1.5002,-1.3727,-1.301,-1.3067,-1.3512,-1.5186,-1.5869,-1.6954,-1.7547,-1.8282,-1.8768,-1.8943,-1.9576,-2.0483,-2.1744,-2.2645,-2.342,-2.404,-2.3809,-2.3545,-2.332,-2.3203,-2.3154,-2.3144,-2.3135,-2.3027,-2.293,-2.2939,-2.293,-2.2978,-2.3037,-2.0755,-2.0845,-2.1667,-2.2457,-2.29,-2.2943,-2.2756,-2.2136,-2.1282,-2.0613,-2.0564,-1.958,-1.925,-1.9005,-1.7996,-1.7687,-1.7589,-1.7589,-1.7589,-1.7589,-1.7589,-1.7589,-1.7589,-1.7589,-1.7589,-1.7589,-1.7569,-1.7535,-1.7482,-1.7582,-1.7589,-1.7448,-1.7535,-1.7475,-1.7442,-1.7535,-1.7154,-1.6914,-1.6627,-1.6646,-1.6572,-1.6413,-1.6407,-1.6338,-1.584,-1.5135,-1.4476,-1.3501,-1.2616,-1.2221,-1.2084,-1.3111,-1.4421,-1.4883,-1.5849,-1.7259,-1.7589,-1.7589,-1.7589,-1.7589,-1.7589,-1.7635,-1.8058,-1.8051,-1.8234,-1.8576,-1.9284,-2.0432,-2.1691,-2.2895,-2.4156,-2.4851,-2.5315,-2.5615,-2.5528,-2.5323,-2.5118,-2.4501,-2.3908,-2.3073,-2.235,-2.0459,-1.8199,-1.6101,-1.3868,-1.242,-1.1574,-1.182,-1.261,-1.4412,-1.587,-1.6838,-1.7773,-1.8433,-1.8283,-1.8386,-1.9055,-1.9791,-2.0901,-2.2123,-2.2976,-2.3411,-2.3722,-2.3582,-2.3092,-2.3007,-2.3144,-2.3174,-2.3271,-2.3164,-2.2989,-2.3115,-2.3144,-2.3144,-2.3144,-2.2041,-2.2129,-2.2765,-2.3144,-2.3213,-2.3603,-2.3396,-2.2686,-2.2321,-2.2197,-2.1705,-2.1188,-2.0452,-1.9502,-1.8812,-1.8199,-1.7589,-1.7589,-1.7589,-1.7589,-1.7589,-1.7589,-1.7589,-1.7589,-1.7589,-1.7589,-1.7589,-1.7575,-1.7629,-1.7749,-1.7789,-1.7976,-1.8163,-1.8009,-1.7883,-1.7829,-1.7629,-1.7241,-1.6981,-1.6859,-1.6832,-1.6753,-1.6737,-1.662,-1.5934,-1.5725,-1.5321,-1.4494,-1.3979,-1.3614,-1.3677,-1.3906,-1.531,-1.5849,-1.6393,-1.7582,-1.7589,-1.7589,-1.7589,-1.7589,-1.7589,-1.7629,-1.7762,-1.7702,-1.7822,-1.8044,-1.8819,-1.9693,-2.1009,-2.224,-2.3574,-2.4805,-2.5216,-2.5732,-2.5323,-2.4913,-2.4304,-2.3583,-2.2754,-2.1935,-2.0488,-1.8681,-1.6637,-1.462,-1.301,-1.1828,-1.1429,-1.1711,-1.2622,-1.4217,-1.5658,-1.6792,-1.7742,-1.8484,-1.8257,-1.8158,-1.8653,-1.9204,-1.9972,-2.1054,-2.2175,-2.288,-2.3131,-2.3025,-2.2678,-2.2626,-2.2405,-2.3202,-2.3447,-2.3134,-2.288,-2.3017,-2.3066,-2.3144,-2.3144,-2.3047,-2.3047,-2.3144,-2.3174,-2.3242,-2.3574,-2.3456,-2.334,-2.4268,-2.4307,-2.3281,-2.3341,-2.198,-2.0318,-1.9524,-1.8603,-1.7891,-1.7589,-1.7589,-1.7589,-1.7589,-1.7589,-1.7589,-1.7589,-1.7589,-1.7589,-1.7649,-1.7756,-1.7782,-1.7936,-1.8196,-1.8484,-1.851,-1.8337,-1.8043,-1.819,-1.7976,-1.7508,-1.7415,-1.7448,-1.7199,-1.7085,-1.6941,-1.7268,-1.7211,-1.7133,-1.6951,-1.6354,-1.5453,-1.4953,-1.4624,-1.4669,-1.5636,-1.6717,-1.7364,-1.7582,-1.7589,-1.7589,-1.7589,-1.7589,-1.7589,-1.7595,-1.7609,-1.7695,-1.7789,-1.7856,-1.8554,-1.911,-2.032,-2.1644,-2.2984,-2.4308,-2.5032,-2.5098,-2.4836,-2.4272,-2.3397,-2.2511,-2.1362,-2.0414,-1.8993,-1.7149,-1.5699,-1.3765,-1.2239,-1.1236,-1.0942,-1.1236,-1.2953,-1.4326,-1.5762,-1.7073,-1.7919,-1.8591,-1.839,-1.8367,-1.8441,-1.8883,-1.9435,-2.0082,-2.1151,-2.1872,-2.2521,-2.2223,-2.1746,-2.1642,-2.1626,-2.2135,-2.2469,-2.232,-2.2283,-2.2824,-2.2847,-2.2577,-2.258,-2.3144,-2.3144,-2.3144,-2.332,-2.3574,-2.3389,-2.3437,-2.3682,-2.4277,-2.4301,-2.3975,-2.3359,-2.2525,-2.1127,-1.993,-1.8916,-1.7891,-1.7589,-1.7589,-1.7589,-1.7589,-1.7589,-1.7589,-1.7589,-1.7595,-1.7669,-1.7796,-1.8036,-1.8217,-1.8343,-1.841,-1.8531,-1.8644,-1.8557,-1.815,-1.8357,-1.8283,-1.7709,-1.7916,-1.7969,-1.7848,-1.7815,-1.7836,-1.8029,-1.8116,-1.8063,-1.7935,-1.762,-1.7384,-1.7085,-1.6881,-1.6849,-1.7153,-1.7483,-1.7589,-1.7589,-1.7602,-1.7629,-1.7622,-1.7622,-1.7615,-1.7709,-1.7776,-1.7883,-1.7969,-1.8023,-1.8232,-1.88,-1.9692,-2.1146,-2.239,-2.3728,-2.4675,-2.4573,-2.4239,-2.3417,-2.2501,-2.133,-2.0052,-1.886,-1.7534,-1.6091,-1.4717,-1.3238,-1.1565,-1.0688,-1.0263,-1.074,-1.3241,-1.4945,-1.6609,-1.7757,-1.8244,-1.8758,-1.8504,-1.8332,-1.829,-1.8478,-1.8962,-1.9524,-2.0158,-2.0591,-2.0966,-2.0928,-2.0707,-2.0565,-2.0533,-2.0534,-2.0754,-2.1129,-2.1287,-2.1668,-2.1272,-2.0887,-2.1159,-2.3144,-2.3144,-2.3144,-2.3281,-2.3428,-2.3242,-2.3281,-2.3495,-2.349,-2.3458,-2.357,-2.3262,-2.2676,-2.1541,-2.0231,-1.8916,-1.7793,-1.7589,-1.7589,-1.7589,-1.7589,-1.7589,-1.7589,-1.7595,-1.7729,-1.7816,-1.8103,-1.8377,-1.8597,-1.8698,-1.8718,-1.8804,-1.8918,-1.8704,-1.8317,-1.8531,-1.845,-1.7849,-1.8297,-1.8457,-1.832,-1.837,-1.829,-1.847,-1.8504,-1.851,-1.845,-1.8317,-1.8283,-1.8223,-1.7866,-1.7694,-1.7688,-1.76,-1.7595,-1.7603,-1.7583,-1.7662,-1.7749,-1.7722,-1.7742,-1.7916,-1.7923,-1.8023,-1.8283,-1.835,-1.839,-1.8974,-1.983,-2.1077,-2.2128,-2.3393,-2.4118,-2.4396,-2.2913,-2.16,-2.0696,-1.9642,-1.9094,-1.8762,-1.7623,-1.6652,-1.5294,-1.4023,-1.2539,-1.1532,-1.0901,-1.2072,-1.4232,-1.5419,-1.7085,-1.8197,-1.8669,-1.8671,-1.829,-1.8083,-1.7996,-1.8249,-1.8547,-1.9045,-1.9524,-1.9383,-1.937,-1.9706,-1.9807,-1.9607,-1.9587,-1.9549,-2.0044,-2.0659,-2.0523,-2.0317,-1.9788,-1.9414,-1.9701,-2.3086,-2.3135,-2.3144,-2.3144,-2.3144,-2.3144,-2.296,-2.283,-2.2575,-2.2277,-2.2203,-2.2752,-2.2372,-2.1338,-2.0231,-1.8909,-1.7996,-1.7687,-1.7589,-1.7589,-1.7589,-1.7589,-1.7589,-1.7602,-1.7762,-1.7969,-1.8223,-1.8497,-1.8751,-1.8771,-1.8851,-1.9138,-1.9005,-1.8731,-1.8564,-1.8517,-1.8404,-1.8283,-1.8484,-1.8724,-1.8731,-1.8704,-1.8637,-1.8597,-1.8604,-1.8604,-1.8604,-1.8564,-1.8564,-1.8497,-1.8444,-1.8283,-1.7972,-1.7862,-1.7744,-1.7734,-1.7639,-1.7833,-1.7948,-1.7936,-1.811,-1.825,-1.8265,-1.8462,-1.8739,-1.8965,-1.9006,-1.9674,-2.0545,-2.0783,-2.1858,-2.2815,-2.3665,-2.3445,-2.1603,-2.0121,-1.9332,-1.8527,-1.8594,-1.8584,-1.7635,-1.678,-1.5903,-1.4724,-1.3596,-1.2578,-1.3108,-1.4626,-1.5773,-1.6345,-1.7289,-1.8224,-1.8724,-1.8564,-1.8203,-1.807,-1.7996,-1.7929,-1.8201,-1.8604,-1.8812,-1.8622,-1.8626,-1.8818,-1.8853,-1.8787,-1.8855,-1.8919,-1.954,-1.986,-1.9205,-1.8769,-1.8865,-1.8535,-1.8535,-2.2832,-2.3144,-2.3144,-2.3144,-2.3135,-2.3047,-2.258,-2.175,-2.1916,-2.1728,-2.0908,-2.0202,-1.9953,-2.0025,-1.9826,-1.8916,-1.7793,-1.7589,-1.7589,-1.7589,-1.7589,-1.7589,-1.7609,-1.7655,-1.7796,-1.7996,-1.8183,-1.8317,-1.8644,-1.8644,-1.8604,-1.8698,-1.8704,-1.8577,-1.8564,-1.8577,-1.8677,-1.8577,-1.8784,-1.9092,-1.8925,-1.8931,-1.9038,-1.9085,-1.9199,-1.9199,-1.9152,-1.8958,-1.8878,-1.8778,-1.8657,-1.8531,-1.836,-1.8125,-1.8039,-1.8051,-1.7961,-1.813,-1.8227,-1.8373,-1.8547,-1.8648,-1.8919,-1.9814,-2.0147,-2.0381,-2.0803,-2.1734,-2.1961,-2.0818,-2.1555,-2.2642,-2.3286,-2.1986,-2.0337,-1.9794,-1.9178,-1.8998,-1.8865,-1.816,-1.7207,-1.6733,-1.657,-1.5221,-1.3942,-1.3499,-1.4001,-1.5515,-1.6844,-1.7289,-1.7615,-1.8173,-1.8811,-1.8711,-1.8457,-1.8303,-1.8183,-1.7956,-1.7796,-1.8201,-1.8245,-1.7905,-1.7914,-1.8317,-1.8192,-1.804,-1.8114,-1.8398,-1.8181,-1.8311,-1.7636,-1.7271,-1.7517,-1.7754,-1.7811]},{"header":{"parameterUnit":"m.s-1","parameterCategory":1,"la1":31.0,"la2":29.5877,"lo1":-88.7671,"lo2":-86.6584,"dy":0.0162,"dx":0.0185,"nx":115,"ny":88,"refTime":"2023-06-21T12:00:00:Z","depth":0,"parameterNumber":3,"parameterNumberName":"V-component_of_WINDS"},"data":[0.0,0.0,0.0,0.0,0.0,0.0,0.0,0.0,0.0,0.0,0.0,0.0,0.0,0.0,0.0,0.0,0.0,0.0,0.0,0.0,0.0,0.0,0.0,0.0,0.0,0.0,0.0,0.0,0.0,0.0,0.0,0.0,0.0,0.0,0.0,0.0,0.0,0.0,0.0,0.0,0.0,0.0,0.0,0.0,0.0,0.0,0.0,0.0,0.0,0.0,0.0,0.0,0.0,0.0,0.0,0.0,0.0,0.0,0.0,0.0,0.0,0.0,0.0,0.0,0.0,0.0,0.0,0.0,0.0,0.0,0.0,0.0,0.0,0.0,0.0,0.0,0.0,0.0,0.0,0.0,0.0,0.0,0.0,0.0,0.0,0.0,0.0,0.0,0.0,0.0,0.0,0.0,0.0,0.0,0.0,0.0,0.0,0.0,0.0,0.0,0.0,0.0,0.0,0.0,0.0,0.0,0.0,0.0,0.0,0.0,0.0,0.0,0.0,0.0,0.0,0.0,0.0,0.0,0.0,0.0,0.0,0.0,0.0,0.0,0.0,0.0,0.0,0.0,0.0,0.0,0.0,0.0,0.0,0.0,0.0,0.0,0.0,0.0,0.0,0.0,0.0,0.0,0.0,0.0,0.0,0.0,0.0,0.0,0.0,0.0,0.0,0.0,0.0,0.0,0.0,0.0,0.0,0.0,0.0,0.0,0.0,0.0,0.0,0.0,0.0,0.0,0.0,0.0,0.0,0.0,0.0,0.0,0.0,0.0,0.0,0.0,0.0,0.0,0.0,0.0,0.0,0.0,0.0,0.0,0.0,0.0,0.0,0.0,0.0,0.0,0.0,0.0,0.0,0.0,0.0,0.0,0.0,0.0,0.0,0.0,0.0,0.0,0.0,0.0,0.0,0.0,0.0,0.0,0.0,0.0,0.0,0.0,0.0,0.0,0.0,0.0,0.0,0.0,0.0,0.0,0.0,0.0,0.0,0.0,0.0,0.0,0.0,0.0,0.0,0.0,0.0,0.0,0.0,0.0,0.0,0.0,0.0,0.0,0.0,0.0,0.0,0.0,0.0,0.0,0.0,0.0,0.0,0.0,0.0,0.0,0.0,0.0,0.0,0.0,0.0,0.0,0.0,0.0,0.0,0.0,0.0,0.0,0.0,0.0,0.0,0.0,0.0,0.0,0.0,0.0,0.0,0.0,0.0,0.0,0.0,0.0,0.0,0.0,0.0,0.0,0.0,0.0,0.0,0.0,0.0,0.0,0.0,0.0,0.0,0.0,0.0,0.0,0.0,0.0,0.0,0.0,0.0,0.0,0.0,0.0,0.0,0.0,0.0,0.0,0.0,0.0,0.0,0.0,0.0,0.0,0.0,0.0,0.0,0.0,0.0,0.0,0.0,0.0,0.0,0.0,0.0,0.0,0.0,0.0,0.0,0.0,0.0,0.0,0.0,0.0,0.0,0.0,0.0,0.0,0.0,0.0,0.0,0.0,0.0,0.0,0.0,0.0,0.0,0.0,0.0,0.0,0.0,0.0,0.0,0.0,0.0,0.0,0.0,0.0,0.0,0.0,0.0,0.0,0.0,0.0,0.0,0.0,0.0,0.0,0.0,0.0,0.0,0.0,0.0,0.0,0.0,0.0,0.0,0.0,0.0,0.0,0.0,0.0,0.0,0.0,0.0,0.0,0.0,0.0,0.0,0.0,0.0,0.0,0.0,0.0,0.0,0.0,0.0,0.0,0.0,0.0,0.0,0.0,0.0,0.0,0.0,0.0,0.0,0.0,0.0,0.0,0.0,0.0,0.0,0.0,0.0,0.0,0.0,0.0,0.0,0.0,0.0,0.0,0.0,0.0,0.0,0.0,0.0,0.0,0.0,0.0,0.0,0.0,0.0,0.0,0.0,0.0,0.0,0.0,0.0,0.0,0.0,0.0,0.0,0.0,0.0,0.0,0.0,0.0,0.0,0.0,0.0,0.0,0.0,0.0,0.0,0.0,0.0,0.0,0.0,0.0,0.0,0.0,0.0,0.0,0.0,0.0,0.0,0.0,0.0,0.0,0.0,0.0,0.0,0.0,0.0,0.0,0.0,0.0,0.0,0.0,0.0,0.0,0.0,0.0,0.0,0.0,0.0,0.0,0.0,0.0,0.0,0.0,0.0,0.0,0.0,0.0,0.0,0.0,0.0,0.0,0.0,0.0,0.0,0.0,0.0,0.0,0.0,0.0,0.0,0.0,0.0,0.0,0.0,0.0,0.0,0.0,0.0,0.0,0.0,0.0,0.0,0.0,0.0,0.0,0.0,0.0,0.0,0.0,0.0,0.0,0.0,0.0,0.0,0.0,0.0,0.0,0.0,0.0,0.0,0.0,0.0,0.0,0.0,0.0,0.0,0.0,0.0,0.0,0.0,0.0,0.0,0.0,0.0,0.0,0.0,0.0,0.0,0.0,0.0,0.0,0.0,0.0,0.0,0.0,0.0,0.0,0.0,0.0,0.0,0.0,0.0,0.0,0.0,0.0,0.0,0.0,0.0,0.0,0.0,0.0,0.0,0.0,0.0,0.0,0.0,0.0,0.0,0.0,0.0,0.0,0.0,0.0,0.0,0.0,0.0,0.0,0.0,0.0,0.0,0.0,0.0,0.0,0.0,0.0,0.0,0.0,0.0,0.0,0.0,0.0,0.0,0.0,0.0,0.0,0.0,0.0,0.0,0.0,0.0,0.0,0.0,0.0,0.0,0.0,0.0,0.0,0.0,0.0,0.0,0.0,0.0,0.0,0.0,0.0,0.0,0.0,0.0,0.0,0.0,0.0,0.0,0.0,0.0,0.0,0.0,0.0,0.0,0.0,0.0,0.0,0.0,0.0,0.0,0.0,0.0,0.0,0.0,0.0,0.0,0.0,0.0,0.0,0.0,0.0,0.0,0.0,0.0,0.0,0.0,0.0,0.0,0.0,0.0,0.0,0.0,0.0,0.0,0.0,0.0,0.0,0.0,0.0,0.0,0.0,0.0,0.0,0.0,0.0,0.0,0.0,0.0,0.0,0.0,0.0,0.0,0.0,0.0,0.0,0.0,0.0,0.0,0.0,0.0,0.0,0.0,0.0,0.0,0.0,0.0,0.0,0.0,0.0,0.0,0.0,0.0,0.0,0.0,0.0,0.0,0.0,0.0,0.0,0.0,0.0,0.0,0.0,0.0,0.0,0.0,0.0,0.0,0.0,0.0,0.0,0.0,0.0,0.0,0.0,0.0,0.0,0.0,0.0,0.0,0.0,0.0,0.0,0.0,0.0,0.0,0.0,0.0,0.0,0.0,0.0,0.0,0.0,0.0,0.0,0.0,0.0,0.0,0.0,0.0,0.0,0.0,0.0,0.0,0.0,0.0,0.0,0.0,0.0,0.0,0.0,0.0,0.0,0.0,0.0,0.0,0.0,0.0,0.0,0.0,0.0,0.0,0.0,0.0,0.0,0.0,0.0,0.0,0.0,0.0,0.0,0.0,0.0,0.0,0.0,0.0,0.0,0.0,0.0,0.0,0.0,0.0,0.0,0.0,0.0,0.0,0.0,0.0,0.0,0.0,0.0,0.0,0.0,0.0,0.0,0.0,0.0,0.0,0.0,0.0,0.0,0.0,0.0,0.0,0.0,0.0,0.0,0.0,0.0,0.0,0.0,0.0,0.0,0.0,0.0,0.0,0.0,0.0,0.0,0.0,0.0,0.0,0.0,0.0,0.0,0.0,0.0,0.0,0.0,0.0,0.0,0.0,0.0,0.0,0.0,0.0,0.0,0.0,0.0,0.0,0.0,0.0,0.0,0.0,0.0,0.0,0.0,0.0,0.0,0.0,0.0,0.0,0.0,0.0,0.0,0.0,0.0,0.0,0.0,0.0,0.0,0.0,0.0,0.0,0.0,0.0,0.0,0.0,0.0,0.0,0.0,0.0,0.0,0.0,0.0,0.0,0.0,0.0,0.0,0.0,0.0,0.0,0.0,0.0,0.0,0.0,0.0,0.0,0.0,0.0,0.0,0.0,0.0,0.0,0.0,0.0,0.0,0.0,0.0,0.0,0.0,0.0,0.0,0.0,0.0,0.0,0.0,0.0,0.0,0.0,0.0,0.0,0.0,0.0,0.0,0.0,0.0,0.0,0.0,0.0,0.0,0.0,0.0,0.0,0.0,0.0,0.0,0.0,0.0,0.0,0.0,0.0,0.0,0.0,0.0,0.0,0.0,0.0,0.0,0.0,0.0,0.0,0.0,0.0,0.0,0.0,0.0,-0.6003,0.0,0.0,0.0,0.0,0.0,0.0,0.0,0.0,0.0,0.0,0.0,0.0,0.0,0.0,0.0,0.0,0.0,0.0,0.0,0.0,0.0,0.0,0.0,0.0,0.0,0.0,0.0,0.0,0.0,0.0,0.0,0.0,0.0,0.0,0.0,0.0,0.0,0.0,0.0,0.0,0.0,0.0,0.0,0.0,0.0,0.0,0.0,0.0,0.0,0.0,0.0,0.0,0.0,0.0,0.0,0.0,0.0,0.0,0.0,0.0,0.0,0.0,0.0,0.0,0.0,0.0,0.0,0.0,0.0,0.0,0.0,0.0,0.0,0.0,0.0,0.0,0.0,0.0,0.0,0.0,0.0,0.0,0.0,0.0,0.0,0.0,0.0,0.0,0.0,0.0,0.0,0.0,0.0,0.0,0.0,0.0,0.0,0.0,0.0,0.0,0.0,0.0,0.0,0.0,0.0,0.0,0.0,0.0,0.0,0.0,-0.8957,-0.9022,-0.8226,-0.731,-0.6287,0.0,0.0,0.0,0.0,0.0,0.0,0.0,0.0,0.0,0.0,0.0,0.0,0.0,0.0,0.0,0.0,0.0,0.0,0.0,0.0,0.0,0.0,0.0,0.0,0.0,0.0,0.0,0.0,0.0,0.0,0.0,0.0,0.0,0.0,0.0,0.0,0.0,0.0,0.0,0.0,0.0,0.0,0.0,0.0,0.0,0.0,0.0,0.0,0.0,0.0,0.0,0.0,0.0,0.0,0.0,0.0,0.0,0.0,0.0,0.0,0.0,0.0,0.0,0.0,0.0,0.0,0.0,0.0,0.0,0.0,0.0,0.0,0.0,0.0,0.0,0.0,0.0,0.0,0.0,0.0,0.0,0.0,0.0,0.0,0.0,0.0,0.0,0.0,0.0,0.0,0.0,0.0,0.0,0.0,0.0,0.0,0.0,0.0,0.0,0.0,0.0,0.0,0.0,0.0,0.0,0.0,0.0,0.0,0.0,0.0,0.0,0.0,-0.8858,-0.7705,-0.6293,0.0,0.0,0.0,0.0,0.0,0.0,0.0,0.0,0.0,0.0,0.0,0.0,0.0,0.0,0.0,0.0,0.0,0.0,0.0,0.0,0.0,0.0,0.0,0.0,0.0,0.0,0.0,0.0,0.0,0.0,0.0,0.0,0.0,0.0,0.0,0.0,0.0,0.0,0.0,0.0,0.0,0.0,0.0,0.0,0.0,0.0,0.0,0.0,0.0,0.0,0.0,0.0,0.0,0.0,0.0,0.0,0.0,0.0,0.0,0.0,0.0,0.0,0.0,0.0,0.0,0.0,0.0,0.0,0.0,0.0,0.0,0.0,0.0,0.0,0.0,0.0,0.0,0.0,0.0,0.0,0.0,0.0,0.0,0.0,0.0,0.0,0.0,0.0,0.0,0.0,0.0,0.0,0.0,0.0,0.0,0.0,0.0,0.0,0.0,0.0,0.0,0.0,0.0,0.0,0.0,0.0,0.0,0.0,0.0,0.0,-1.0377,-1.0385,-0.9427,0.0,-0.5444,0.0,0.0,0.0,0.0,0.0,0.0,0.0,0.0,0.0,0.0,0.0,0.0,0.0,0.0,0.0,0.0,0.0,0.0,0.0,0.0,0.0,0.0,0.0,0.0,0.0,0.0,0.0,0.0,0.0,0.0,0.0,0.0,0.0,0.0,0.0,0.0,0.0,0.0,0.0,0.0,0.0,0.0,0.0,0.0,0.0,0.0,0.0,0.0,0.0,0.0,0.0,0.0,0.0,0.0,0.0,0.0,0.0,0.0,0.0,0.0,0.0,0.0,0.0,0.0,0.0,0.0,0.0,0.0,0.0,0.0,0.0,0.0,0.0,0.0,0.0,0.0,0.0,0.0,0.0,0.0,0.0,0.0,0.0,0.0,0.0,0.0,0.0,0.0,0.0,0.0,0.0,0.0,0.0,0.0,0.0,0.0,0.0,0.0,0.0,0.0,0.0,0.0,0.0,0.0,0.0,0.0,0.0,0.0,0.0,0.0,-1.1024,-1.0681,-0.8778,-0.7061,0.0,0.0,0.0,0.0,0.0,0.0,0.0,0.0,0.0,0.0,0.0,0.0,0.0,0.0,0.0,0.0,0.0,0.0,0.0,0.0,0.0,0.0,0.0,0.0,0.0,0.0,0.0,0.0,0.0,0.0,0.0,0.0,0.0,0.0,0.0,0.0,0.0,0.0,0.0,0.0,0.0,0.0,0.0,0.0,0.0,0.0,0.0,0.0,0.0,0.0,0.0,0.0,0.0,0.0,0.0,0.0,0.0,0.0,0.0,0.0,0.0,0.0,0.0,0.0,0.0,0.0,0.0,0.0,0.0,0.0,0.0,0.0,0.0,0.0,0.0,0.0,0.0,0.0,0.0,0.0,0.0,0.0,0.0,0.0,0.0,0.0,0.0,0.0,0.0,0.0,0.0,0.0,0.0,0.0,0.0,0.0,0.0,0.0,0.0,0.0,0.0,0.0,0.0,0.0,0.0,0.0,0.0,0.0,0.0,0.0,-1.18,-1.1446,-1.0521,-0.8325,-0.6749,-0.595,0.0,0.0,0.0,0.0,0.0,0.0,0.0,0.0,0.0,0.0,0.0,0.0,0.0,0.0,0.0,0.0,0.0,0.0,0.0,0.0,0.0,0.0,0.0,0.0,0.0,0.0,0.0,0.0,0.0,0.0,0.0,0.0,0.0,0.0,0.0,0.0,0.0,0.0,0.0,0.0,0.0,0.0,0.0,0.0,0.0,0.0,0.0,0.0,0.0,0.0,0.0,0.0,0.0,0.0,0.0,0.0,0.0,0.0,0.0,0.0,0.0,0.0,0.0,0.0,0.0,0.0,0.0,0.0,0.0,0.0,0.0,0.0,0.0,0.0,0.0,0.0,0.0,0.0,0.0,0.0,0.0,0.0,0.0,0.0,0.0,0.0,0.0,0.0,0.0,0.0,0.0,0.0,0.0,0.0,0.0,0.0,0.0,0.0,0.0,0.0,0.0,0.0,0.0,0.0,0.0,0.0,0.0,0.0,-1.2603,-1.232,-1.1505,-1.007,-0.8414,-0.7254,0.0,0.0,0.0,0.0,0.0,0.0,0.0,0.0,0.0,0.0,0.0,0.0,0.0,0.0,0.0,0.0,0.0,0.0,0.0,0.0,0.0,0.0,0.0,0.0,0.0,0.0,0.0,0.0,0.0,0.0,0.0,0.0,0.0,0.0,0.0,0.0,0.0,0.0,0.0,0.0,0.0,0.0,0.0,0.0,0.0,0.0,0.0,0.0,0.0,0.0,0.0,0.0,0.0,0.0,0.0,0.0,0.0,0.0,0.0,0.0,0.0,0.0,0.0,0.0,0.0,0.0,0.0,0.0,0.0,0.0,0.0,0.0,0.0,0.0,0.0,0.0,0.0,0.0,0.0,0.0,0.0,0.0,0.0,0.0,0.0,0.0,0.0,0.0,0.0,0.0,0.0,0.0,0.0,0.0,0.0,0.0,0.0,0.0,0.0,0.0,0.0,0.0,0.0,0.0,0.0,0.0,0.0,0.0,0.0,-1.2855,-1.2265,-1.1417,-1.0295,-0.898,-0.7834,0.0,0.0,0.0,0.0,0.0,0.0,0.0,0.0,0.0,0.0,0.0,0.0,0.0,0.0,0.0,0.0,0.0,0.0,0.0,0.0,0.0,0.0,0.0,0.0,0.0,0.0,0.0,0.0,0.0,0.0,0.0,0.0,0.0,0.0,0.0,0.0,0.0,0.0,0.0,0.0,0.0,0.0,0.0,0.0,0.0,0.0,0.0,0.0,0.0,0.0,0.0,0.0,0.0,0.0,0.0,0.0,0.0,0.0,0.0,0.0,0.0,0.0,0.0,0.0,0.0,0.0,0.0,0.0,0.0,0.0,0.0,0.0,0.0,0.0,0.0,0.0,0.0,0.0,0.0,0.0,0.0,0.0,0.0,0.0,0.0,0.0,0.0,0.0,0.0,0.0,0.0,0.0,0.0,0.0,0.0,0.0,0.0,0.0,0.0,0.0,0.0,0.0,0.0,0.0,0.0,0.0,0.0,0.0,0.0,-1.2908,0.0,-1.1546,-1.0639,-0.9546,-0.8348,0.0,0.0,0.0,0.0,0.0,0.0,0.0,0.0,0.0,0.0,0.0,0.0,0.0,0.0,0.0,0.0,0.0,0.0,0.0,0.0,0.0,0.0,0.0,0.0,0.0,0.0,0.0,0.0,0.0,0.0,0.0,0.0,0.0,0.0,0.0,0.0,0.0,0.0,0.0,0.0,0.0,0.0,0.0,0.0,0.0,0.0,0.0,0.0,0.0,0.0,0.0,0.0,0.0,0.0,0.0,0.0,0.0,0.0,0.0,0.0,0.0,0.0,0.0,0.0,0.0,0.0,0.0,0.0,0.0,0.0,0.0,0.0,0.0,0.0,0.0,0.0,0.0,0.0,0.0,0.0,0.0,0.0,0.0,0.0,0.0,0.0,0.0,0.0,0.0,0.0,0.0,0.0,0.0,0.0,0.0,0.0,0.0,0.0,0.0,0.0,0.0,0.0,0.0,0.0,0.0,0.0,0.0,0.0,-1.3244,-1.2834,-1.2588,-1.2061,-1.1138,-1.0108,-0.8861,0.0,0.0,0.0,0.0,0.0,0.0,0.0,0.0,0.0,0.0,0.0,0.0,0.0,0.0,0.0,0.0,0.0,0.0,0.0,0.0,0.0,0.0,0.0,0.0,0.0,0.0,0.0,0.0,0.0,0.0,0.0,0.0,0.0,0.0,0.0,0.0,0.0,0.0,0.0,0.0,0.0,0.0,0.0,0.0,0.0,0.0,0.0,0.0,0.0,0.0,0.0,0.0,0.0,0.0,0.0,0.0,0.0,0.0,0.0,0.0,0.0,0.0,0.0,0.0,0.0,0.0,0.0,0.0,0.0,0.0,0.0,0.0,0.0,0.0,0.0,0.0,0.0,0.0,0.0,0.0,0.0,0.0,0.0,0.0,0.0,0.0,0.0,0.0,0.0,0.0,0.0,0.0,0.0,0.0,0.0,0.0,0.0,0.0,0.0,0.0,0.0,0.0,0.0,0.0,0.0,0.0,0.0,0.0,0.0,-1.387,-1.4007,-1.3484,-1.2188,-1.1372,-0.9897,0.0,0.0,0.0,0.0,0.0,0.0,0.0,0.0,0.0,0.0,0.0,0.0,0.0,0.0,0.0,0.0,0.0,0.0,0.0,0.0,0.0,0.0,0.0,0.0,0.0,0.0,0.0,0.0,0.0,0.0,0.0,0.0,0.0,0.0,0.0,0.0,0.0,0.0,0.0,0.0,0.0,0.0,0.0,0.0,0.0,0.0,0.0,0.0,0.0,0.0,0.0,0.0,0.0,0.0,0.0,0.0,0.0,0.0,0.0,0.0,0.0,0.0,0.0,0.0,0.0,0.0,0.0,0.0,0.0,0.0,0.0,0.0,0.0,0.0,0.0,0.0,0.0,0.0,0.0,0.0,0.0,0.0,0.0,0.0,0.0,0.0,0.0,0.0,0.0,0.0,0.0,0.0,0.0,0.0,0.0,0.0,0.0,0.0,0.0,0.0,0.0,0.0,0.0,0.0,0.0,0.0,0.0,0.0,0.0,-1.6239,-1.5704,-1.4811,-1.3621,-1.2673,-1.1027,-0.8705,0.0,0.0,0.0,0.0,0.0,0.0,0.0,0.0,0.0,0.0,0.0,0.0,0.0,0.0,0.0,0.0,0.0,0.0,0.0,0.0,0.0,0.0,0.0,0.0,0.0,0.0,0.0,0.0,0.0,0.0,0.0,0.0,0.0,0.0,0.0,0.0,0.0,0.0,0.0,0.0,0.0,0.0,0.0,0.0,0.0,0.0,0.0,0.0,0.0,0.0,0.0,0.0,0.0,0.0,0.0,0.0,0.0,0.0,0.0,0.0,0.0,0.0,0.0,0.0,0.0,0.0,0.0,0.0,0.0,0.0,0.0,0.0,0.0,0.0,0.0,0.0,0.0,0.0,0.0,0.0,0.0,0.0,0.0,0.0,0.0,0.0,0.0,0.0,0.0,0.0,0.0,0.0,0.0,0.0,0.0,0.0,0.0,0.0,0.0,0.0,0.0,0.0,0.0,0.0,0.0,0.0,0.0,0.0,-1.9719,-1.7667,-1.6242,-1.5515,-1.4071,-1.2291,0.0,0.0,0.0,0.0,0.0,0.0,0.0,0.0,0.0,0.0,0.0,0.0,0.0,0.0,0.0,0.0,0.0,0.0,0.0,0.0,0.0,0.0,0.0,0.0,0.0,0.0,0.0,0.0,0.0,0.0,0.0,0.0,0.0,0.0,0.0,0.0,0.0,0.0,0.0,0.0,0.0,0.0,0.0,0.0,0.0,0.0,0.0,0.0,0.0,0.0,0.0,0.0,0.0,0.0,0.0,0.0,0.0,0.0,0.0,0.0,0.0,0.0,0.0,0.0,0.0,0.0,0.0,0.0,0.0,0.0,0.0,0.0,0.0,0.0,0.0,0.0,0.0,0.0,0.0,0.0,0.0,0.0,0.0,0.0,0.0,0.0,0.0,0.0,0.0,0.0,0.0,0.0,0.0,0.0,0.0,0.0,0.0,0.0,0.0,0.0,0.0,0.0,0.0,0.0,0.0,0.0,0.0,0.0,0.0,-2.1437,-2.1171,-2.0,-1.793,-1.6266,-1.4094,0.0,0.0,0.0,0.0,0.0,0.0,0.0,0.0,0.0,0.0,0.0,0.0,0.0,0.0,0.0,0.0,0.0,0.0,0.0,0.0,0.0,0.0,0.0,0.0,0.0,0.0,0.0,0.0,0.0,0.0,0.0,0.0,0.0,0.0,0.0,0.0,0.0,0.0,0.0,0.0,0.0,0.0,0.0,0.0,0.0,0.0,0.0,0.0,0.0,0.0,0.0,0.0,0.0,0.0,0.0,0.0,0.0,0.0,0.0,0.0,0.0,0.0,0.0,0.0,0.0,0.0,0.0,0.0,0.0,0.0,0.0,0.0,0.0,0.0,0.0,0.0,0.0,0.0,0.0,0.0,0.0,0.0,0.0,0.0,0.0,0.0,0.0,0.0,0.0,0.0,0.0,0.0,0.0,0.0,0.0,0.0,0.0,0.0,0.0,0.0,0.0,0.0,0.0,0.0,0.0,0.0,0.0,0.0,-2.14,-2.307,-2.3747,-2.3336,-2.1818,-1.8765,-1.5856,0.0,0.0,0.0,0.0,0.0,0.0,0.0,0.0,0.0,0.0,0.0,0.0,0.0,0.0,0.0,0.0,0.0,0.0,0.0,0.0,0.0,0.0,0.0,0.0,0.0,0.0,0.0,0.0,0.0,0.0,0.0,0.0,0.0,0.0,0.0,0.0,0.0,0.0,0.0,0.0,0.0,0.0,0.0,0.0,0.0,0.0,0.0,0.0,0.0,0.0,0.0,0.0,0.0,0.0,0.0,0.0,0.0,0.0,0.0,0.0,0.0,0.0,0.0,0.0,0.0,0.0,0.0,0.0,0.0,0.0,0.0,0.0,0.0,0.0,0.0,0.0,0.0,0.0,0.0,0.0,0.0,0.0,0.0,0.0,0.0,0.0,0.0,0.0,0.0,0.0,0.0,0.0,0.0,0.0,0.0,0.0,0.0,0.0,0.0,0.0,0.0,0.0,0.0,0.0,0.0,0.0,0.0,0.0,-2.2604,-2.437,-2.5431,-2.5843,-2.5596,-2.1163,-1.7527,0.0,0.0,0.0,0.0,0.0,0.0,0.0,0.0,0.0,0.0,0.0,0.0,0.0,0.0,0.0,0.0,0.0,0.0,0.0,0.0,0.0,0.0,0.0,0.0,0.0,0.0,0.0,0.0,0.0,0.0,0.0,0.0,0.0,0.0,0.0,0.0,0.0,0.0,0.0,0.0,0.0,0.0,0.0,0.0,0.0,0.0,0.0,0.0,0.0,0.0,0.0,0.0,0.0,0.0,0.0,0.0,0.0,0.0,0.0,0.0,0.0,0.0,0.0,0.0,0.0,0.0,0.0,0.0,0.0,0.0,0.0,0.0,0.0,0.0,0.0,0.0,0.0,0.0,0.0,0.0,0.0,0.0,0.0,0.0,0.0,0.0,0.0,0.0,0.0,0.0,0.0,0.0,0.0,0.0,0.0,0.0,0.0,0.0,0.0,0.0,0.0,0.0,0.0,0.0,0.0,0.0,0.0,0.0,-2.3276,-2.4445,-2.5219,-2.5262,-2.4557,-2.1648,-1.904,0.0,0.0,0.0,0.0,0.0,0.0,0.0,0.0,0.0,0.0,0.0,0.0,0.0,0.0,0.0,0.0,0.0,0.0,0.0,0.0,0.0,0.0,0.0,0.0,0.0,0.0,0.0,0.0,0.0,0.0,0.0,0.0,0.0,0.0,0.0,0.0,0.0,0.0,0.0,0.0,0.0,0.0,0.0,0.0,0.0,0.0,0.0,0.0,-0.9511,0.0,0.0,0.0,0.0,0.0,0.0,0.0,0.0,0.0,0.0,0.0,0.0,0.0,0.0,0.0,0.0,0.0,0.0,0.0,0.0,0.0,0.0,0.0,0.0,0.0,0.0,0.0,0.0,0.0,0.0,0.0,0.0,0.0,0.0,0.0,0.0,0.0,0.0,0.0,0.0,0.0,0.0,0.0,0.0,0.0,0.0,0.0,0.0,0.0,0.0,0.0,0.0,0.0,0.0,0.0,0.0,0.0,0.0,0.0,-2.3637,-2.4922,-2.5313,-2.5458,-2.529,-2.2981,-2.0467,0.0,0.0,0.0,0.0,0.0,0.0,0.0,0.0,0.0,0.0,0.0,0.0,0.0,0.0,0.0,0.0,0.0,0.0,0.0,0.0,0.0,0.0,0.0,0.0,0.0,0.0,0.0,0.0,0.0,0.0,0.0,0.0,0.0,0.0,0.0,0.0,0.0,0.0,0.0,0.0,0.0,0.0,0.0,0.0,0.0,0.0,0.0,0.0,0.0,0.0,0.0,0.0,0.0,0.0,0.0,0.0,0.0,0.0,0.0,0.0,0.0,0.0,0.0,0.0,0.0,0.0,0.0,0.0,0.0,0.0,0.0,0.0,0.0,0.0,0.0,0.0,0.0,0.0,0.0,0.0,0.0,0.0,0.0,0.0,0.0,0.0,0.0,0.0,0.0,0.0,0.0,0.0,0.0,0.0,0.0,0.0,0.0,0.0,0.0,0.0,0.0,0.0,0.0,0.0,0.0,0.0,0.0,-2.1861,-2.3828,-2.5406,-2.5466,-2.5744,-2.6289,-2.4145,-2.1563,-1.8648,0.0,0.0,0.0,0.0,0.0,0.0,0.0,0.0,0.0,0.0,0.0,0.0,0.0,0.0,0.0,0.0,0.0,0.0,0.0,0.0,0.0,0.0,0.0,0.0,0.0,0.0,0.0,0.0,0.0,0.0,0.0,0.0,0.0,0.0,0.0,0.0,0.0,0.0,-0.7832,-0.8501,0.0,0.0,0.0,0.0,0.0,0.0,0.0,0.0,-1.1074,0.0,0.0,0.0,0.0,0.0,0.0,0.0,0.0,0.0,0.0,0.0,0.0,0.0,0.0,0.0,0.0,0.0,0.0,0.0,0.0,0.0,0.0,0.0,0.0,0.0,0.0,0.0,0.0,0.0,0.0,0.0,0.0,0.0,0.0,0.0,0.0,0.0,0.0,0.0,0.0,0.0,0.0,0.0,0.0,0.0,0.0,0.0,0.0,0.0,0.0,0.0,0.0,0.0,0.0,0.0,0.0,-2.1364,-2.2507,-2.3868,-2.543,-2.5335,-2.5069,-2.4673,-2.3382,-2.1565,-1.9255,0.0,0.0,0.0,0.0,0.0,0.0,0.0,0.0,0.0,0.0,0.0,0.0,0.0,0.0,0.0,0.0,0.0,0.0,0.0,0.0,0.0,0.0,0.0,0.0,0.0,0.0,0.0,0.0,0.0,0.0,0.0,0.0,0.0,0.0,0.0,0.0,0.0,0.0,0.0,-0.8668,-0.9074,0.0,0.0,0.0,0.0,0.0,0.0,0.0,0.0,-1.2677,0.0,0.0,0.0,0.0,0.0,0.0,0.0,0.0,0.0,0.0,0.0,0.0,0.0,0.0,0.0,0.0,0.0,0.0,0.0,0.0,0.0,0.0,0.0,0.0,0.0,0.0,0.0,0.0,0.0,0.0,0.0,0.0,0.0,0.0,0.0,0.0,0.0,0.0,0.0,0.0,0.0,0.0,0.0,0.0,0.0,0.0,0.0,0.0,0.0,0.0,0.0,0.0,0.0,0.0,0.0,-2.1734,-2.2676,-2.3874,-2.5415,-2.4911,-2.4342,-2.3877,-2.2817,-2.1061,0.0,0.0,0.0,0.0,0.0,0.0,0.0,0.0,0.0,0.0,0.0,0.0,0.0,0.0,0.0,0.0,0.0,0.0,0.0,0.0,0.0,0.0,0.0,0.0,0.0,0.0,0.0,0.0,0.0,0.0,0.0,0.0,0.0,0.0,0.0,0.0,0.0,0.0,0.0,0.0,-0.9197,-0.9736,-0.9961,0.0,0.0,0.0,0.0,0.0,0.0,-1.3233,-1.3732,0.0,0.0,0.0,0.0,0.0,0.0,0.0,0.0,0.0,0.0,0.0,0.0,0.0,0.0,0.0,0.0,0.0,0.0,0.0,0.0,0.0,0.0,0.0,0.0,0.0,0.0,0.0,0.0,0.0,0.0,0.0,0.0,0.0,0.0,0.0,0.0,0.0,0.0,0.0,0.0,0.0,0.0,0.0,0.0,0.0,0.0,0.0,0.0,0.0,0.0,0.0,0.0,0.0,0.0,0.0,-2.1711,-2.2486,-2.361,-2.5118,-2.425,-2.3586,-2.3251,-2.2215,-2.0407,0.0,0.0,0.0,0.0,0.0,0.0,0.0,0.0,0.0,0.0,0.0,0.0,0.0,0.0,0.0,0.0,0.0,0.0,0.0,0.0,0.0,0.0,0.0,0.0,0.0,0.0,0.0,0.0,0.0,0.0,0.0,0.0,0.0,0.0,0.0,0.0,0.0,0.0,0.0,0.0,0.0,-1.0448,-1.091,-1.1183,0.0,0.0,0.0,0.0,-1.3617,-1.4337,0.0,0.0,0.0,0.0,0.0,0.0,0.0,0.0,0.0,0.0,0.0,0.0,0.0,0.0,0.0,0.0,0.0,0.0,0.0,0.0,0.0,0.0,0.0,0.0,0.0,0.0,0.0,0.0,0.0,0.0,0.0,0.0,0.0,0.0,0.0,0.0,0.0,0.0,0.0,0.0,0.0,0.0,0.0,0.0,0.0,0.0,0.0,0.0,0.0,0.0,0.0,0.0,0.0,0.0,0.0,0.0,-2.163,-2.1867,-2.2734,-2.4219,-2.337,-2.2697,-2.2431,-2.1339,-1.9865,0.0,0.0,0.0,0.0,0.0,0.0,0.0,0.0,0.0,0.0,0.0,0.0,0.0,0.0,0.0,0.0,0.0,0.0,0.0,0.0,0.0,0.0,0.0,0.0,0.0,0.0,0.0,0.0,0.0,0.0,0.0,0.0,0.0,0.0,0.0,0.0,0.0,0.0,0.0,0.0,0.0,-1.0736,-1.151,-1.1819,-1.2288,0.0,0.0,-1.3883,-1.463,-1.5761,0.0,0.0,0.0,0.0,0.0,0.0,0.0,0.0,0.0,0.0,0.0,0.0,0.0,0.0,0.0,0.0,0.0,0.0,0.0,0.0,0.0,0.0,0.0,0.0,0.0,0.0,0.0,0.0,0.0,0.0,0.0,0.0,0.0,0.0,0.0,0.0,0.0,0.0,0.0,0.0,0.0,0.0,0.0,0.0,0.0,0.0,0.0,0.0,0.0,0.0,0.0,0.0,0.0,0.0,0.0,-1.9486,-2.1628,-2.2204,-2.3026,-2.4113,-2.333,-2.2473,-2.1626,-2.062,-1.9421,0.0,0.0,0.0,0.0,0.0,0.0,0.0,0.0,0.0,0.0,0.0,0.0,0.0,0.0,0.0,0.0,0.0,0.0,0.0,0.0,0.0,0.0,0.0,0.0,0.0,0.0,0.0,0.0,0.0,0.0,0.0,0.0,0.0,0.0,0.0,0.0,0.0,0.0,0.0,0.0,0.0,0.0,-1.2027,-1.2466,0.0,0.0,0.0,-1.4988,-1.5115,0.0,0.0,0.0,0.0,0.0,0.0,0.0,0.0,0.0,0.0,0.0,0.0,0.0,0.0,0.0,0.0,0.0,0.0,0.0,0.0,0.0,0.0,0.0,0.0,0.0,0.0,0.0,0.0,0.0,0.0,0.0,0.0,0.0,0.0,0.0,0.0,0.0,0.0,0.0,0.0,0.0,0.0,0.0,0.0,0.0,0.0,0.0,0.0,0.0,0.0,0.0,0.0,0.0,0.0,0.0,0.0,0.0,-2.1304,-2.2222,-2.3065,-2.3824,-2.3046,-2.2055,-2.0891,-2.0304,0.0,0.0,0.0,0.0,0.0,0.0,0.0,0.0,0.0,0.0,0.0,0.0,0.0,0.0,0.0,0.0,0.0,0.0,0.0,0.0,0.0,0.0,0.0,0.0,0.0,0.0,0.0,-0.8227,0.0,0.0,0.0,0.0,0.0,0.0,0.0,0.0,0.0,0.0,0.0,0.0,0.0,0.0,-1.1854,-1.285,-1.3368,-1.3905,0.0,0.0,-1.5898,-1.5736,-1.7018,-1.8106,0.0,0.0,0.0,0.0,0.0,0.0,0.0,0.0,0.0,0.0,0.0,0.0,0.0,0.0,0.0,0.0,0.0,0.0,0.0,0.0,0.0,0.0,0.0,0.0,0.0,0.0,0.0,0.0,0.0,0.0,0.0,0.0,0.0,0.0,0.0,0.0,0.0,0.0,0.0,0.0,0.0,0.0,0.0,0.0,0.0,0.0,0.0,0.0,0.0,0.0,0.0,0.0,0.0,0.0,0.0,-2.0352,-2.132,-2.219,-2.2916,-2.2072,-2.1136,-2.0203,-2.0652,-2.0114,0.0,0.0,0.0,0.0,0.0,0.0,0.0,0.0,0.0,0.0,0.0,0.0,0.0,0.0,0.0,0.0,0.0,0.0,0.0,0.0,0.0,0.0,0.0,0.0,0.0,0.0,0.0,0.0,0.0,0.0,0.0,0.0,0.0,0.0,0.0,0.0,0.0,0.0,0.0,0.0,0.0,-1.285,-1.4212,-1.4882,-1.5431,0.0,0.0,-1.6386,-1.6815,-1.8056,-1.8567,-1.7255,0.0,0.0,0.0,0.0,0.0,0.0,0.0,0.0,0.0,0.0,0.0,0.0,0.0,0.0,0.0,0.0,0.0,0.0,0.0,0.0,0.0,0.0,0.0,0.0,0.0,0.0,0.0,0.0,0.0,0.0,0.0,0.0,0.0,0.0,0.0,0.0,0.0,0.0,0.0,0.0,0.0,0.0,0.0,0.0,0.0,0.0,0.0,0.0,0.0,0.0,0.0,0.0,0.0,-1.8898,-2.1082,-2.1977,-2.2581,-2.2898,-2.3066,-2.2434,-2.0938,-2.1598,-2.1352,0.0,0.0,0.0,0.0,0.0,0.0,0.0,0.0,0.0,0.0,0.0,0.0,0.0,0.0,0.0,0.0,0.0,0.0,0.0,0.0,0.0,0.0,0.0,0.0,0.0,0.0,0.0,0.0,-1.1592,-1.2523,-1.2913,0.0,0.0,0.0,0.0,0.0,0.0,0.0,0.0,0.0,0.0,-1.3273,-1.4659,-1.5191,0.0,0.0,-1.7132,-1.7381,-1.7475,-1.8617,-1.9038,-1.772,-1.7552,0.0,0.0,0.0,0.0,0.0,0.0,0.0,0.0,0.0,0.0,0.0,0.0,0.0,0.0,0.0,0.0,0.0,0.0,0.0,0.0,0.0,0.0,0.0,0.0,0.0,0.0,0.0,0.0,0.0,0.0,0.0,0.0,0.0,0.0,0.0,0.0,0.0,0.0,0.0,0.0,0.0,0.0,0.0,0.0,0.0,0.0,0.0,0.0,0.0,0.0,0.0,0.0,-1.9526,-2.1559,-2.2688,-2.3284,-2.3312,-2.3898,-2.3474,-2.1977,-2.2658,-2.2575,0.0,0.0,0.0,0.0,0.0,0.0,0.0,0.0,0.0,0.0,0.0,0.0,0.0,0.0,0.0,0.0,0.0,0.0,0.0,0.0,0.0,0.0,0.0,0.0,0.0,0.0,0.0,0.0,-1.3017,-1.3888,-1.3654,0.0,0.0,0.0,0.0,0.0,0.0,0.0,0.0,0.0,0.0,-1.4281,-1.5404,-1.5923,-1.6459,-1.7227,-1.7752,-1.8068,-1.8095,-1.8931,-1.9253,-1.8535,0.0,0.0,0.0,0.0,0.0,0.0,0.0,0.0,0.0,0.0,0.0,0.0,0.0,0.0,0.0,0.0,0.0,0.0,0.0,0.0,0.0,0.0,0.0,0.0,0.0,0.0,0.0,0.0,0.0,0.0,-1.4453,0.0,0.0,0.0,0.0,0.0,0.0,0.0,0.0,0.0,0.0,0.0,0.0,0.0,0.0,0.0,0.0,0.0,0.0,0.0,0.0,0.0,0.0,-2.0639,-2.1504,-2.3244,-2.4159,-2.4159,-2.4269,-2.3901,-2.3026,-2.3764,-2.3706,-2.269,0.0,0.0,0.0,0.0,0.0,0.0,0.0,0.0,0.0,0.0,0.0,0.0,0.0,0.0,0.0,0.0,0.0,0.0,0.0,0.0,0.0,0.0,0.0,0.0,0.0,0.0,-1.2865,-1.3647,-1.3943,0.0,0.0,0.0,0.0,0.0,0.0,0.0,0.0,0.0,0.0,-1.5251,-1.6171,-1.6621,-1.7463,-1.7935,-1.776,-1.7962,-1.8252,-1.8731,-1.9003,-1.9228,0.0,0.0,0.0,0.0,0.0,0.0,0.0,0.0,0.0,0.0,0.0,0.0,0.0,0.0,0.0,0.0,0.0,0.0,0.0,0.0,0.0,0.0,0.0,0.0,0.0,0.0,0.0,-1.7272,-1.6993,0.0,0.0,0.0,0.0,0.0,0.0,0.0,0.0,0.0,0.0,0.0,-2.0939,-2.0505,0.0,0.0,0.0,0.0,0.0,0.0,0.0,0.0,0.0,0.0,0.0,0.0,-2.0949,-2.2352,-2.3543,-2.4149,-2.4226,-2.4746,-2.4648,-2.3851,-2.4585,-2.4553,-2.3583,0.0,0.0,0.0,0.0,0.0,0.0,0.0,0.0,0.0,0.0,0.0,0.0,0.0,0.0,0.0,0.0,0.0,0.0,0.0,0.0,0.0,0.0,0.0,0.0,0.0,-1.4128,0.0,0.0,0.0,0.0,0.0,0.0,0.0,0.0,0.0,0.0,0.0,-1.4764,-1.5828,-1.6283,-1.693,-1.8055,-1.8494,-1.8823,0.0,0.0,0.0,0.0,0.0,0.0,0.0,0.0,0.0,0.0,0.0,0.0,0.0,0.0,-2.0889,-1.891,-1.8532,-1.8538,-1.8608,0.0,0.0,0.0,0.0,0.0,0.0,0.0,0.0,0.0,0.0,0.0,0.0,0.0,0.0,-1.8896,0.0,-1.8933,0.0,0.0,0.0,0.0,0.0,0.0,0.0,0.0,-2.0918,-2.2014,-2.3088,-2.2407,-2.2173,0.0,-2.1349,-2.0285,0.0,0.0,0.0,0.0,0.0,0.0,0.0,0.0,-2.1769,-2.3189,-2.4072,-2.4572,-2.4668,-2.5156,-2.5184,-2.4695,-2.512,-2.5072,-2.4476,-2.3122,-2.1971,0.0,0.0,0.0,0.0,0.0,0.0,0.0,0.0,0.0,0.0,0.0,0.0,0.0,0.0,0.0,0.0,0.0,0.0,0.0,0.0,0.0,0.0,0.0,-1.5342,0.0,0.0,0.0,0.0,0.0,0.0,0.0,0.0,0.0,-1.5577,-1.5697,-1.6108,-1.6951,-1.7312,-1.7924,-1.9112,0.0,0.0,0.0,0.0,0.0,0.0,0.0,-2.1151,-2.1439,-2.1943,-2.2573,-2.3456,-2.4413,-2.5026,-2.4837,0.0,0.0,-2.1684,-2.1194,-2.1126,-2.0942,-1.9375,-1.8552,-2.0178,-2.2747,-2.4069,0.0,0.0,0.0,0.0,0.0,0.0,0.0,0.0,-2.0431,-2.0421,0.0,-2.0492,0.0,0.0,0.0,0.0,0.0,-2.0,0.0,0.0,-2.3331,-2.4695,-2.4893,-2.42,-2.4239,-2.4841,-2.3288,-2.2514,-2.2432,-2.1101,0.0,0.0,0.0,0.0,0.0,0.0,-2.3141,-2.3956,-2.4822,-2.537,-2.5476,-2.5512,-2.5496,-2.5469,-2.5371,-2.5293,-2.5264,-2.4524,-2.3688,-2.2738,-2.1129,0.0,0.0,0.0,0.0,0.0,0.0,0.0,0.0,0.0,0.0,0.0,0.0,0.0,0.0,0.0,0.0,0.0,0.0,0.0,0.0,-1.5985,0.0,0.0,0.0,0.0,0.0,0.0,0.0,0.0,0.0,0.0,-1.6523,-1.6955,-1.7385,-1.746,0.0,0.0,0.0,0.0,-2.1038,-2.1669,-2.194,-2.2141,-2.23,-2.2619,-2.3095,-2.3761,0.0,0.0,-2.5594,-2.6219,-2.6489,-2.583,-2.6319,-2.6082,-2.3951,-2.3579,-2.3388,-2.2802,-2.2529,-2.2153,-2.1799,-2.5313,-2.7735,-2.4095,0.0,0.0,0.0,0.0,-2.1513,-2.2109,-2.2902,-2.3834,-2.4141,-2.3915,-2.3731,0.0,0.0,0.0,0.0,0.0,0.0,-2.2388,-2.4026,-2.4948,-2.5703,-2.6332,-2.6389,-2.6454,-2.6535,-2.6376,-2.5906,-2.5198,-2.491,-2.386,-2.2111,0.0,0.0,0.0,0.0,-2.3686,-2.3839,-2.4781,-2.537,-2.5505,-2.5506,-2.5506,-2.5506,-2.5389,-2.5313,-2.5313,-2.5082,-2.4553,-2.366,-2.316,0.0,0.0,0.0,0.0,0.0,0.0,0.0,0.0,0.0,0.0,0.0,0.0,0.0,0.0,0.0,0.0,0.0,0.0,0.0,-1.7647,-1.7794,-1.7728,0.0,0.0,0.0,0.0,0.0,0.0,0.0,0.0,0.0,-1.915,-1.8631,-1.846,0.0,0.0,-2.0312,-2.1237,-2.2109,-2.2802,-2.3142,-2.3431,0.0,-2.3147,-2.3259,-2.3479,-2.3775,-2.5092,-2.6319,-2.7011,-2.7737,-2.8264,-2.801,-2.818,-2.7926,-2.686,-2.6556,-2.6437,-2.6235,-2.5832,-2.5629,-2.6167,-2.7794,-2.8629,-2.7411,-2.6067,-2.5003,-2.4174,-2.359,-2.3876,-2.4487,-2.5301,-2.5911,-2.6257,-2.6352,-2.6008,-2.5175,-2.3953,-2.3157,0.0,0.0,0.0,-2.4504,-2.6505,-2.6284,-2.6655,-2.749,-2.7532,-2.7644,-2.785,-2.7792,-2.726,-2.631,-2.6416,-2.558,-2.3869,0.0,0.0,-2.3167,-2.3716,-2.4128,-2.4377,-2.5003,-2.539,-2.5553,-2.552,-2.5523,-2.5515,-2.539,-2.5332,-2.5351,-2.537,-2.5313,-2.512,-2.4774,-2.388,0.0,0.0,0.0,0.0,0.0,0.0,0.0,0.0,0.0,0.0,0.0,-1.6676,-1.6882,0.0,0.0,0.0,-1.8269,-1.8778,-1.9556,-1.9213,0.0,0.0,0.0,0.0,0.0,0.0,0.0,-1.8972,-1.9677,-2.0351,-2.0774,-2.0425,-2.0197,-2.0483,-2.0911,-2.1546,-2.2501,0.0,-2.4024,-2.4483,-2.4724,-2.4745,-2.4463,-2.4572,-2.4726,-2.4946,-2.6067,-2.6993,-2.7282,-2.8212,-2.8839,-2.8602,-2.8518,-2.8366,-2.7874,-2.7789,-2.7706,-2.7452,-2.753,-2.7861,-2.8426,-2.8805,-2.8721,-3.0132,-2.998,-2.7483,-2.6212,-2.5857,-2.5911,-2.6432,-2.7195,-2.7251,-2.7443,-2.7679,-2.7517,-2.7153,-2.6555,-2.5829,0.0,-2.7747,-2.6698,-2.7042,-2.8465,-2.768,-2.7845,-2.8728,-2.8189,-2.8286,-2.9006,-2.8204,-2.7338,-2.6472,-2.6492,-2.6186,-2.5495,-2.4716,-2.4265,-2.4178,-2.413,-2.4533,-2.5357,-2.5466,-2.5601,-2.5813,-2.5761,-2.5706,-2.5736,-2.5582,-2.5505,-2.5523,-2.5572,-2.5967,-2.6708,-2.615,-2.5697,-2.5452,0.0,0.0,0.0,0.0,0.0,0.0,0.0,0.0,0.0,0.0,0.0,0.0,0.0,0.0,0.0,-2.0467,0.0,-2.1373,-2.0448,0.0,0.0,0.0,-1.9497,-2.0289,-2.0526,-2.0552,-2.0439,0.0,0.0,-2.167,-2.2187,-2.2393,-2.2013,-2.2309,-2.282,-2.3575,-2.4169,-2.4827,-2.5607,-2.5758,-2.5848,-2.5898,-2.6092,-2.625,-2.6489,-2.7266,-2.7402,-2.6945,-2.7757,-2.8383,-2.7858,-2.7688,-2.7688,-2.7688,-2.7654,-2.7485,-2.6843,-2.7909,-2.9011,-2.9217,-2.9104,-2.8568,-3.1382,-3.1878,-3.0594,-2.9654,-2.9026,-2.9289,-2.9644,-3.0034,-3.0189,-3.0285,-3.0304,-2.9168,-2.861,-2.8461,-2.8766,-2.9464,-3.038,-2.9964,-3.0279,-3.1204,-3.1035,-3.1091,-3.1277,-3.07,-3.0524,-3.0653,-3.0049,-2.8962,-2.7611,-2.813,-2.7723,-2.6397,-2.6764,-2.6271,-2.4919,-2.5001,-2.5102,-2.5177,-2.6025,-2.6849,-2.7547,-2.7571,-2.7558,-2.7538,-2.6853,-2.6478,-2.6476,-2.6476,-2.6578,-2.6811,-2.7873,-2.7861,-2.6439,-2.46,0.0,0.0,0.0,0.0,0.0,0.0,0.0,0.0,0.0,-1.825,-1.9668,0.0,-2.0627,0.0,-2.1956,-2.2332,-2.2483,-2.2476,0.0,0.0,-2.2583,-2.2449,-2.2625,-2.3056,-2.2886,-2.1739,-2.2729,-2.3406,-2.3005,-2.3417,-2.393,-2.4286,-2.4127,-2.4056,-2.443,-2.5154,-2.5799,-2.6087,-2.6297,-2.6487,-2.6521,-2.6556,-2.6624,-2.6708,-2.686,-2.6894,-2.6725,-2.6979,-2.7148,-2.6996,-2.6962,-2.6962,-2.6979,-2.6962,-2.6928,-2.6826,-2.7909,-2.9372,-3.0411,-2.9773,-2.852,-3.179,-3.2187,-3.1981,-3.19,-3.1856,-3.1108,-3.1129,-3.1732,-3.1848,-3.1923,-3.1952,-3.1142,-3.0775,-3.0814,-3.1181,-3.1793,-3.2513,-3.1984,-3.2134,-3.2893,-3.2574,-3.2422,-3.2403,-3.1817,-3.1761,-3.2114,-3.1424,-3.0379,-2.9133,-2.9506,-2.8871,-2.7201,-2.7687,-2.7418,-2.6431,-2.6502,-2.6515,-2.6438,-2.7114,-2.7725,-2.8237,-2.8209,-2.8016,-2.7629,-2.7116,-2.6657,-2.6269,-2.6296,-2.649,-2.6887,-2.7807,-2.8023,-2.7348,-2.571,-2.4147,0.0,0.0,0.0,0.0,0.0,0.0,0.0,0.0,0.0,0.0,0.0,-2.2776,-2.2778,-2.326,-2.3543,-2.3498,-2.3638,-2.4049,-2.4743,-2.4341,-2.4365,-2.5435,-2.5324,-2.4986,-2.4467,-2.5102,-2.5365,-2.4786,-2.5185,-2.5631,-2.6,-2.5704,-2.5403,-2.5365,-2.5907,-2.6401,-2.6453,-2.659,-2.6708,-2.6708,-2.6708,-2.6708,-2.6708,-2.6708,-2.6708,-2.6708,-2.6708,-2.6708,-2.6708,-2.6708,-2.6708,-2.6708,-2.6708,-2.6708,-2.681,-2.7368,-2.825,-2.9,-2.8574,-2.7653,-3.2141,-3.2244,-3.2613,-3.3422,-3.4205,-3.2235,-3.2015,-3.2955,-3.286,-3.2833,-3.2891,-3.3026,-3.3064,-3.3083,-3.3179,-3.366,-3.4295,-3.3393,-3.3372,-3.3983,-3.3382,-3.3073,-3.3058,-3.25,-3.2636,-3.3299,-3.2482,-3.1569,-3.0679,-3.0791,-2.996,-2.8303,-2.8429,-2.8433,-2.8328,-2.8336,-2.8324,-2.8294,-2.8411,-2.8516,-2.8633,-2.8574,-2.8184,-2.7441,-2.7185,-2.674,-2.5995,-2.5898,-2.6208,-2.6954,-2.7085,-2.7483,-2.8163,-2.6621,-2.5348,0.0,-2.2947,0.0,0.0,0.0,0.0,0.0,0.0,0.0,0.0,-2.4976,-2.5014,-2.4305,-2.4482,-2.4613,-2.4456,-2.456,-2.5196,-2.647,-2.5789,-2.6003,-2.7954,-2.7326,-2.692,-2.7632,-2.7624,-2.7365,-2.687,-2.7115,-2.7325,-2.7313,-2.7171,-2.6891,-2.6509,-2.6587,-2.6657,-2.6708,-2.6708,-2.6708,-2.6708,-2.6708,-2.6708,-2.6708,-2.6708,-2.6708,-2.6708,-2.6708,-2.6708,-2.6708,-2.6708,-2.6708,-2.6708,-2.6708,-2.6708,-2.6708,-2.6776,-2.6843,-2.6891,-2.6907,-2.6721,-3.4193,-3.4737,-3.4134,-3.4422,-3.5147,-3.4054,-3.4112,-3.4894,-3.4197,-3.3519,-3.2968,-3.3641,-3.3949,-3.4007,-3.4699,-3.5103,-3.5257,-3.5114,-3.5105,-3.5254,-3.5163,-3.5128,-3.5094,-3.4353,-3.4109,-3.4187,-3.3353,-3.2459,-3.1569,-3.2316,-3.1773,-3.009,-3.0779,-3.082,-3.0159,0.0,0.0,0.0,-2.9355,-2.9687,-3.0371,-3.0391,-3.0312,-3.0098,-2.8783,0.0,-2.7773,-2.7105,-2.6837,-2.7023,-2.7679,0.0,0.0,0.0,0.0,0.0,0.0,0.0,0.0,0.0,0.0,0.0,-2.5201,-2.5298,-2.5409,-2.5724,-2.5822,-2.5582,-2.5768,-2.591,-2.5837,-2.6621,-2.7231,-2.7518,-2.7938,-2.8356,-2.8814,-2.8639,-2.8686,-2.9185,-2.8925,-2.8787,-2.8945,-2.8851,-2.8645,-2.8592,-2.86,-2.8516,-2.8426,-2.7417,-2.6742,-2.6708,-2.6708,-2.6708,-2.6708,-2.6708,-2.6708,-2.6708,-2.6708,-2.6708,-2.6708,-2.6708,-2.6708,-2.6725,-2.6708,-2.6725,-2.6725,-2.6708,-2.6776,-2.6708,-2.6708,-2.6708,-2.6708,-2.6691,-2.6725,-3.4526,0.0,-3.4853,-3.5103,0.0,-3.5026,-3.5103,-3.5488,-3.5045,-3.4603,-3.4218,-3.4661,-3.4872,-3.493,-3.5353,-3.5565,-3.5603,-3.5641,-3.5637,-3.5658,-3.5759,-3.5791,-3.5776,-3.4987,-3.4827,-3.5197,-3.4355,-3.3679,-3.3219,-3.3652,-3.2974,-3.121,-3.1715,-3.1513,-3.0683,-3.0739,-3.0626,-3.0254,-3.0234,-3.0449,-3.0898,-3.0918,-3.0703,-3.0254,-2.9394,0.0,0.0,0.0,0.0,0.0,0.0,0.0,0.0,-2.7834,0.0,-2.7853,-2.7082,-2.7129,-2.8321,-2.803,-2.8068,-2.8771,-2.8485,-2.8017,-2.7414,-2.7301,-2.7554,-2.8278,-2.7765,-2.7473,-2.7872,-2.8186,-2.8535,-2.889,-2.8975,-2.9245,-2.9888,-2.9736,-2.979,-3.0285,-3.0213,-3.0078,-2.9895,-2.9705,-2.955,-2.9516,-2.9194,-2.9144,-2.933,-2.823,-2.7165,-2.6759,-2.6708,-2.6708,-2.6708,-2.6708,-2.6708,-2.6708,-2.6708,-2.6708,-2.6708,-2.6708,-2.6793,-2.7131,-2.7249,-2.7249,-2.7283,-2.7554,-2.7588,-2.6928,-2.6979,-2.7063,-2.681,-2.6708,-2.6708,-3.4634,-3.4507,-3.5372,-3.5705,-3.5738,-3.5892,-3.5949,-3.593,0.0,0.0,0.0,-3.5911,-3.593,-3.5848,-3.5843,-3.5791,-3.5714,-3.5707,-3.5736,-3.576,-3.6017,-3.6046,-3.5879,-3.5386,-3.5442,-3.5918,-3.5254,-3.4883,-3.4844,-3.4843,-3.4019,-3.2503,-3.229,-3.1739,-3.0791,-3.0859,-3.0912,-3.0918,-3.0918,-3.0918,-3.0918,-3.0918,-3.0566,-2.9844,-2.9668,-2.9258,-2.8574,-2.8379,-2.8266,-2.8191,-2.8194,-2.8272,-2.844,-2.8385,-2.8492,-2.8769,-2.8786,-2.9717,-3.1737,-3.1225,-3.1322,-3.2457,-3.1506,-3.053,-2.9706,-2.9205,-2.95,-3.0885,-2.9692,-2.9074,-2.9652,-2.9471,-2.9508,-3.004,-2.9668,-2.9888,-3.0954,-3.0683,-3.0514,-3.1072,-3.114,-3.0987,-3.0412,-3.0311,-3.0311,-3.0243,-2.9837,-2.9482,-2.9803,-2.8907,-2.7841,-2.7368,-2.7317,-2.7165,-2.7131,-2.7199,-2.6995,-2.6758,-2.6927,-2.7097,-2.7097,-2.7097,-2.7351,-2.7926,-2.8027,-2.8027,-2.8061,-2.8467,-2.8554,-2.7351,-2.7571,-2.7841,-2.7283,-2.7097,-2.7063,-3.6051,-3.5391,-3.6199,-3.6526,-3.6603,-3.7334,-3.7661,-3.7584,-3.6873,-3.6584,-3.6747,-3.7497,-3.7439,-3.6799,-3.6813,-3.6394,-3.571,-3.584,-3.588,-3.5919,-3.6737,-3.6665,-3.5951,-3.6555,-3.6511,-3.5937,-3.5781,-3.5723,-3.5723,-3.5776,-3.5244,-3.4258,-3.3547,-3.2422,-3.0987,-3.0889,-3.0914,-3.0918,-3.0918,-3.0918,-3.0918,-3.0918,-3.0859,-3.0684,-3.0019,-2.9551,-2.9414,-2.873,-2.8268,-2.8196,-2.8148,-2.8722,-3.0047,-3.0142,-3.0736,-3.2057,-3.2179,-3.2372,-3.2718,-3.2602,-3.2455,-3.2257,-3.2072,-3.1902,-3.1769,-3.1283,-3.1096,-3.1309,-3.0849,-3.0391,-3.0172,-3.0331,-3.0329,-3.02,-3.0565,-3.0987,-3.119,-3.1123,-3.1089,-3.1224,-3.119,-3.1224,-3.1157,-3.1072,-3.1055,-3.1055,-3.0903,-3.07,-3.0142,-2.9381,-2.8839,-2.8687,-2.8689,-2.8689,-2.8501,-2.8636,-2.8073,-2.6911,-2.7799,-2.8554,-2.8674,-2.8554,-2.8621,-2.8789,-2.8822,-2.8822,-2.8859,-2.889,-2.8873,-2.8518,-2.8569,-2.8653,-2.8383,-2.8384,-2.8078,-3.7257,-3.6911,-3.7257,-3.7411,-3.743,-3.7853,-3.8007,-3.8027,-3.8137,-3.7945,-3.766,-3.8075,-3.8075,-3.7783,-3.7773,-3.7588,-3.7276,-3.7342,-3.7334,-3.729,-3.7696,-3.7637,-3.7276,-3.7598,-3.7344,-3.6526,-3.6509,-3.6246,-3.5828,-3.5894,-3.5488,-3.459,-3.3789,-3.2793,-3.168,-3.1601,-3.1387,-3.0918,-3.0918,-3.0918,-3.0898,-3.0837,-3.1047,-3.1562,-3.1133,-3.1152,-3.1641,-3.1252,-3.0982,-3.0918,-3.082,-3.1083,-3.1746,-3.1792,-3.2127,-3.2833,-3.2891,-3.3103,-3.3583,-3.3325,-3.3358,-3.3711,-3.2929,-3.2676,-3.324,-3.2117,-3.1751,-3.2559,-3.1983,-3.1505,-3.1434,-3.1358,-3.1143,-3.0722,-3.1021,-3.119,-3.1241,-3.1579,-3.1782,-3.1782,-3.1782,-3.1952,-3.2357,-3.2036,-3.1985,-3.2256,-3.2087,-3.1512,-3.0818,-3.0395,-2.9854,-2.9197,-2.9011,-2.9011,-2.9028,-2.9011,-2.8665,-2.8015,-2.8511,-2.9321,-2.9839,-2.9666,-2.9248,-2.9499,-2.96,-2.96,-2.9583,-2.9939,-2.9668,-2.8518,-2.8738,-2.8704,-2.8061,-2.774,-2.7757,-3.8097,-3.8007,-3.8219,-3.8392,-3.8565,-3.8565,-3.8565,-3.8623,-3.9369,-3.9369,-3.8846,-3.8879,-3.884,-3.8741,-3.8741,-3.8647,-3.8576,-3.8541,-3.8493,-3.8395,-3.8569,-3.8524,-3.8316,-3.844,-3.808,-3.7301,-3.7066,-3.6723,-3.6309,-3.6197,-3.573,-3.4922,-3.4297,-3.3476,-3.248,-3.248,-3.207,-3.1328,-3.1406,-3.1403,-3.1253,-3.1264,-3.166,-3.2329,-3.2324,-3.2624,-3.3305,-3.3304,-3.3233,-3.3167,-3.3056,-3.3058,-3.3179,-3.3179,-3.3276,-3.3449,-3.3487,-3.3853,-3.4628,-3.4325,-3.4415,-3.5152,-3.3825,-3.3315,-3.3846,-3.2828,-3.243,-3.3468,-3.2939,-3.2457,-3.2388,-3.2161,-3.1839,-3.1494,-3.1427,-3.1579,-3.1732,-3.2205,-3.2527,-3.2527,-3.2544,-3.2763,-3.3136,-3.2899,-3.2763,-3.3119,-3.2763,-3.2053,-3.1546,-3.1343,-3.0666,-2.9922,-2.9482,-2.955,-2.9482,-2.9533,-2.9533,-2.9499,-2.9533,-3.0051,-3.066,-3.0139,-2.979,-3.0209,-3.0159,-3.0057,-3.0125,-3.0277,-2.9956,-2.8822,-2.8839,-2.8619,-2.774,-2.7486,-2.7402,-3.845,-3.8146,-3.8854,-3.9604,-4.0181,-4.0219,-4.02,-4.0239,-4.0562,-4.0642,-4.047,-4.07,-4.0362,-3.9813,-3.9761,-3.9314,-3.855,-3.8411,-3.8426,-3.8481,-3.9135,-3.9008,-3.8334,-3.8941,-3.8849,-3.8007,-3.734,-3.7358,-3.7835,-3.7218,-3.6528,-3.5879,-3.5762,-3.4941,-3.3516,-3.332,-3.3008,-3.2461,-3.291,-3.2857,-3.2331,-3.2781,-3.3077,-3.3089,-3.3091,-3.3106,-3.3323,-3.3209,-3.316,-3.3024,-3.3103,-3.3359,-3.4007,-3.4103,-3.4449,-3.518,-3.5276,-3.5622,-3.6339,-3.6195,-3.5931,-3.5756,-3.4753,-3.4025,-3.395,-3.3723,-3.3605,-3.3817,-3.3698,-3.3259,-3.2616,-3.2488,-3.2404,-3.2207,-3.2188,-3.2442,-3.2983,-3.3254,-3.3305,-3.3305,-3.3305,-3.3339,-3.3508,-3.3457,-3.3389,-3.3491,-3.2899,-3.2324,-3.2053,-3.1546,-3.1173,-3.0954,-3.0937,-3.0886,-3.0852,-3.097,-3.0784,-3.0852,-3.0937,-3.0992,-3.1031,-3.1065,-3.1021,-3.0734,-3.0565,-3.0226,-3.004,-2.9719,-2.9533,-2.9397,-2.9127,-2.8805,-2.8774,-2.8588,-2.8264,-3.9964,-3.9527,-3.9854,-4.0181,-4.0469,-4.0489,-4.0489,-4.0508,-4.0716,-4.081,-4.0889,-4.1464,-4.1318,-4.0557,-4.0474,-4.0201,-3.9835,-3.9807,-3.9774,-3.9741,-4.0087,-3.9988,-3.9604,-3.9869,-3.9619,-3.8854,-3.8469,-3.8257,-3.8084,-3.78,-3.7514,-3.7342,-3.7342,-3.6534,-3.4999,-3.4803,-3.435,-3.3538,-3.3877,-3.41,-3.4148,-3.3574,-3.3473,-3.3904,-3.3878,-3.4129,-3.4603,-3.4639,-3.4832,-3.5243,-3.5243,-3.5551,-3.6392,-3.6449,-3.6584,-3.6969,-3.6988,-3.7123,-3.745,-3.7031,-3.6725,-3.6602,-3.5876,-3.5395,-3.5303,-3.5275,-3.5154,-3.4811,-3.437,-3.3746,-3.2967,-3.3192,-3.3294,-3.3029,-3.2949,-3.3085,-3.3339,-3.3795,-3.4049,-3.4049,-3.4049,-3.4235,-3.459,-3.4709,-3.4523,-3.41,-3.3406,-3.2848,-3.2374,-3.1664,-3.1241,-3.119,-3.119,-3.119,-3.119,-3.119,-3.119,-3.119,-3.119,-3.119,-3.123,-3.119,-3.1173,-3.119,-3.0852,-3.0666,-3.0784,-3.0514,-3.026,-2.9753,-2.8383,-2.7621,-2.7638,-2.7994,-2.7723,-4.0978,-4.0531,-4.0489,-4.0489,-4.0489,-4.0489,-4.0489,-4.0566,-4.0947,-4.1158,-4.124,-4.2166,-4.2203,-4.1566,-4.1417,-4.1284,-4.1128,-4.1012,-4.0982,-4.0969,-4.0793,-4.055,-4.0408,-4.0473,-4.015,-3.9599,-3.9342,-3.8935,-3.843,-3.8719,-3.8749,-3.8636,-3.8636,-3.7969,-3.6689,-3.6456,-3.5921,-3.5027,-3.5078,-3.5291,-3.5361,-3.4428,-3.4159,-3.471,-3.4699,-3.4968,-3.5622,-3.5815,-3.618,-3.6801,-3.6954,-3.7353,-3.793,-3.8007,-3.8007,-3.8012,-3.8143,-3.8207,-3.8223,-3.7658,-3.7318,-3.7272,-3.6719,-3.6285,-3.6256,-3.6179,-3.5836,-3.5328,-3.486,-3.4235,-3.3552,-3.3796,-3.3957,-3.3727,-3.3711,-3.3761,-3.4049,-3.4523,-3.481,-3.4793,-3.4793,-3.4979,-3.547,-3.5554,-3.5318,-3.4844,-3.4167,-3.3558,-3.2882,-3.2188,-3.1579,-3.1715,-3.1512,-3.119,-3.119,-3.1312,-3.1312,-3.1411,-3.1449,-3.16,-3.1428,-3.1389,-3.1269,-3.1291,-3.1094,-3.0801,-3.0463,-3.0497,-3.0023,-2.8738,-2.7706,-2.7131,-2.7317,-2.7621,-2.774,-4.0996,-4.0546,-4.0489,-4.0508,-4.0508,-4.0489,-4.0508,-4.0642,-4.1559,-4.2022,-4.2149,-4.2982,-4.3142,-4.2775,-4.2745,-4.2481,-4.1882,-4.1513,-4.1418,-4.1462,-4.0877,-4.0375,-4.0158,-4.0372,-4.0353,-3.9986,-3.9717,-3.9411,-3.9296,-4.0081,-4.0162,-3.9427,-3.9461,-3.9061,-3.8182,-3.7987,-3.7696,-3.6749,-3.6671,-3.6452,-3.5757,-3.5565,-3.5474,-3.5532,-3.5468,-3.5493,-3.568,-3.6295,-3.6699,-3.6757,-3.7526,-3.7988,-3.8046,-3.8065,-3.8123,-3.8146,-3.8514,-3.8785,-3.8709,-3.8229,-3.7884,-3.7757,-3.7036,-3.6358,-3.6494,-3.6121,-3.5648,-3.4959,-3.5139,-3.4861,-3.4224,-3.4197,-3.4312,-3.444,-3.4438,-3.4759,-3.5385,-3.5368,-3.5554,-3.552,-3.547,-3.5504,-3.5622,-3.5639,-3.5605,-3.5385,-3.4878,-3.432,-3.4049,-3.3068,-3.2628,-3.2696,-3.2188,-3.1241,-3.128,-3.1449,-3.166,-3.177,-3.1878,-3.2196,-3.2003,-3.1804,-3.1562,-3.1215,-3.0709,-3.0277,-2.9939,-2.9296,-2.845,-2.7824,-2.8061,-2.7791,-2.7774,-2.7995,-2.8164,-4.18,-4.1277,-4.0739,-4.0796,-4.1258,-4.0739,-4.0796,-4.1354,-4.1882,-4.2421,-4.3039,-4.3853,-4.3732,-4.2949,-4.3667,-4.2986,-4.1383,-4.1586,-4.1291,-4.0553,-4.0807,-4.0692,-4.0234,-4.091,-4.0874,-4.0253,-4.066,-4.0604,-4.0123,-4.0427,-4.0431,-4.0181,-4.0162,-3.9531,-3.8411,-3.8119,-3.7726,-3.7021,-3.6853,-3.6892,-3.7084,-3.7142,-3.7123,-3.7065,-3.6546,-3.6546,-3.7084,-3.7392,-3.7777,-3.8315,-3.8681,-3.9065,-3.9527,-3.9585,-3.9604,-3.9608,-3.9623,-3.9621,-3.9565,-3.9011,-3.8652,-3.8625,-3.8172,-3.779,-3.7766,-3.7362,-3.6823,-3.6395,-3.6038,-3.5721,-3.5241,-3.5053,-3.5069,-3.5193,-3.5216,-3.5284,-3.5537,-3.5639,-3.5639,-3.5639,-3.5639,-3.5639,-3.5594,-3.5639,-3.5639,-3.5554,-3.4962,-3.459,-3.4353,-3.3609,-3.3136,-3.3271,-3.3,-3.2611,-3.2611,-3.2042,-3.1825,-3.1915,-3.2057,-3.2162,-3.2021,-3.1914,-3.1714,-3.1418,-3.0734,-3.0247,-3.0044,-2.9533,-2.8433,-2.8636,-2.8789,-2.8383,-2.8518,-2.8876,-2.9011,-4.2619,-4.2236,-4.1697,-4.1774,-4.2213,-4.1694,-4.1732,-4.2294,-4.2784,-4.3288,-4.3864,-4.4694,-4.4549,-4.3876,-4.4442,-4.3661,-4.1744,-4.1889,-4.1387,-4.0397,-4.0826,-4.0711,-4.0368,-4.1274,-4.1219,-4.0387,-4.0967,-4.1181,-4.0912,-4.0623,-4.0642,-4.0912,-4.0642,-3.9969,-3.9027,-3.8834,-3.843,-3.7815,-3.7603,-3.7757,-3.8007,-3.8007,-3.8161,-3.8296,-3.7853,-3.7661,-3.8007,-3.8277,-3.8661,-3.9219,-3.9527,-3.9931,-4.0412,-4.0489,-4.0457,-4.0356,-4.008,-3.9873,-3.9731,-3.9275,-3.8971,-3.8943,-3.8815,-3.8707,-3.8658,-3.8083,-3.7542,-3.7135,-3.6522,-3.5985,-3.5711,-3.5605,-3.5639,-3.5639,-3.5639,-3.5639,-3.5639,-3.5639,-3.5639,-3.5628,-3.5585,-3.5631,-3.5616,-3.5631,-3.5614,-3.5628,-3.5148,-3.4878,-3.4759,-3.4252,-3.3897,-3.3998,-3.366,-3.3508,-3.3507,-3.3134,-3.2715,-3.2756,-3.2634,-3.2529,-3.2352,-3.2179,-3.1915,-3.1573,-3.1127,-3.0619,-3.0116,-2.9671,-2.9617,-2.977,-2.9313,-2.8755,-2.9194,-2.9841,-2.9909,-4.3412,-4.337,-4.3384,-4.3281,-4.3327,-4.3207,-4.3258,-4.3374,-4.4279,-4.4545,-4.4588,-4.5429,-4.5407,-4.5113,-4.4938,-4.4345,-4.3188,-4.2491,-4.193,-4.1471,-4.0982,-4.0534,-4.0311,-4.1259,-4.1316,-4.0406,-4.0509,-4.105,-4.1739,-4.1162,-4.1143,-4.1546,-4.1085,-4.0681,-4.0469,-4.0354,-4.0027,-3.9373,-3.9142,-3.8854,-3.8161,-3.8219,-3.8584,-3.92,-3.9204,-3.8823,-3.8166,-3.8892,-3.9335,-3.9431,-4.0046,-4.045,-4.0489,-4.0566,-4.0427,-4.0158,-3.9813,-3.9513,-3.9234,-3.9061,-3.9007,-3.8879,-3.8762,-3.8786,-3.8483,-3.7791,-3.7228,-3.6999,-3.6291,-3.5622,-3.5622,-3.5639,-3.5639,-3.5639,-3.5639,-3.5639,-3.5639,-3.5639,-3.5611,-3.5638,-3.5668,-3.5658,-3.5643,-3.588,-3.5935,-3.579,-3.569,-3.5554,-3.5436,-3.4895,-3.4878,-3.5047,-3.4624,-3.415,-3.4219,-3.4264,-3.3946,-3.3723,-3.3546,-3.3383,-3.3105,-3.2894,-3.2486,-3.2074,-3.1407,-3.0864,-3.0387,-2.9972,-2.9841,-2.982,-2.9364,-2.9381,-2.9922,-3.0501,-3.0755,-4.4286,-4.4219,-4.3645,-4.3771,-4.4178,-4.3665,-4.3694,-4.4239,-4.4637,-4.4882,-4.5124,-4.536,-4.5249,-4.4903,-4.477,-4.4369,-4.3646,-4.3323,-4.2506,-4.1487,-4.1666,-4.1495,-4.1093,-4.1323,-4.159,-4.174,-4.1635,-4.1952,-4.2497,-4.2374,-4.245,-4.2566,-4.2412,-4.197,-4.1412,-4.1373,-4.0969,-4.0219,-4.0123,-3.995,-3.9738,-3.97,-3.9835,-4.005,-3.9957,-3.9697,-3.9487,-3.989,-4.0104,-4.0123,-4.0354,-4.0489,-4.0604,-4.1062,-4.0965,-4.0253,-4.0328,-4.0282,-4.0012,-4.0159,-4.0024,-3.9662,-3.9533,-3.9026,-3.8241,-3.7578,-3.7055,-3.6701,-3.6028,-3.5639,-3.5639,-3.5639,-3.5656,-3.5639,-3.5639,-3.5594,-3.5599,-3.5628,-3.5631,-3.5688,-3.61,-3.6463,-3.6652,-3.6887,-3.6846,-3.6477,-3.6417,-3.6299,-3.5757,-3.5571,-3.5301,-3.547,-3.5013,-3.4895,-3.506,-3.5156,-3.4985,-3.4519,-3.4287,-3.414,-3.387,-3.3508,-3.3084,-3.2705,-3.1968,-3.1341,-3.0834,-3.0585,-3.056,-3.051,-3.0547,-3.0662,-3.084,-3.1048,-3.1261,-4.5289,-4.5236,-4.4709,-4.4753,-4.5154,-4.4624,-4.4589,-4.4902,-4.4948,-4.5034,-4.5086,-4.5084,-4.4926,-4.4718,-4.4732,-4.4592,-4.4312,-4.4399,-4.3633,-4.2271,-4.2029,-4.2106,-4.1934,-4.1972,-4.2412,-4.2986,-4.2711,-4.285,-4.3492,-4.3258,-4.3258,-4.347,-4.3258,-4.2835,-4.2316,-4.2242,-4.1802,-4.0948,-4.0797,-4.0609,-4.0233,-4.0157,-4.0175,-4.0177,-4.0269,-4.0357,-4.0376,-4.0787,-4.0903,-4.0768,-4.0976,-4.1221,-4.1295,-4.1745,-4.1677,-4.1095,-4.0967,-4.0947,-4.07,-4.0817,-4.0924,-4.0451,-4.0141,-3.954,-3.8508,-3.7769,-3.7143,-3.6832,-3.6385,-3.6045,-3.6062,-3.6062,-3.5943,-3.5639,-3.5639,-3.5605,-3.5635,-3.5891,-3.586,-3.5959,-3.6506,-3.7336,-3.8101,-3.7753,-3.7732,-3.7287,-3.7195,-3.711,-3.6603,-3.6518,-3.6434,-3.6315,-3.6129,-3.6045,-3.5977,-3.5973,-3.5916,-3.5451,-3.4941,-3.4801,-3.459,-3.4184,-3.3766,-3.3734,-3.3268,-3.2716,-3.2213,-3.2004,-3.1932,-3.1852,-3.1685,-3.1482,-3.1433,-3.1511,-3.1648,-4.6268,-4.6289,-4.6249,-4.6066,-4.6008,-4.5899,-4.5587,-4.5331,-4.5263,-4.5013,-4.4669,-4.4631,-4.459,-4.4636,-4.4757,-4.4862,-4.5099,-4.5227,-4.492,-4.3902,-4.2977,-4.2458,-4.2769,-4.3078,-4.3539,-4.3901,-4.3539,-4.367,-4.4245,-4.3728,-4.3588,-4.4187,-4.3652,-4.3244,-4.3248,-4.3225,-4.2642,-4.1683,-4.1415,-4.0855,-3.9857,-3.9664,-3.9721,-3.9777,-4.0349,-4.0659,-4.074,-4.1186,-4.1393,-4.1089,-4.1876,-4.2385,-4.2428,-4.2483,-4.2392,-4.1925,-4.1744,-4.1533,-4.1254,-4.1423,-4.128,-4.0987,-4.056,-3.986,-3.8959,-3.8113,-3.7594,-3.7439,-3.7064,-3.6806,-3.6738,-3.6688,-3.6383,-3.5859,-3.5672,-3.5629,-3.5679,-3.6233,-3.6257,-3.6165,-3.7003,-3.8314,-3.9478,-3.8788,-3.8221,-3.7949,-3.7956,-3.7855,-3.7652,-3.7516,-3.7787,-3.755,-3.706,-3.6941,-3.6789,-3.6661,-3.6594,-3.6544,-3.6155,-3.6132,-3.5652,-3.5151,-3.476,-3.4709,-3.4636,-3.4085,-3.3657,-3.3421,-3.3178,-3.3003,-3.2687,-3.2214,-3.2004,-3.2048,-3.1792,-4.6104,-4.6014,-4.6021,-4.5974,-4.5905,-4.5687,-4.5498,-4.5319,-4.5009,-4.4651,-4.4371,-4.4218,-4.4199,-4.4194,-4.4243,-4.4455,-4.4757,-4.5055,-4.5165,-4.4804,-4.4093,-4.3212,-4.314,-4.4019,-4.4364,-4.4154,-4.4382,-4.4681,-4.4859,-4.4628,-4.4626,-4.4878,-4.4424,-4.4306,-4.4491,-4.4246,-4.3706,-4.2815,-4.2153,-4.1425,-4.0537,-3.9873,-3.992,-4.0457,-4.0495,-4.052,-4.0429,-4.0428,-4.0943,-4.1732,-4.2548,-4.2772,-4.2342,-4.2756,-4.2752,-4.2096,-4.2255,-4.232,-4.2176,-4.2506,-4.2323,-4.1247,-4.1107,-4.0324,-3.8676,-3.8408,-3.8102,-3.7923,-3.7648,-3.7398,-3.6958,-3.6823,-3.6671,-3.6489,-3.6031,-3.5679,-3.5728,-3.5815,-3.619,-3.7118,-3.7562,-3.8492,-3.9404,-3.964,-3.9126,-3.8837,-3.8667,-3.8565,-3.8345,-3.8159,-3.8278,-3.8007,-3.7652,-3.7635,-3.7555,-3.7332,-3.7309,-3.7453,-3.7576,-3.7954,-3.725,-3.6419,-3.6085,-3.5864,-3.5774,-3.5385,-3.5026,-3.472,-3.4456,-3.4225,-3.3786,-3.3381,-3.2739,-3.252,-3.2076,-4.5963,-4.5893,-4.5905,-4.5886,-4.5822,-4.5505,-4.5237,-4.4995,-4.4608,-4.4209,-4.3959,-4.3822,-4.3804,-4.3786,-4.3924,-4.4117,-4.4373,-4.4732,-4.4966,-4.5063,-4.4882,-4.4266,-4.3886,-4.4729,-4.5054,-4.4729,-4.5091,-4.5282,-4.5301,-4.5325,-4.5239,-4.5094,-4.4915,-4.483,-4.4796,-4.4707,-4.4105,-4.3171,-4.2573,-4.1919,-4.0961,-4.0476,-4.0476,-4.0933,-4.0993,-4.1248,-4.1545,-4.153,-4.1717,-4.2191,-4.2707,-4.3004,-4.2956,-4.3308,-4.3279,-4.2619,-4.2926,-4.2986,-4.2947,-4.3259,-4.3039,-4.2223,-4.1867,-4.081,-3.9605,-3.9042,-3.8581,-3.8441,-3.8362,-3.8125,-3.7787,-3.7449,-3.728,-3.7185,-3.6538,-3.6052,-3.6068,-3.6082,-3.6283,-3.6896,-3.7476,-3.8182,-3.9364,-3.9508,-3.9562,-3.9446,-3.9445,-3.9242,-3.9005,-3.8819,-3.8717,-3.8616,-3.8413,-3.8362,-3.841,-3.8301,-3.8402,-3.8509,-3.8738,-3.9229,-3.887,-3.7876,-3.7301,-3.7033,-3.6936,-3.669,-3.62,-3.5883,-3.5838,-3.5535,-3.5065,-3.4605,-3.4055,-3.3528,-3.2979,-4.5873,-4.5873,-4.5873,-4.5797,-4.5667,-4.5363,-4.494,-4.4493,-4.4143,-4.3809,-4.3548,-4.3497,-4.3529,-4.3513,-4.3772,-4.3924,-4.3986,-4.4364,-4.4707,-4.4992,-4.5169,-4.4958,-4.446,-4.5109,-4.5473,-4.5435,-4.5566,-4.553,-4.5438,-4.5442,-4.5304,-4.4986,-4.4891,-4.4757,-4.4553,-4.4447,-4.3896,-4.3103,-4.2728,-4.2217,-4.1378,-4.0927,-4.0848,-4.1351,-4.1811,-4.2216,-4.264,-4.2868,-4.272,-4.2121,-4.2582,-4.3181,-4.3781,-4.3915,-4.3858,-4.3732,-4.348,-4.3424,-4.3461,-4.3424,-4.3387,-4.2973,-4.2192,-4.1516,-4.0546,-3.9703,-3.9188,-3.9106,-3.9089,-3.8988,-3.8734,-3.828,-3.7978,-3.7784,-3.7245,-3.6741,-3.6749,-3.6692,-3.631,-3.5722,-3.6864,-3.7792,-3.8404,-3.8788,-3.9176,-3.98,-3.9834,-3.9715,-3.9597,-3.9529,-3.9563,-3.9648,-3.9411,-3.9106,-3.92,-3.9247,-3.9463,-3.966,-3.9874,-4.0217,-4.0338,-3.9571,-3.8713,-3.8242,-3.8217,-3.7729,-3.7046,-3.69,-3.7021,-3.6826,-3.6315,-3.5991,-3.562,-3.5096,-3.4553,-4.5757,-4.568,-4.5661,-4.5496,-4.5218,-4.4881,-4.4511,-4.4136,-4.3791,-4.3597,-4.3513,-4.3479,-4.3479,-4.3532,-4.3597,-4.3597,-4.366,-4.4004,-4.4318,-4.4726,-4.5052,-4.5125,-4.4995,-4.5381,-4.5566,-4.5586,-4.5586,-4.547,-4.5266,-4.5033,-4.4804,-4.4672,-4.426,-4.3943,-4.4087,-4.3912,-4.3656,-4.3262,-4.2783,-4.24,-4.193,-4.102,-4.1001,-4.1919,-4.2249,-4.2047,-4.1699,-4.1625,-4.1534,-4.1732,-4.257,-4.3406,-4.3605,-4.3652,-4.3634,-4.3623,-4.3563,-4.3479,-4.3479,-4.3461,-4.3222,-4.2697,-4.2178,-4.1474,-4.0694,-4.0169,-3.9866,-3.9851,-3.9851,-3.9563,-3.9091,-3.8321,-3.822,-3.8287,-3.7478,-3.6861,-3.716,-3.6474,-3.5763,-3.5776,-3.6245,-3.7282,-3.8382,-3.8645,-3.9189,-3.9867,-4.0087,-4.0087,-4.0087,-4.0087,-4.0087,-4.0087,-3.9918,-3.9613,-3.964,-3.9802,-4.0149,-4.0441,-4.0738,-4.1088,-4.123,-4.1079,-4.0141,-3.9708,-3.9515,-3.8872,-3.8102,-3.8065,-3.8218,-3.7888,-3.7503,-3.7002,-3.6548,-3.6296,-3.5896,-4.5661,-4.5586,-4.5586,-4.54,-4.5074,-4.4751,-4.4373,-4.3967,-4.3646,-4.3479,-4.3479,-4.3479,-4.3479,-4.3479,-4.3479,-4.3479,-4.3563,-4.3849,-4.4087,-4.4373,-4.4688,-4.4962,-4.5115,-4.5263,-4.5419,-4.5568,-4.5586,-4.5413,-4.5132,-4.4905,-4.4689,-4.4317,-4.3918,-4.3823,-4.374,-4.3597,-4.3548,-4.344,-4.3112,-4.2855,-4.2635,-4.2121,-4.1827,-4.2671,-4.2855,-4.2635,-4.2344,-4.2304,-4.2268,-4.2433,-4.302,-4.3479,-4.3479,-4.3479,-4.3479,-4.3479,-4.3479,-4.3479,-4.3479,-4.3461,-4.3332,-4.2873,-4.221,-4.1677,-4.1033,-4.0548,-4.012,-4.0087,-4.0037,-3.9884,-3.9496,-3.8818,-3.8698,-3.852,-3.7518,-3.6888,-3.6919,-3.618,-3.5489,-3.5554,-3.5816,-3.66,-3.7329,-3.8084,-3.8739,-3.9332,-4.007,-4.0087,-4.0087,-4.0087,-4.0087,-4.0087,-4.0087,-4.0036,-4.0068,-4.0315,-4.0717,-4.1011,-4.1279,-4.1713,-4.2049,-4.1814,-4.1484,-4.0982,-4.0432,-4.001,-3.9386,-3.9405,-3.9093,-3.8511,-3.8065,-3.7662,-3.7286,-3.6906,-3.6449,-4.5568,-4.5532,-4.5513,-4.5283,-4.49,-4.4606,-4.428,-4.3912,-4.3612,-4.3589,-4.3626,-4.3589,-4.3571,-4.3663,-4.3534,-4.3497,-4.3563,-4.3726,-4.3912,-4.3986,-4.4318,-4.4657,-4.4919,-4.5096,-4.5322,-4.5568,-4.5513,-4.5303,-4.5149,-4.4954,-4.4495,-4.4098,-4.3918,-4.3758,-4.3548,-4.3479,-4.3479,-4.3461,-4.3406,-4.3369,-4.3314,-4.3112,-4.3002,-4.3054,-4.3332,-4.3222,-4.3041,-4.3149,-4.3314,-4.3332,-4.3424,-4.3479,-4.3479,-4.3479,-4.3479,-4.3479,-4.3479,-4.3479,-4.3479,-4.3479,-4.3461,-4.3444,-4.2426,-4.1895,-4.1516,-4.0763,-4.0204,-4.0087,-4.007,-4.007,-4.0003,-3.9285,-3.8896,-3.8657,-3.751,-3.6722,-3.643,-3.5958,-3.5554,-3.5489,-3.5668,-3.6115,-3.6799,-3.7515,-3.8133,-3.8816,-3.9558,-4.007,-4.007,-4.0087,-4.0087,-4.0087,-4.0087,-4.0087,-4.012,-4.0186,-4.0683,-4.1086,-4.1435,-4.1825,-4.2239,-4.207,-4.172,-4.1604,-4.1167,-4.073,-4.04,-4.0175,-3.9753,-3.9116,-3.8597,-3.8174,-3.7821,-3.7482,-3.6899,-4.5438,-4.518,-4.518,-4.4787,-4.4233,-4.4117,-4.3943,-4.3612,-4.3584,-4.3883,-4.436,-4.3828,-4.3993,-4.4232,-4.3754,-4.3534,-4.3734,-4.376,-4.3667,-4.3734,-4.4011,-4.4318,-4.4657,-4.4877,-4.5201,-4.5438,-4.5302,-4.5087,-4.4921,-4.4505,-4.4188,-4.3948,-4.3756,-4.3548,-4.3513,-4.3479,-4.3479,-4.3479,-4.3479,-4.3479,-4.3387,-4.302,-4.2705,-4.2739,-4.3149,-4.3116,-4.2842,-4.3133,-4.3204,-4.2635,-4.3149,-4.3424,-4.3479,-4.3479,-4.3479,-4.3479,-4.3479,-4.3479,-4.3479,-4.3479,-4.3479,-4.3232,-4.2426,-4.1853,-4.1552,-4.0814,-4.0221,-4.0087,-4.0087,-4.007,-4.007,-3.9368,-3.8978,-3.8509,-3.7642,-3.6615,-3.6368,-3.5991,-3.5489,-3.5489,-3.5554,-3.5668,-3.6368,-3.698,-3.7658,-3.8414,-3.9209,-3.9679,-3.9833,-3.9952,-4.0087,-4.0087,-4.0087,-4.0087,-4.0121,-4.0154,-4.0397,-4.0694,-4.1046,-4.127,-4.1654,-4.186,-4.1797,-4.1686,-4.1665,-4.1426,-4.1165,-4.08,-4.03,-3.9586,-3.912,-3.8654,-3.8006,-3.7405,-3.6961,-4.514,-4.4849,-4.4849,-4.4508,-4.4076,-4.4016,-4.3786,-4.3587,-4.3938,-4.4342,-4.4635,-4.4727,-4.4947,-4.5149,-4.4966,-4.4727,-4.4562,-4.3754,-4.3773,-4.3989,-4.39,-4.3943,-4.4299,-4.4527,-4.4738,-4.4877,-4.4732,-4.4683,-4.4759,-4.4281,-4.3934,-4.3726,-4.3552,-4.3497,-4.3479,-4.3479,-4.3479,-4.3479,-4.3479,-4.3479,-4.3479,-4.3039,-4.28,-4.2693,-4.2812,-4.2832,-4.2717,-4.2796,-4.3086,-4.3006,-4.3296,-4.3442,-4.3479,-4.3479,-4.3479,-4.3479,-4.3479,-4.3479,-4.3479,-4.3479,-4.3479,-4.3356,-4.2426,-4.1895,-4.1552,-4.0844,-4.0171,-4.0087,-4.0087,-4.0087,-4.007,-3.9385,-3.8816,-3.8246,-3.7306,-3.6554,-3.6117,-3.5733,-3.5683,-3.5619,-3.5619,-3.5733,-3.591,-3.6523,-3.7203,-3.8003,-3.887,-3.9262,-3.9542,-3.985,-4.0087,-4.0223,-4.0257,-4.0324,-4.0375,-4.0493,-4.0408,-4.0571,-4.071,-4.0977,-4.1041,-4.1268,-4.1619,-4.1797,-4.1803,-4.1609,-4.1229,-4.0664,-4.0316,-4.0045,-3.9539,-3.8901,-3.7993,-3.7304,-3.6982,-4.4895,-4.4718,-4.4718,-4.4589,-4.4426,-4.4395,-4.4276,-4.4138,-4.4672,-4.5076,-4.5259,-4.5626,-4.592,-4.5993,-4.5792,-4.5626,-4.5736,-4.4342,-4.4195,-4.4397,-4.4138,-4.3989,-4.4203,-4.4289,-4.458,-4.5002,-4.4646,-4.4308,-4.4337,-4.4059,-4.3763,-4.36,-4.3497,-4.3479,-4.3479,-4.3479,-4.3479,-4.3479,-4.3479,-4.3479,-4.3479,-4.3356,-4.3158,-4.2704,-4.2607,-4.2492,-4.2427,-4.2456,-4.279,-4.3051,-4.3267,-4.3375,-4.3479,-4.3479,-4.3479,-4.3479,-4.3479,-4.3479,-4.3479,-4.3479,-4.3444,-4.3214,-4.2364,-4.1895,-4.142,-4.072,-4.0087,-4.0087,-4.0087,-4.0087,-4.002,-3.9558,-3.887,-3.8189,-3.744,-3.6676,-3.6352,-3.6148,-3.6148,-3.6022,-3.5797,-3.5797,-3.591,-3.6228,-3.6904,-3.7483,-3.8286,-3.8978,-3.9315,-3.985,-4.0138,-4.0375,-4.051,-4.0612,-4.0747,-4.0984,-4.0866,-4.0747,-4.0729,-4.0859,-4.0765,-4.075,-4.1091,-4.1332,-4.1262,-4.1025,-4.0727,-4.0729,-4.0689,-4.0465,-3.99,-3.9385,-3.8816,-3.8025,-3.7425,-4.4833,-4.5121,-4.5121,-4.5333,-4.5604,-4.5605,-4.5625,-4.5553,-4.5681,-4.6177,-4.6581,-4.6269,-4.6416,-4.6581,-4.5553,-4.5424,-4.5516,-4.5094,-4.4727,-4.4966,-4.4709,-4.4715,-4.5003,-4.5078,-4.52,-4.5425,-4.5189,-4.4668,-4.4244,-4.3845,-4.3582,-4.3479,-4.3479,-4.3479,-4.3479,-4.3479,-4.3479,-4.3479,-4.3479,-4.3479,-4.3375,-4.305,-4.2788,-4.2498,-4.218,-4.1888,-4.1906,-4.1948,-4.2203,-4.277,-4.2826,-4.305,-4.341,-4.3479,-4.3479,-4.3479,-4.3479,-4.3479,-4.3479,-4.3479,-4.3375,-4.2976,-4.2262,-4.1621,-4.1013,-4.0546,-4.0087,-4.0087,-4.0087,-4.0087,-4.0087,-4.002,-3.9506,-3.887,-3.806,-3.7674,-3.7294,-3.6707,-3.6723,-3.6768,-3.6646,-3.6196,-3.5973,-3.629,-3.6661,-3.7188,-3.7758,-3.8414,-3.9284,-3.9962,-4.0392,-4.0663,-4.1052,-4.1187,-4.1271,-4.1474,-4.1322,-4.1068,-4.0865,-4.0781,-4.0543,-4.0419,-4.0286,-4.048,-4.0466,-4.0617,-4.06,-4.0718,-4.1051,-4.0622,-3.9799,-3.9761,-3.9932,-3.9037,-3.8052,-4.435,-4.4894,-4.4912,-4.5289,-4.5847,-4.5902,-4.5902,-4.5993,-4.6397,-4.6783,-4.7131,-4.7297,-4.748,-4.7443,-4.6544,-4.6562,-4.6856,-4.5957,-4.57,-4.5792,-4.559,-4.5458,-4.5579,-4.5595,-4.5745,-4.5793,-4.5619,-4.5134,-4.4475,-4.3818,-4.3479,-4.3479,-4.3479,-4.3479,-4.3479,-4.3479,-4.3479,-4.3479,-4.3479,-4.3321,-4.305,-4.277,-4.2382,-4.1732,-4.1429,-4.1321,-4.1321,-4.1328,-4.1828,-4.244,-4.2693,-4.2939,-4.3375,-4.3479,-4.3479,-4.3479,-4.3479,-4.3479,-4.3479,-4.3497,-4.3339,-4.3014,-4.2324,-4.1402,-4.0672,-4.0303,-4.0087,-4.0087,-4.0087,-4.0087,-4.0087,-4.0087,-3.961,-3.9102,-3.858,-3.8246,-3.7978,-3.7632,-3.7338,-3.7456,-3.7515,-3.7055,-3.6554,-3.6368,-3.6508,-3.6692,-3.7476,-3.8359,-3.9473,-4.0671,-4.0925,-4.1052,-4.1491,-4.188,-4.1948,-4.2049,-4.1794,-4.1523,-4.1187,-4.095,-4.0357,-4.0104,-4.0121,-4.0087,-4.0254,-4.0391,-4.0476,-4.0222,-4.006,-3.98,-3.9521,-3.9481,-3.9472,-3.9881,-3.9151,-4.3975,-4.4709,-4.4929,-4.5461,-4.6214,-4.6416,-4.6526,-4.6617,-4.715,-4.7407,-4.7572,-4.7994,-4.8269,-4.8122,-4.7498,-4.7352,-4.8104,-4.6819,-4.6507,-4.6507,-4.6434,-4.6085,-4.6029,-4.5993,-4.6232,-4.6195,-4.6286,-4.5643,-4.4744,-4.4158,-4.3773,-4.3497,-4.3479,-4.3479,-4.3479,-4.3479,-4.3479,-4.3497,-4.3339,-4.3069,-4.2732,-4.2342,-4.1764,-4.1191,-4.0816,-4.0698,-4.0706,-4.0961,-4.1552,-4.256,-4.3015,-4.3429,-4.4124,-4.4342,-4.4323,-4.4323,-4.4342,-4.4158,-4.392,-4.3699,-4.3499,-4.2995,-4.2289,-4.1178,-4.0594,-4.0254,-4.0087,-4.0087,-4.0087,-4.0087,-4.0087,-4.0087,-3.985,-3.9437,-3.9032,-3.8707,-3.8463,-3.8391,-3.8343,-3.8541,-3.8541,-3.8133,-3.7515,-3.6707,-3.6477,-3.6368,-3.7076,-3.8248,-3.9713,-4.1268,-4.1861,-4.2108,-4.2586,-4.3082,-4.3372,-4.3165,-4.27,-4.2098,-4.1762,-4.1219,-4.0712,-4.0256,-4.0104,-4.0087,-4.0087,-4.0102,-4.024,-3.9589,-3.8937,-3.8846,-3.8755,-3.8676,-3.8834,-3.9478,-3.9817,-4.3975,-4.4782,-4.548,-4.625,-4.704,-4.7829,-4.8104,-4.7939,-4.8104,-4.8159,-4.8122,-4.8269,-4.8324,-4.8141,-4.77,-4.7645,-4.8269,-4.7425,-4.6893,-4.6617,-4.6581,-4.6617,-4.6581,-4.6764,-4.704,-4.7021,-4.7003,-4.6177,-4.5094,-4.4782,-4.4176,-4.3589,-4.3497,-4.3479,-4.3479,-4.3479,-4.3479,-4.341,-4.3142,-4.2826,-4.2342,-4.1775,-4.1063,-4.0856,-4.046,-4.0154,-4.0187,-4.0655,-4.1628,-4.2917,-4.3418,-4.4266,-4.5022,-4.5296,-4.5314,-4.5314,-4.5314,-4.5076,-4.4672,-4.3995,-4.3287,-4.2598,-4.1835,-4.1059,-4.0577,-4.0286,-4.0121,-4.0087,-4.0087,-4.0087,-4.0087,-4.007,-3.9986,-4.0017,-3.9823,-3.9818,-3.9603,-3.9462,-3.9504,-3.9659,-3.9621,-3.9457,-3.9089,-3.8405,-3.7298,-3.7163,-3.836,-3.9549,-4.0595,-4.2022,-4.2911,-4.3473,-4.3971,-4.4524,-4.5079,-4.4751,-4.4026,-4.3214,-4.263,-4.195,-4.1219,-4.0815,-4.0341,-4.0087,-4.007,-4.0003,-3.9851,-3.9343,-3.8819,-3.8244,-3.8024,-3.8261,-3.8667,-3.9343,-3.9495,-4.3663,-4.4066,-4.5351,-4.6361,-4.713,-4.7976,-4.8324,-4.8324,-4.8324,-4.8324,-4.8324,-4.8324,-4.8324,-4.8196,-4.8086,-4.7994,-4.8251,-4.8031,-4.7572,-4.7535,-4.7627,-4.7627,-4.7572,-4.7535,-4.7847,-4.7829,-4.7737,-4.7003,-4.5626,-4.546,-4.4542,-4.3918,-4.3552,-4.3479,-4.3479,-4.3479,-4.3479,-4.3375,-4.2976,-4.2577,-4.1979,-4.1385,-4.0745,-4.0397,-4.0268,-4.0317,-4.0599,-4.0775,-4.193,-4.3132,-4.379,-4.4816,-4.5847,-4.603,-4.6067,-4.6049,-4.6067,-4.5828,-4.5424,-4.4655,-4.3633,-4.2302,-4.1664,-4.1213,-4.0806,-4.0221,-4.0121,-4.0087,-4.0087,-4.0087,-4.0104,-4.0121,-4.0206,-4.051,-4.0712,-4.0794,-4.0774,-4.0545,-4.0578,-4.0809,-4.1115,-4.1241,-4.0779,-4.0284,-3.9054,-3.8164,-3.9506,-4.0816,-4.1904,-4.3126,-4.4185,-4.4935,-4.5466,-4.5655,-4.6151,-4.5765,-4.5183,-4.4266,-4.3348,-4.239,-4.149,-4.1255,-4.0815,-4.046,-4.002,-3.9901,-3.9648,-3.9242,-3.8734,-3.8159,-3.8058,-3.821,-3.87,-3.9309,-3.9326,-4.3479,-4.3663,-4.4984,-4.6012,-4.6838,-4.7865,-4.8324,-4.8324,-4.8324,-4.8324,-4.8324,-4.8324,-4.8324,-4.8324,-4.8306,-4.8288,-4.8306,-4.8251,-4.8104,-4.8012,-4.8012,-4.8141,-4.8104,-4.8141,-4.8196,-4.8324,-4.8177,-4.7425,-4.5883,-4.6158,-4.5093,-4.4101,-4.3699,-4.3773,-4.3479,-4.3479,-4.3479,-4.3375,-4.2976,-4.2559,-4.2021,-4.1534,-4.1121,-4.0771,-4.072,-4.0969,-4.1329,-4.1718,-4.2817,-4.4069,-4.4985,-4.5606,-4.6339,-4.6799,-4.6727,-4.6673,-4.6599,-4.6526,-4.6122,-4.5425,-4.4473,-4.3632,-4.2477,-4.1858,-4.1125,-4.0506,-4.0087,-4.0087,-4.0087,-4.0206,-4.0358,-4.0527,-4.0865,-4.1253,-4.1439,-4.1574,-4.1743,-4.1704,-4.1842,-4.1963,-4.2115,-4.21,-4.2364,-4.1902,-4.1052,-4.0306,-4.124,-4.2442,-4.3426,-4.4676,-4.5982,-4.6642,-4.703,-4.7066,-4.7037,-4.6411,-4.5606,-4.432,-4.3389,-4.2477,-4.1692,-4.1407,-4.0933,-4.0358,-3.9986,-3.9783,-3.9665,-3.9546,-3.8886,-3.8091,-3.8193,-3.8413,-3.9123,-3.9681,-3.9495,-4.3479,-4.3589,-4.438,-4.515,-4.5938,-4.7589,-4.8231,-4.821,-4.8267,-4.8324,-4.8324,-4.8324,-4.8324,-4.8324,-4.8324,-4.8324,-4.8324,-4.8288,-4.8049,-4.7737,-4.8049,-4.7847,-4.7792,-4.7939,-4.8324,-4.8324,-4.8196,-4.748,-4.603,-4.6563,-4.5571,-4.4525,-4.436,-4.425,-4.3571,-4.3479,-4.3479,-4.341,-4.2976,-4.2711,-4.2552,-4.205,-4.1625,-4.1846,-4.1618,-4.1742,-4.2487,-4.285,-4.3993,-4.5519,-4.6389,-4.7161,-4.8144,-4.8367,-4.8268,-4.7995,-4.8031,-4.7755,-4.7131,-4.6324,-4.5718,-4.5053,-4.3727,-4.3005,-4.2519,-4.1544,-4.056,-4.0948,-4.0628,-4.0731,-4.0951,-4.1221,-4.1627,-4.2016,-4.2202,-4.2455,-4.2642,-4.2828,-4.2946,-4.3014,-4.2732,-4.2567,-4.3276,-4.3448,-4.2816,-4.264,-4.3296,-4.4192,-4.5178,-4.631,-4.7738,-4.8197,-4.855,-4.8233,-4.7965,-4.7005,-4.5993,-4.464,-4.3563,-4.2722,-4.1764,-4.1102,-4.0646,-4.0189,-4.002,-3.9918,-3.9969,-4.002,-3.9343,-3.8751,-3.8582,-3.8836,-3.9546,-3.9884,-3.9614,-4.2995,-4.2994,-4.3426,-4.3755,-4.4245,-4.6065,-4.7207,-4.7702,-4.8075,-4.8324,-4.8324,-4.8324,-4.8324,-4.8324,-4.8324,-4.8324,-4.8324,-4.8324,-4.8012,-4.7994,-4.8196,-4.8141,-4.8049,-4.8086,-4.8324,-4.8324,-4.8214,-4.781,-4.6746,-4.7095,-4.6471,-4.548,-4.5112,-4.4709,-4.3846,-4.3479,-4.3479,-4.341,-4.305,-4.282,-4.3072,-4.2417,-4.2192,-4.2853,-4.2478,-4.2778,-4.3818,-4.4203,-4.5233,-4.6599,-4.7389,-4.8219,-4.8837,-4.893,-4.8728,-4.8402,-4.8324,-4.8233,-4.7921,-4.7461,-4.676,-4.5797,-4.4899,-4.4192,-4.3696,-4.3303,-4.2701,-4.2199,-4.1948,-4.2005,-4.2021,-4.1967,-4.2252,-4.2811,-4.3132,-4.3453,-4.369,-4.3859,-4.3995,-4.4028,-4.3864,-4.4027,-4.4546,-4.5513,-4.5219,-4.5321,-4.5968,-4.6541,-4.7425,-4.8364,-4.9509,-4.9763,-4.9926,-4.949,-4.8876,-4.7705,-4.6735,-4.5668,-4.4433,-4.334,-4.2313,-4.1154,-4.0663,-4.0375,-4.0206,-4.0087,-4.0087,-4.0054,-3.9901,-3.958,-3.9208,-3.8988,-3.9377,-3.9597,-3.9478,-4.2382,-4.2396,-4.2512,-4.2803,-4.3331,-4.5124,-4.6327,-4.7042,-4.747,-4.7738,-4.7937,-4.7977,-4.8132,-4.8229,-4.8324,-4.8324,-4.8324,-4.8324,-4.8324,-4.8324,-4.8324,-4.8269,-4.8288,-4.8324,-4.8324,-4.8324,-4.8233,-4.7865,-4.7057,-4.737,-4.7003,-4.6416,-4.603,-4.5351,-4.4635,-4.447,-4.4323,-4.4162,-4.3816,-4.3468,-4.3338,-4.3021,-4.2972,-4.352,-4.3648,-4.375,-4.4771,-4.5557,-4.6149,-4.7197,-4.806,-4.8767,-4.9013,-4.9062,-4.8813,-4.8495,-4.8324,-4.8306,-4.8251,-4.8233,-4.7437,-4.6603,-4.5892,-4.5371,-4.4846,-4.4299,-4.374,-4.3363,-4.344,-4.3133,-4.2821,-4.2732,-4.298,-4.3538,-4.3842,-4.4164,-4.4231,-4.4439,-4.4661,-4.4708,-4.4966,-4.5297,-4.5896,-4.7139,-4.7794,-4.82,-4.8645,-4.9158,-4.9589,-5.0299,-5.0983,-5.1249,-5.0971,-5.0236,-4.9387,-4.823,-4.7339,-4.6553,-4.5277,-4.3886,-4.2603,-4.1424,-4.0984,-4.0544,-4.0307,-4.0138,-4.0087,-4.002,-3.9952,-3.9783,-3.9495,-3.936,-3.9343,-3.9428,-3.9529,-4.1768,-4.175,-4.175,-4.2233,-4.3166,-4.4355,-4.5464,-4.6242,-4.6271,-4.6659,-4.7313,-4.7301,-4.7625,-4.8153,-4.8267,-4.8324,-4.8324,-4.8324,-4.8324,-4.8324,-4.8324,-4.8324,-4.8324,-4.8324,-4.8324,-4.8324,-4.8251,-4.8012,-4.7296,-4.7737,-4.7682,-4.7241,-4.6819,-4.6361,-4.6122,-4.6104,-4.5718,-4.5169,-4.4711,-4.4382,-4.409,-4.3816,-4.4254,-4.473,-4.4909,-4.5072,-4.581,-4.6477,-4.7057,-4.7857,-4.8665,-4.9156,-4.9435,-4.9456,-4.8963,-4.855,-4.8306,-4.8324,-4.8324,-4.8324,-4.8288,-4.7638,-4.7106,-4.6613,-4.614,-4.5587,-4.5072,-4.4466,-4.4205,-4.3889,-4.3554,-4.3651,-4.3724,-4.4079,-4.4367,-4.4502,-4.4558,-4.4742,-4.4964,-4.5232,-4.5545,-4.6081,-4.7029,-4.8217,-4.9454,-5.035,-5.0762,-5.1452,-5.1782,-5.1682,-5.2314,-5.2568,-5.2064,-5.0919,-4.9866,-4.8712,-4.785,-4.7107,-4.5587,-4.4205,-4.2911,-4.1848,-4.1238,-4.0781,-4.0392,-4.0189,-4.0104,-4.0087,-4.007,-3.9884,-3.9715,-3.9732,-3.9715,-3.98,-3.9901,-4.1178,-4.1133,-4.075,-4.0722,-4.1102,-4.2037,-4.3024,-4.4157,-4.4618,-4.5231,-4.5918,-4.641,-4.7054,-4.7638,-4.8132,-4.8267,-4.8324,-4.8324,-4.8324,-4.8324,-4.8324,-4.8324,-4.8324,-4.8324,-4.8324,-4.8324,-4.8269,-4.8177,-4.8031,-4.8306,-4.8324,-4.7939,-4.8177,-4.8012,-4.7921,-4.8177,-4.7131,-4.6159,-4.5681,-4.5425,-4.5223,-4.5094,-4.5698,-4.6138,-4.6002,-4.6238,-4.6981,-4.7473,-4.7918,-4.8121,-4.892,-4.9363,-4.9077,-4.9062,-4.8779,-4.8402,-4.8324,-4.8324,-4.8324,-4.8324,-4.8324,-4.8453,-4.8297,-4.8279,-4.7813,-4.7157,-4.6555,-4.5891,-4.5223,-4.4933,-4.449,-4.4374,-4.4292,-4.4367,-4.4665,-4.4759,-4.4852,-4.5125,-4.5442,-4.6025,-4.6337,-4.7053,-4.8035,-4.9189,-5.0433,-5.1733,-5.2749,-5.3315,-5.3555,-5.3321,-5.315,-5.3404,-5.2358,-5.0989,-5.0233,-4.9175,-4.8374,-4.7486,-4.613,-4.4861,-4.3902,-4.2894,-4.1715,-4.1052,-4.0815,-4.0459,-4.0087,-4.0138,-4.0307,-4.0121,-4.0019,-4.0037,-4.0087,-4.0087,-4.0087,-4.0594,-4.0546,-4.0237,-4.0087,-4.0206,-4.0882,-4.1563,-4.2221,-4.3339,-4.4279,-4.5,-4.5698,-4.6481,-4.7373,-4.7756,-4.8035,-4.8324,-4.8324,-4.8324,-4.8324,-4.8324,-4.8324,-4.8324,-4.8324,-4.8324,-4.8324,-4.8324,-4.8288,-4.8434,-4.8765,-4.8875,-4.9389,-4.9903,-4.9481,-4.9132,-4.8985,-4.8434,-4.737,-4.6654,-4.6636,-4.6563,-4.6342,-4.6618,-4.726,-4.694,-4.7339,-4.7862,-4.8159,-4.8352,-4.8273,-4.8905,-4.9307,-4.893,-4.8779,-4.864,-4.8306,-4.8324,-4.8324,-4.8324,-4.8324,-4.8324,-4.8434,-4.8802,-4.8636,-4.8634,-4.826,-4.7775,-4.7252,-4.6639,-4.6108,-4.5528,-4.4981,-4.4797,-4.457,-4.4759,-4.4944,-4.5232,-4.5545,-4.614,-4.6772,-4.7402,-4.8038,-4.9011,-5.0159,-5.1225,-5.2272,-5.32,-5.3938,-5.4134,-5.4,-5.3721,-5.3665,-5.2266,-5.0784,-5.016,-4.9551,-4.8593,-4.7832,-4.705,-4.5932,-4.4966,-4.3952,-4.2824,-4.197,-4.1336,-4.103,-4.084,-4.0595,-4.0612,-4.0476,-4.0441,-4.0476,-4.0358,-4.0087,-4.0087,-4.0121,-4.0121,-4.0087,-4.0138,-4.0257,-4.0832,-4.0832,-4.0426,-4.246,-4.3627,-4.4249,-4.5077,-4.6081,-4.7008,-4.7428,-4.7838,-4.8172,-4.8324,-4.8324,-4.8324,-4.8324,-4.8324,-4.8324,-4.8324,-4.8324,-4.8324,-4.8489,-4.8783,-4.8857,-4.9279,-4.9994,-5.0784,-5.0857,-5.038,-4.9572,-4.9976,-4.9389,-4.8104,-4.7847,-4.7939,-4.7904,-4.7261,-4.6544,-4.7443,-4.7609,-4.772,-4.7868,-4.8179,-4.8639,-4.853,-4.8589,-4.9126,-4.8847,-4.855,-4.8364,-4.8306,-4.8324,-4.8324,-4.8324,-4.8324,-4.8324,-4.8343,-4.8379,-4.8618,-4.8875,-4.9058,-4.8652,-4.8206,-4.7581,-4.695,-4.6353,-4.5717,-4.5391,-4.5511,-4.5743,-4.589,-4.6168,-4.6671,-4.7422,-4.8093,-4.8839,-4.9455,-4.9791,-5.0926,-5.1977,-5.2862,-5.3781,-5.4618,-5.4477,-5.4415,-5.4078,-5.374,-5.2412,-5.1077,-5.0527,-4.9786,-4.8674,-4.7938,-4.7506,-4.7024,-4.6145,-4.5093,-4.3962,-4.3148,-4.2449,-4.202,-4.1764,-4.163,-4.1383,-4.1109,-4.104,-4.0965,-4.0796,-4.0521,-4.0319,-4.0087,-4.0087,-4.0087,-4.0392,-4.0832,-4.051,-4.0595,-4.1018,-4.2049,-4.2734,-4.303,-4.4164,-4.5425,-4.6628,-4.7237,-4.7715,-4.8172,-4.8324,-4.8324,-4.8324,-4.8324,-4.8324,-4.8324,-4.8324,-4.8343,-4.8545,-4.8893,-4.9554,-5.005,-5.0398,-5.0582,-5.0912,-5.1224,-5.0986,-4.9866,-5.0435,-5.0233,-4.8655,-4.9224,-4.937,-4.9373,-4.9281,-4.9003,-4.9536,-4.9774,-4.9627,-4.9612,-4.9413,-4.9435,-4.927,-4.868,-4.8587,-4.8439,-4.8363,-4.8324,-4.8324,-4.8361,-4.8434,-4.8416,-4.8416,-4.8398,-4.8655,-4.8838,-4.9132,-4.937,-4.9517,-4.942,-4.8976,-4.8435,-4.7775,-4.7205,-4.6569,-4.6163,-4.646,-4.6812,-4.6966,-4.7174,-4.7907,-4.871,-4.9455,-5.021,-5.065,-5.0903,-5.1651,-5.2711,-5.3732,-5.471,-5.5255,-5.4629,-5.435,-5.3905,-5.3456,-5.261,-5.1536,-5.0839,-5.0028,-4.8919,-4.8452,-4.8138,-4.7723,-4.7204,-4.6248,-4.522,-4.4375,-4.3658,-4.3358,-4.3049,-4.281,-4.2552,-4.2149,-4.2004,-4.2072,-4.1748,-4.144,-4.1082,-4.0087,-4.0087,-4.0087,-4.0324,-4.0578,-4.0257,-4.0324,-4.09,-4.2159,-4.2757,-4.2963,-4.4215,-4.5481,-4.646,-4.7088,-4.7715,-4.8229,-4.8324,-4.8324,-4.8324,-4.8324,-4.8324,-4.8324,-4.8343,-4.871,-4.8948,-4.9738,-5.049,-5.1096,-5.1371,-5.1426,-5.1665,-5.1977,-5.1389,-5.0325,-5.0912,-5.0692,-4.904,-5.027,-5.071,-5.0677,-5.0472,-5.0251,-5.0747,-5.0839,-5.0857,-5.0692,-5.0325,-5.0233,-5.0068,-4.9761,-4.9283,-4.9265,-4.9358,-4.9007,-4.8693,-4.8638,-4.8859,-4.8765,-4.8691,-4.8746,-4.9224,-4.9242,-4.9517,-5.0233,-5.0417,-5.0527,-5.0081,-4.939,-4.8765,-4.8276,-4.7697,-4.7335,-4.7368,-4.8038,-4.8514,-4.8758,-4.9234,-4.9742,-5.0181,-5.082,-5.1249,-5.163,-5.2333,-5.3251,-5.3677,-5.4805,-5.5019,-5.4541,-5.4217,-5.3777,-5.3225,-5.2357,-5.1298,-5.0251,-4.9682,-4.9111,-4.8809,-4.8634,-4.8042,-4.7428,-4.7084,-4.6477,-4.5592,-4.5015,-4.4825,-4.4514,-4.4168,-4.373,-4.3313,-4.327,-4.3324,-4.2924,-4.2601,-4.2491,-3.9986,-4.007,-4.0087,-4.0087,-4.0087,-4.0087,-4.0171,-4.0559,-4.2236,-4.3253,-4.3576,-4.4896,-4.587,-4.6553,-4.7088,-4.7697,-4.8132,-4.8267,-4.8324,-4.8324,-4.8324,-4.8324,-4.8324,-4.8361,-4.8802,-4.937,-5.0068,-5.082,-5.1518,-5.1573,-5.1793,-5.2582,-5.2215,-5.1463,-5.1004,-5.0875,-5.0563,-5.0233,-5.0784,-5.1444,-5.1463,-5.1389,-5.1206,-5.1096,-5.1114,-5.1114,-5.1114,-5.1004,-5.1004,-5.082,-5.0674,-5.0233,-5.0055,-5.0094,-4.9763,-4.9393,-4.9469,-4.9669,-4.9648,-4.9279,-4.9756,-5.0141,-4.9845,-5.0043,-5.0794,-5.1064,-5.1174,-5.0921,-5.0218,-4.9866,-4.9383,-4.8926,-4.8521,-4.8606,-4.9388,-5.0115,-5.0362,-5.056,-5.0743,-5.1059,-5.158,-5.2029,-5.2426,-5.3094,-5.3535,-5.3944,-5.4078,-5.4113,-5.4115,-5.3884,-5.3609,-5.2927,-5.2151,-5.1004,-5.0013,-4.9646,-4.9444,-4.8928,-4.8681,-4.8152,-4.7756,-4.7579,-4.7284,-4.6871,-4.6372,-4.621,-4.5802,-4.5395,-4.4939,-4.4607,-4.4701,-4.4759,-4.4443,-4.4201,-4.4201,-3.9546,-4.0087,-4.0087,-4.0087,-4.007,-4.0121,-4.0319,-4.0905,-4.1877,-4.2875,-4.4082,-4.5374,-4.6442,-4.7176,-4.7281,-4.7715,-4.8229,-4.8324,-4.8324,-4.8324,-4.8324,-4.8324,-4.8379,-4.8508,-4.8893,-4.9444,-4.9958,-5.0325,-5.1224,-5.1224,-5.1114,-5.1371,-5.1389,-5.1041,-5.1004,-5.1041,-5.1316,-5.1041,-5.161,-5.2454,-5.1995,-5.2013,-5.2307,-5.2435,-5.2747,-5.2747,-5.2619,-5.2087,-5.1867,-5.1591,-5.1261,-5.0912,-5.0787,-5.083,-5.0591,-5.0276,-5.037,-5.0496,-5.042,-5.0138,-5.0615,-5.089,-5.0602,-5.0301,-5.082,-5.1084,-5.1167,-5.1203,-5.0809,-5.0887,-5.0473,-4.9973,-4.9655,-5.0265,-5.0976,-5.1566,-5.1985,-5.1844,-5.183,-5.237,-5.2958,-5.3069,-5.2956,-5.3522,-5.391,-5.4143,-5.4137,-5.4108,-5.3832,-5.3609,-5.342,-5.2779,-5.2036,-5.1408,-5.071,-5.0288,-4.9958,-4.9334,-4.8893,-4.8681,-4.8477,-4.8208,-4.7913,-4.7718,-4.7703,-4.7615,-4.7189,-4.6408,-4.6452,-4.619,-4.6243,-4.6193,-4.5933,-4.5654,-4.5506]}]]